EW1734 Weather Reports


time (UTC)temp
C
wind
direction
speed
KPH
gust
KPH
rain 1hr
cm
rain 24hr
cm
rain mn
cm
humidity
%
barometer
mb
20260905090224 16 64 0.0 0.0 0.00 0.00 0.00 79 1012.9
20260905090213 16 64 0.0 1.6 0.00 0.00 0.00 78 1012.9
20260905090021 16 60 1.6 0.0 0.00 0.00 0.00 78 1013.2
20260905085932 16 89 0.0 3.2 0.00 0.00 0.00 78 1014.0
20260905085919 16 60 1.6 0.0 0.00 0.00 0.00 78 1013.2
20260905085820 16 60 1.6 0.0 0.00 0.00 0.00 78 1013.2
20260905085749 16 60 1.6 0.0 0.00 0.00 0.00 78 1013.2
20260905085719 16 60 1.6 0.0 0.00 0.00 0.00 78 1013.2
20260905085624 16 60 1.6 0.0 0.00 0.00 0.00 78 1013.2
20260905085602 16 60 1.6 3.2 0.00 0.00 0.00 78 1013.2
20260905085522 16 60 1.6 0.0 0.00 0.00 0.00 78 1013.2
20260905085431 16 68 3.2 3.2 0.00 0.00 0.00 78 1014.0
20260905085422 16 60 1.6 0.0 0.00 0.00 0.00 78 1013.2
20260905085322 16 60 1.6 0.0 0.00 0.00 0.00 78 1013.2
20260905085309 16 89 0.0 0.0 0.00 0.00 0.00 78 1013.1
20260905085241 16 60 1.6 0.0 0.00 0.00 0.00 78 1013.2
20260905085233 16 60 1.6 0.0 0.00 0.00 0.00 78 1013.2
20260905085021 16 89 0.0 0.0 0.00 0.00 0.00 78 1013.1
20260905084956 16 89 0.0 0.0 0.00 0.00 0.00 77 1013.2
20260905084933 16 89 0.0 0.0 0.00 0.00 0.00 78 1013.1
20260905084928 16 89 0.0 1.6 0.00 0.00 0.00 78 1014.1
20260905084758 16 89 0.0 0.0 0.00 0.00 0.00 77 1013.1
20260905084719 16 89 0.0 0.0 0.00 0.00 0.00 78 1013.1
20260905084651 16 89 0.0 0.0 0.00 0.00 0.00 78 1013.1
20260905084641 16 89 0.0 0.0 0.00 0.00 0.00 77 1013.1
20260905084620 16 89 0.0 0.0 0.00 0.00 0.00 78 1013.1
20260905084603 16 89 0.0 0.0 0.00 0.00 0.00 78 1013.1
20260905084448 16 89 0.0 0.0 0.00 0.00 0.00 78 1013.1
20260905084438 16 89 0.0 0.0 0.00 0.00 0.00 77 1013.2
20260905084434 16 89 0.0 0.0 0.00 0.00 0.00 77 1013.1
20260905084427 16 83 1.6 3.2 0.00 0.00 0.00 77 1014.1
20260905084301 16 89 0.0 0.0 0.00 0.00 0.00 77 1013.1
20260905084130 16 89 0.0 0.0 0.00 0.00 0.00 77 1013.2
20260905084126 16 89 0.0 1.6 0.00 0.00 0.00 77 1013.1
20260905084112 16 89 0.0 0.0 0.00 0.00 0.00 77 1013.2
20260905083922 16 42 0.0 3.2 0.00 0.00 0.00 77 1014.1
20260905083820 16 89 0.0 0.0 0.00 0.00 0.00 77 1013.2
20260905083750 16 89 0.0 0.0 0.00 0.00 0.00 77 1013.2
20260905083719 16 89 0.0 0.0 0.00 0.00 0.00 77 1013.2
20260905083706 16 89 0.0 0.0 0.00 0.00 0.00 77 1013.2
20260905083659 16 89 0.0 0.0 0.00 0.00 0.00 77 1013.2
20260905083519 16 89 0.0 0.0 0.00 0.00 0.00 77 1013.2
20260905083419 16 89 0.0 0.0 0.00 0.00 0.00 77 1013.2
20260905083319 16 89 0.0 0.0 0.00 0.00 0.00 77 1013.2
20260905083251 17 34 1.6 0.0 0.00 0.00 0.00 77 1013.0
20260905083241 16 89 0.0 0.0 0.00 0.00 0.00 77 1013.2
20260905083233 16 89 0.0 0.0 0.00 0.00 0.00 77 1013.2
20260905083019 16 34 1.6 0.0 0.00 0.00 0.00 77 1013.0
20260905082940 17 34 1.6 0.0 0.00 0.00 0.00 77 1013.0
20260905082920 16 34 1.6 0.0 0.00 0.00 0.00 77 1013.0
20260905082913 16 352 0.0 3.2 0.00 0.00 0.00 77 1014.2
20260905082839 16 34 1.6 0.0 0.00 0.00 0.00 77 1013.0
20260905082830 16 34 1.6 0.0 0.00 0.00 0.00 77 1013.0
20260905082621 17 34 1.6 0.0 0.00 0.00 0.00 77 1013.0
20260905082608 17 34 1.6 1.6 0.00 0.00 0.00 76 1013.0
20260905082559 17 34 1.6 0.0 0.00 0.00 0.00 77 1013.0
20260905082420 17 34 1.6 0.0 0.00 0.00 0.00 76 1013.0
20260905082410 17 56 1.6 1.6 0.00 0.00 0.00 76 1014.1
20260905082320 17 34 1.6 0.0 0.00 0.00 0.00 76 1013.0
20260905082241 17 34 1.6 0.0 0.00 0.00 0.00 76 1013.0
20260905082233 17 34 1.6 0.0 0.00 0.00 0.00 76 1013.0
20260905082021 17 6 0.0 0.0 0.00 0.00 0.00 76 1013.2
20260905081932 17 6 0.0 0.0 0.00 0.00 0.00 76 1013.2
20260905081909 17 19 0.0 3.2 0.00 0.00 0.00 76 1014.0
20260905081850 17 6 0.0 0.0 0.00 0.00 0.00 76 1013.2
20260905081819 17 6 0.0 0.0 0.00 0.00 0.00 76 1013.2
20260905081720 17 6 0.0 0.0 0.00 0.00 0.00 76 1013.2
20260905081619 17 6 0.0 0.0 0.00 0.00 0.00 76 1013.2
20260905081520 17 6 0.0 0.0 0.00 0.00 0.00 76 1013.2
20260905081420 17 6 0.0 0.0 0.00 0.00 0.00 76 1013.2
20260905081404 17 40 3.2 3.2 0.00 0.00 0.00 76 1014.1
20260905081327 17 6 0.0 0.0 0.00 0.00 0.00 76 1013.2
20260905081220 17 6 0.0 0.0 0.00 0.00 0.00 76 1013.2
20260905081148 17 6 0.0 0.0 0.00 0.00 0.00 76 1013.2
20260905081121 17 6 0.0 3.2 0.00 0.00 0.00 76 1013.2
20260905081022 17 30 0.0 0.0 0.00 0.00 0.00 76 1013.0
20260905080922 17 30 0.0 0.0 0.00 0.00 0.00 76 1013.0
20260905080903 17 45 1.6 3.2 0.00 0.00 0.00 76 1014.0
20260905080819 17 30 0.0 0.0 0.00 0.00 0.00 76 1013.0
20260905080723 17 30 0.0 0.0 0.00 0.00 0.00 76 1013.0
20260905080719 17 30 0.0 0.0 0.00 0.00 0.00 76 1013.0
20260905080620 17 30 0.0 0.0 0.00 0.00 0.00 76 1013.0
20260905080559 17 30 0.0 1.6 0.00 0.00 0.00 76 1013.0
20260905080532 17 30 0.0 0.0 0.00 0.00 0.00 76 1013.0
20260905080438 17 30 0.0 0.0 0.00 0.00 0.00 76 1013.0
20260905080403 17 18 0.0 0.0 0.00 0.00 0.00 76 1013.1
20260905080358 17 6 3.2 3.2 0.00 0.00 0.00 76 1014.1
20260905080355 17 30 0.0 0.0 0.00 0.00 0.00 76 1013.0
20260905080341 17 30 0.0 0.0 0.00 0.00 0.00 76 1013.0
20260905080020 17 18 0.0 0.0 0.00 0.00 0.00 76 1013.1
20260905075920 17 18 0.0 0.0 0.00 0.00 0.00 76 1013.1
20260905075857 17 38 0.0 3.2 0.00 0.00 0.00 76 1014.1
20260905075850 17 18 0.0 0.0 0.00 0.00 0.00 76 1013.1
20260905075819 17 18 0.0 0.0 0.00 0.00 0.00 76 1013.1
20260905075739 17 18 0.0 0.0 0.00 0.00 0.00 76 1013.1
20260905075735 17 18 0.0 0.0 0.00 0.00 0.00 76 1013.1
20260905075520 17 18 0.0 0.0 0.00 0.00 0.00 76 1013.1
20260905075449 17 18 0.0 0.0 0.00 0.00 0.00 76 1013.1
20260905075419 17 18 0.0 0.0 0.00 0.00 0.00 76 1013.1
20260905075357 17 19 0.0 3.2 0.00 0.00 0.00 76 1014.0
20260905075332 17 18 0.0 0.0 0.00 0.00 0.00 76 1013.1
20260905075307 17 41 0.0 0.0 0.00 0.00 0.00 76 1013.2
20260905075300 17 18 0.0 0.0 0.00 0.00 0.00 76 1013.1
20260905075133 17 18 0.0 1.6 0.00 0.00 0.00 76 1013.1
20260905075034 17 41 0.0 0.0 0.00 0.00 0.00 76 1013.2
20260905074919 17 41 0.0 0.0 0.00 0.00 0.00 76 1013.2
20260905074900 17 41 0.0 0.0 0.00 0.00 0.00 76 1013.2
20260905074856 17 47 0.0 3.2 0.00 0.00 0.00 76 1014.1
20260905074719 17 41 0.0 0.0 0.00 0.00 0.00 76 1013.2
20260905074620 17 41 0.0 0.0 0.00 0.00 0.00 76 1013.2
20260905074558 17 41 0.0 1.6 0.00 0.00 0.00 75 1013.2
20260905074520 17 41 0.0 0.0 0.00 0.00 0.00 76 1013.2
20260905074419 17 41 0.0 0.0 0.00 0.00 0.00 76 1013.2
20260905074356 17 74 0.0 0.0 0.00 0.00 0.00 75 1013.2
20260905074352 17 49 0.0 3.2 0.00 0.00 0.00 75 1014.1
20260905074350 17 41 0.0 0.0 0.00 0.00 0.00 76 1013.2
20260905074319 17 41 0.0 0.0 0.00 0.00 0.00 75 1013.2
20260905074244 17 41 0.0 0.0 0.00 0.00 0.00 75 1013.2
20260905074232 17 41 0.0 0.0 0.00 0.00 0.00 75 1013.2
20260905074033 17 74 0.0 0.0 0.00 0.00 0.00 75 1013.2
20260905073847 17 38 1.6 3.2 0.00 0.00 0.00 76 1014.3
20260905073834 17 74 0.0 0.0 0.00 0.00 0.00 76 1013.2
20260905073719 17 74 0.0 0.0 0.00 0.00 0.00 76 1013.2
20260905073632 17 74 0.0 0.0 0.00 0.00 0.00 76 1013.2
20260905073606 17 74 0.0 1.6 0.00 0.00 0.00 76 1013.2
20260905073520 17 74 0.0 0.0 0.00 0.00 0.00 76 1013.2
20260905073421 17 74 0.0 0.0 0.00 0.00 0.00 76 1013.2
20260905073404 17 44 0.0 0.0 0.00 0.00 0.00 76 1013.3
20260905073351 17 74 0.0 0.0 0.00 0.00 0.00 76 1013.2
20260905073343 17 59 1.6 3.2 0.00 0.00 0.00 76 1014.1
20260905073319 17 74 0.0 0.0 0.00 0.00 0.00 76 1013.2
20260905073249 17 44 0.0 0.0 0.00 0.00 0.00 75 1013.3
20260905073239 17 74 0.0 0.0 0.00 0.00 0.00 76 1013.2
20260905073231 17 74 0.0 0.0 0.00 0.00 0.00 76 1013.2
20260905073039 17 44 0.0 0.0 0.00 0.00 0.00 75 1013.3
20260905073035 17 44 0.0 0.0 0.00 0.00 0.00 76 1013.3
20260905072849 17 44 0.0 0.0 0.00 0.00 0.00 76 1013.3
20260905072837 17 30 1.6 3.2 0.00 0.00 0.00 75 1014.1
20260905072620 17 44 0.0 0.0 0.00 0.00 0.00 75 1013.3
20260905072601 17 44 0.0 0.0 0.00 0.00 0.00 75 1013.3
20260905072419 17 44 0.0 0.0 0.00 0.00 0.00 75 1013.3
20260905072332 17 70 3.2 3.2 0.00 0.00 0.00 75 1014.1
20260905072320 17 44 0.0 0.0 0.00 0.00 0.00 75 1013.3
20260905072257 17 35 0.0 0.0 0.00 0.00 0.00 75 1013.2
20260905072252 17 44 0.0 0.0 0.00 0.00 0.00 75 1013.3
20260905072220 17 44 0.0 0.0 0.00 0.00 0.00 75 1013.3
20260905072149 17 44 0.0 0.0 0.00 0.00 0.00 75 1013.3
20260905072120 17 44 0.0 1.6 0.00 0.00 0.00 75 1013.3
20260905072057 17 35 0.0 0.0 0.00 0.00 0.00 75 1013.2
20260905072021 17 35 0.0 0.0 0.00 0.00 0.00 75 1013.2
20260905071934 17 35 0.0 0.0 0.00 0.00 0.00 75 1013.2
20260905071829 17 60 1.6 3.2 0.00 0.00 0.00 75 1014.1
20260905071801 17 71 1.6 0.0 0.00 0.00 0.00 75 1013.0
20260905071737 17 35 0.0 0.0 0.00 0.00 0.00 75 1013.2
20260905071733 17 35 0.0 0.0 0.00 0.00 0.00 75 1013.2
20260905071550 17 35 0.0 0.0 0.00 0.00 0.00 75 1013.2
20260905071519 17 35 0.0 0.0 0.00 0.00 0.00 75 1013.2
20260905071500 17 71 1.6 0.0 0.00 0.00 0.00 75 1013.0
20260905071435 17 35 0.0 0.0 0.00 0.00 0.00 75 1013.2
20260905071423 17 35 0.0 0.0 0.00 0.00 0.00 75 1013.2
20260905071320 17 73 1.6 3.2 0.00 0.00 0.00 75 1014.0
20260905071305 17 71 1.6 0.0 0.00 0.00 0.00 75 1013.0
20260905071258 17 35 0.0 0.0 0.00 0.00 0.00 75 1013.2
20260905071125 17 35 0.0 0.0 0.00 0.00 0.00 75 1013.2
20260905071110 17 71 1.6 0.0 0.00 0.00 0.00 75 1013.0
20260905070954 17 71 1.6 0.0 0.00 0.00 0.00 75 1013.0
20260905070944 17 71 1.6 0.0 0.00 0.00 0.00 74 1013.0
20260905070814 17 49 3.2 4.8 0.00 0.00 0.00 75 1014.0
20260905070620 17 71 1.6 0.0 0.00 0.00 0.00 75 1013.0
20260905070520 17 71 1.6 0.0 0.00 0.00 0.00 75 1013.0
20260905070435 17 71 1.6 0.0 0.00 0.00 0.00 75 1013.0
20260905070310 17 51 3.2 3.2 0.00 0.00 0.00 75 1013.9
20260905070220 17 71 1.6 0.0 0.00 0.00 0.00 75 1013.0
20260905070207 17 50 0.0 0.0 0.00 0.00 0.00 75 1013.0
20260905070149 17 71 1.6 0.0 0.00 0.00 0.00 75 1013.0
20260905070120 17 71 1.6 3.2 0.00 0.00 0.00 75 1013.0
20260905070020 17 50 0.0 0.0 0.00 0.00 0.00 75 1013.0
20260905065919 17 50 0.0 0.0 0.00 0.00 0.00 75 1013.0
20260905065838 17 50 0.0 0.0 0.00 0.00 0.00 75 1013.0
20260905065834 17 50 0.0 0.0 0.00 0.00 0.00 75 1013.0
20260905065809 17 67 1.6 1.6 0.00 0.00 0.00 75 1013.7
20260905065648 17 50 0.0 0.0 0.00 0.00 0.00 75 1013.0
20260905065622 17 50 0.0 0.0 0.00 0.00 0.00 75 1013.0
20260905065548 17 50 0.0 0.0 0.00 0.00 0.00 75 1013.0
20260905065522 17 50 0.0 0.0 0.00 0.00 0.00 75 1013.0
20260905065433 17 50 0.0 0.0 0.00 0.00 0.00 75 1013.0
20260905065308 17 61 1.6 1.6 0.00 0.00 0.00 75 1013.8
20260905065220 17 50 0.0 0.0 0.00 0.00 0.00 75 1013.0
20260905065149 17 50 0.0 0.0 0.00 0.00 0.00 75 1013.0
20260905065125 17 50 0.0 0.0 0.00 0.00 0.00 74 1013.0
20260905065110 17 68 3.2 0.0 0.00 0.00 0.00 74 1013.0
20260905065024 17 68 3.2 0.0 0.00 0.00 0.00 74 1013.0
20260905065020 17 68 3.2 0.0 0.00 0.00 0.00 74 1013.0
20260905064919 17 68 3.2 0.0 0.00 0.00 0.00 74 1013.0
20260905064821 17 68 3.2 0.0 0.00 0.00 0.00 74 1013.0
20260905064803 17 73 3.2 3.2 0.00 0.00 0.00 74 1013.8
20260905064748 17 68 3.2 0.0 0.00 0.00 0.00 74 1013.0
20260905064519 17 68 3.2 0.0 0.00 0.00 0.00 74 1013.0
20260905064433 17 68 3.2 0.0 0.00 0.00 0.00 74 1013.0
20260905064320 17 68 3.2 0.0 0.00 0.00 0.00 74 1013.0
20260905064259 17 58 0.0 3.2 0.00 0.00 0.00 74 1013.7
20260905064219 17 68 3.2 0.0 0.00 0.00 0.00 74 1013.0
20260905064159 17 68 1.6 0.0 0.00 0.00 0.00 73 1012.9
20260905064149 17 68 3.2 0.0 0.00 0.00 0.00 73 1013.0
20260905064120 17 68 3.2 3.2 0.00 0.00 0.00 74 1013.0
20260905064028 17 68 1.6 0.0 0.00 0.00 0.00 73 1012.9
20260905064020 17 68 1.6 0.0 0.00 0.00 0.00 73 1012.9
20260905063919 17 68 1.6 0.0 0.00 0.00 0.00 73 1012.9
20260905063834 17 68 1.6 0.0 0.00 0.00 0.00 73 1012.9
20260905063757 17 55 0.0 1.6 0.00 0.00 0.00 73 1013.7
20260905063705 17 68 1.6 0.0 0.00 0.00 0.00 73 1012.9
20260905063658 17 68 1.6 0.0 0.00 0.00 0.00 73 1012.9
20260905063519 17 68 1.6 0.0 0.00 0.00 0.00 73 1012.9
20260905063421 17 68 1.6 0.0 0.00 0.00 0.00 73 1012.9
20260905063320 17 68 1.6 0.0 0.00 0.00 0.00 73 1012.9
20260905063259 17 68 1.6 0.0 0.00 0.00 0.00 73 1012.9
20260905063254 17 49 0.0 3.2 0.00 0.00 0.00 73 1013.7
20260905063120 17 68 1.6 1.6 0.00 0.00 0.00 73 1012.9
20260905063032 17 89 0.0 0.0 0.00 0.00 0.00 72 1012.9
20260905063027 17 89 0.0 0.0 0.00 0.00 0.00 73 1012.9
20260905062925 17 89 0.0 0.0 0.00 0.00 0.00 73 1012.9
20260905062819 17 89 0.0 0.0 0.00 0.00 0.00 73 1012.9
20260905062749 17 34 0.0 3.2 0.00 0.00 0.00 73 1013.6
20260905062721 17 89 0.0 0.0 0.00 0.00 0.00 73 1012.9
20260905062655 17 89 0.0 0.0 0.00 0.00 0.00 72 1012.9
20260905062519 17 89 0.0 0.0 0.00 0.00 0.00 72 1012.9
20260905062419 17 89 0.0 0.0 0.00 0.00 0.00 72 1012.9
20260905062320 17 89 0.0 0.0 0.00 0.00 0.00 72 1012.9
20260905062248 18 44 0.0 3.2 0.00 0.00 0.00 72 1013.8
20260905062222 18 89 0.0 0.0 0.00 0.00 0.00 72 1012.9
20260905062149 18 89 0.0 0.0 0.00 0.00 0.00 72 1012.9
20260905062120 18 89 0.0 1.6 0.00 0.00 0.00 72 1012.9
20260905062020 18 22 1.6 0.0 0.00 0.00 0.00 72 1012.9
20260905061920 18 22 1.6 0.0 0.00 0.00 0.00 72 1012.9
20260905061820 18 22 1.6 0.0 0.00 0.00 0.00 71 1012.9
20260905061743 18 89 0.0 1.6 0.00 0.00 0.00 71 1013.8
20260905061720 18 22 1.6 0.0 0.00 0.00 0.00 71 1012.9
20260905061619 18 22 1.6 0.0 0.00 0.00 0.00 71 1012.9
20260905061520 18 22 1.6 0.0 0.00 0.00 0.00 71 1012.9
20260905061419 18 22 1.6 0.0 0.00 0.00 0.00 71 1012.9
20260905061320 18 22 1.6 0.0 0.00 0.00 0.00 71 1012.9
20260905061238 18 42 0.0 1.6 0.00 0.00 0.00 71 1013.8
20260905061225 18 82 0.0 0.0 0.00 0.00 0.00 70 1012.9
20260905061220 18 22 1.6 0.0 0.00 0.00 0.00 71 1012.9
20260905061148 18 22 1.6 0.0 0.00 0.00 0.00 71 1012.9
20260905061120 18 22 1.6 1.6 0.00 0.00 0.00 71 1012.9
20260905061036 18 82 0.0 0.0 0.00 0.00 0.00 71 1012.9
20260905060932 18 82 0.0 0.0 0.00 0.00 0.00 71 1012.9
20260905060905 18 82 0.0 0.0 0.00 0.00 0.00 70 1012.9
20260905060858 18 82 0.0 0.0 0.00 0.00 0.00 70 1012.9
20260905060732 18 55 0.0 1.6 0.00 0.00 0.00 70 1013.8
20260905060719 18 82 0.0 0.0 0.00 0.00 0.00 70 1012.9
20260905060632 18 82 0.0 0.0 0.00 0.00 0.00 70 1012.9
20260905060520 18 82 0.0 0.0 0.00 0.00 0.00 70 1012.9
20260905060458 18 82 0.0 0.0 0.00 0.00 0.00 70 1012.9
20260905060321 18 82 0.0 0.0 0.00 0.00 0.00 70 1012.9
20260905060248 18 82 0.0 0.0 0.00 0.00 0.00 70 1012.9
20260905060230 18 89 0.0 3.2 0.00 0.00 0.00 69 1013.8
20260905060221 18 82 0.0 0.0 0.00 0.00 0.00 69 1012.9
20260905060148 18 82 0.0 0.0 0.00 0.00 0.00 69 1012.9
20260905060120 18 82 0.0 3.2 0.00 0.00 0.00 69 1012.9
20260905060020 18 57 0.0 0.0 0.00 0.00 0.00 69 1012.9
20260905060001 18 57 0.0 0.0 0.00 0.00 0.00 69 1012.9
20260905055919 18 57 0.0 0.0 0.00 0.00 0.00 69 1012.9
20260905055848 18 57 0.0 0.0 0.00 0.00 0.00 70 1012.9
20260905055819 18 57 0.0 0.0 0.00 0.00 0.00 69 1012.9
20260905055728 18 51 0.0 1.6 0.00 0.00 0.00 70 1013.9
20260905055726 18 57 0.0 0.0 0.00 0.00 0.00 70 1012.9
20260905055721 18 57 0.0 0.0 0.00 0.00 0.00 69 1012.9
20260905055635 18 57 0.0 0.0 0.00 0.00 0.00 70 1012.9
20260905055424 18 44 0.0 0.0 0.00 0.00 0.00 70 1012.8
20260905055420 18 57 0.0 0.0 0.00 0.00 0.00 69 1012.9
20260905055408 18 57 0.0 0.0 0.00 0.00 0.00 70 1012.9
20260905055358 18 57 0.0 0.0 0.00 0.00 0.00 70 1012.9
20260905055230 18 44 0.0 0.0 0.00 0.00 0.00 70 1012.8
20260905055224 18 50 0.0 0.0 0.00 0.00 0.00 70 1013.8
20260905055219 18 57 0.0 0.0 0.00 0.00 0.00 70 1012.9
20260905055149 18 57 0.0 0.0 0.00 0.00 0.00 70 1012.9
20260905055120 18 57 0.0 0.0 0.00 0.00 0.00 70 1012.9
20260905055029 18 44 0.0 0.0 0.00 0.00 0.00 70 1012.8
20260905055025 18 44 0.0 0.0 0.00 0.00 0.00 70 1012.8
20260905055010 18 44 0.0 0.0 0.00 0.00 0.00 70 1012.8
20260905054719 18 44 0.0 0.0 0.00 0.00 0.00 70 1012.8
20260905054652 18 129 0.0 0.0 0.00 0.00 0.00 69 1012.9
20260905054648 18 44 0.0 0.0 0.00 0.00 0.00 70 1012.8
20260905054617 18 44 0.0 0.0 0.00 0.00 0.00 69 1012.8
20260905054558 18 44 0.0 0.0 0.00 0.00 0.00 69 1012.8
20260905054421 18 44 0.0 0.0 0.00 0.00 0.00 70 1012.8
20260905054401 18 129 0.0 0.0 0.00 0.00 0.00 71 1012.9
20260905054337 18 44 0.0 0.0 0.00 0.00 0.00 70 1012.8
20260905054329 18 44 0.0 0.0 0.00 0.00 0.00 69 1012.8
20260905054319 18 44 0.0 0.0 0.00 0.00 0.00 70 1012.8
20260905054215 18 34 0.0 1.6 0.00 0.00 0.00 70 1013.6
20260905054148 18 44 0.0 0.0 0.00 0.00 0.00 70 1012.8
20260905054120 18 44 0.0 0.0 0.00 0.00 0.00 70 1012.8
20260905054047 18 129 0.0 0.0 0.00 0.00 0.00 70 1012.9
20260905054020 18 129 0.0 0.0 0.00 0.00 0.00 69 1012.9
20260905054006 18 129 0.0 0.0 0.00 0.00 0.00 69 1012.9
20260905053849 18 129 0.0 0.0 0.00 0.00 0.00 70 1012.9
20260905053840 18 129 0.0 0.0 0.00 0.00 0.00 70 1012.9
20260905053713 18 89 0.0 1.6 0.00 0.00 0.00 70 1013.8
20260905053619 18 129 0.0 0.0 0.00 0.00 0.00 70 1012.9
20260905053547 18 129 0.0 0.0 0.00 0.00 0.00 71 1012.9
20260905053519 18 129 0.0 0.0 0.00 0.00 0.00 70 1012.9
20260905053452 18 57 0.0 0.0 0.00 0.00 0.00 71 1012.8
20260905053426 18 57 0.0 0.0 0.00 0.00 0.00 73 1012.8
20260905053419 18 129 0.0 0.0 0.00 0.00 0.00 70 1012.9
20260905053400 18 129 0.0 0.0 0.00 0.00 0.00 70 1012.9
20260905053220 18 129 0.0 0.0 0.00 0.00 0.00 70 1012.9
20260905053208 18 129 0.0 3.2 0.00 0.00 0.00 71 1013.7
20260905053151 18 57 0.0 0.0 0.00 0.00 0.00 72 1012.8
20260905053147 18 129 0.0 0.0 0.00 0.00 0.00 70 1012.9
20260905053136 18 57 0.0 0.0 0.00 0.00 0.00 72 1012.8
20260905053132 18 129 0.0 1.6 0.00 0.00 0.00 71 1012.9
20260905053118 18 57 0.0 0.0 0.00 0.00 0.00 71 1012.8
20260905053107 18 57 0.0 0.0 0.00 0.00 0.00 71 1012.8
20260905052818 18 57 0.0 0.0 0.00 0.00 0.00 71 1012.8
20260905052738 18 57 0.0 0.0 0.00 0.00 0.00 71 1012.8
20260905052725 18 57 0.0 0.0 0.00 0.00 0.00 72 1012.8
20260905052703 18 59 1.6 3.2 0.00 0.00 0.00 72 1013.7
20260905052322 18 57 0.0 0.0 0.00 0.00 0.00 73 1012.8
20260905052219 18 57 0.0 0.0 0.00 0.00 0.00 73 1012.8
20260905052201 18 57 0.0 0.0 0.00 0.00 0.00 74 1012.8
20260905052158 18 52 0.0 1.6 0.00 0.00 0.00 73 1013.5
20260905052119 18 57 0.0 1.6 0.00 0.00 0.00 73 1012.8
20260905052017 18 67 0.0 0.0 0.00 0.00 0.00 73 1012.7
20260905051949 18 67 0.0 0.0 0.00 0.00 0.00 74 1012.7
20260905051917 18 67 0.0 0.0 0.00 0.00 0.00 74 1012.7
20260905051832 18 67 0.0 0.0 0.00 0.00 0.00 74 1012.7
20260905051748 18 67 0.0 0.0 0.00 0.00 0.00 74 1012.7
20260905051721 19 67 0.0 0.0 0.00 0.00 0.00 74 1012.7
20260905051658 19 47 0.0 1.6 0.00 0.00 0.00 74 1013.6
20260905051619 19 67 0.0 0.0 0.00 0.00 0.00 74 1012.7
20260905051520 19 67 0.0 0.0 0.00 0.00 0.00 74 1012.7
20260905051419 19 67 0.0 0.0 0.00 0.00 0.00 74 1012.7
20260905051331 19 63 0.0 0.0 0.00 0.00 0.00 74 1012.6
20260905051319 19 67 0.0 0.0 0.00 0.00 0.00 74 1012.7
20260905051220 19 67 0.0 0.0 0.00 0.00 0.00 74 1012.7
20260905051155 19 52 0.0 1.6 0.00 0.00 0.00 74 1013.6
20260905051147 19 67 0.0 0.0 0.00 0.00 0.00 74 1012.7
20260905051121 19 67 0.0 0.0 0.00 0.00 0.00 74 1012.7
20260905051020 19 63 0.0 0.0 0.00 0.00 0.00 74 1012.6
20260905050958 19 63 0.0 0.0 0.00 0.00 0.00 74 1012.6
20260905050817 19 63 0.0 0.0 0.00 0.00 0.00 74 1012.6
20260905050720 19 63 0.0 0.0 0.00 0.00 0.00 74 1012.6
20260905050651 19 63 0.0 0.0 0.00 0.00 0.00 74 1012.6
20260905050617 19 63 0.0 0.0 0.00 0.00 0.00 74 1012.6
20260905050553 19 37 0.0 0.0 0.00 0.00 0.00 75 1012.6
20260905050548 19 63 0.0 0.0 0.00 0.00 0.00 74 1012.6
20260905050518 19 63 0.0 0.0 0.00 0.00 0.00 74 1012.6
20260905050422 19 63 0.0 0.0 0.00 0.00 0.00 74 1012.6
20260905050348 19 63 0.0 0.0 0.00 0.00 0.00 74 1012.6
20260905050317 19 63 0.0 0.0 0.00 0.00 0.00 74 1012.6
20260905050237 19 37 0.0 0.0 0.00 0.00 0.00 76 1012.6
20260905050231 19 63 0.0 0.0 0.00 0.00 0.00 75 1012.6
20260905050223 19 63 0.0 0.0 0.00 0.00 0.00 75 1012.6
20260905050213 19 63 0.0 1.6 0.00 0.00 0.00 75 1012.6
20260905050147 20 89 0.0 1.6 0.00 0.00 0.00 75 1013.7
20260905050026 20 37 0.0 0.0 0.00 0.00 0.00 76 1012.6
20260905050017 19 37 0.0 0.0 0.00 0.00 0.00 75 1012.6
20260905045918 19 37 0.0 0.0 0.00 0.00 0.00 75 1012.6
20260905045848 19 37 0.0 0.0 0.00 0.00 0.00 75 1012.6
20260905045837 20 37 0.0 0.0 0.00 0.00 0.00 75 1012.6
20260905045831 19 37 0.0 0.0 0.00 0.00 0.00 76 1012.6
20260905045706 20 37 0.0 0.0 0.00 0.00 0.00 75 1012.6
20260905045659 20 37 0.0 0.0 0.00 0.00 0.00 76 1012.6
20260905045646 20 80 0.0 1.6 0.00 0.00 0.00 76 1013.8
20260905045519 20 37 0.0 0.0 0.00 0.00 0.00 76 1012.6
20260905045457 20 37 0.0 0.0 0.00 0.00 0.00 75 1012.6
20260905045318 20 37 0.0 0.0 0.00 0.00 0.00 75 1012.6
20260905045259 20 37 0.0 0.0 0.00 0.00 0.00 75 1012.6
20260905045143 20 37 0.0 1.6 0.00 0.00 0.00 75 1013.5
20260905045120 20 37 0.0 0.0 0.00 0.00 0.00 75 1012.6
20260905045020 20 353 0.0 0.0 0.00 0.00 0.00 75 1012.7
20260905044919 20 353 0.0 0.0 0.00 0.00 0.00 75 1012.7
20260905044819 20 353 0.0 0.0 0.00 0.00 0.00 75 1012.7
20260905044722 20 353 0.0 0.0 0.00 0.00 0.00 75 1012.7
20260905044700 20 353 0.0 0.0 0.00 0.00 0.00 75 1012.7
20260905044653 20 353 0.0 0.0 0.00 0.00 0.00 75 1012.7
20260905044642 20 37 0.0 0.0 0.00 0.00 0.00 75 1013.7
20260905044620 20 353 0.0 0.0 0.00 0.00 0.00 75 1012.7
20260905044547 20 353 0.0 0.0 0.00 0.00 0.00 75 1012.7
20260905044517 20 353 0.0 0.0 0.00 0.00 0.00 75 1012.7
20260905044448 20 353 0.0 0.0 0.00 0.00 0.00 75 1012.7
20260905044417 20 353 0.0 0.0 0.00 0.00 0.00 75 1012.7
20260905044354 20 343 0.0 0.0 0.00 0.00 0.00 75 1012.7
20260905044346 20 353 0.0 0.0 0.00 0.00 0.00 75 1012.7
20260905044153 20 343 0.0 0.0 0.00 0.00 0.00 75 1012.7
20260905044149 20 353 0.0 0.0 0.00 0.00 0.00 75 1012.7
20260905044137 20 353 0.0 0.0 0.00 0.00 0.00 75 1013.6
20260905044119 20 353 0.0 0.0 0.00 0.00 0.00 75 1012.7
20260905044047 20 343 0.0 0.0 0.00 0.00 0.00 75 1012.7
20260905044021 20 343 0.0 0.0 0.00 0.00 0.00 75 1012.7
20260905044017 20 343 0.0 0.0 0.00 0.00 0.00 75 1012.7
20260905043954 20 343 0.0 0.0 0.00 0.00 0.00 75 1012.7
20260905043946 20 343 0.0 0.0 0.00 0.00 0.00 75 1012.7
20260905043636 20 6 0.0 1.6 0.00 0.00 0.00 75 1013.5
20260905043458 20 343 0.0 0.0 0.00 0.00 0.00 75 1012.7
20260905043319 20 343 0.0 0.0 0.00 0.00 0.00 75 1012.7
20260905043247 20 343 0.0 0.0 0.00 0.00 0.00 75 1012.7
20260905043217 20 343 0.0 0.0 0.00 0.00 0.00 75 1012.7
20260905043148 20 343 0.0 0.0 0.00 0.00 0.00 75 1012.7
20260905043131 20 37 0.0 1.6 0.00 0.00 0.00 75 1013.5
20260905043119 20 343 0.0 1.6 0.00 0.00 0.00 75 1012.7
20260905043100 20 329 0.0 0.0 0.00 0.00 0.00 74 1012.5
20260905043049 20 329 0.0 0.0 0.00 0.00 0.00 75 1012.5
20260905043020 20 329 0.0 0.0 0.00 0.00 0.00 74 1012.5
20260905042950 20 329 0.0 0.0 0.00 0.00 0.00 74 1012.5
20260905042918 20 329 0.0 0.0 0.00 0.00 0.00 74 1012.5
20260905042819 20 329 0.0 0.0 0.00 0.00 0.00 74 1012.5
20260905042759 20 329 0.0 0.0 0.00 0.00 0.00 74 1012.5
20260905042748 20 329 0.0 0.0 0.00 0.00 0.00 75 1012.5
20260905042734 20 329 0.0 0.0 0.00 0.00 0.00 74 1012.5
20260905042630 20 48 0.0 1.6 0.00 0.00 0.00 74 1013.5
20260905042550 20 329 0.0 0.0 0.00 0.00 0.00 74 1012.5
20260905042540 20 13 0.0 0.0 0.00 0.00 0.00 74 1012.4
20260905042519 20 329 0.0 0.0 0.00 0.00 0.00 75 1012.5
20260905042438 20 13 0.0 0.0 0.00 0.00 0.00 74 1012.4
20260905042433 20 329 0.0 0.0 0.00 0.00 0.00 74 1012.5
20260905042235 20 13 0.0 0.0 0.00 0.00 0.00 74 1012.4
20260905042231 20 329 0.0 0.0 0.00 0.00 0.00 74 1012.5
20260905042222 20 329 0.0 0.0 0.00 0.00 0.00 74 1012.5
20260905042212 20 329 0.0 0.0 0.00 0.00 0.00 74 1012.5
20260905042125 20 329 0.0 1.6 0.00 0.00 0.00 74 1013.5
20260905041919 20 13 0.0 0.0 0.00 0.00 0.00 74 1012.4
20260905041908 20 13 0.0 0.0 0.00 0.00 0.00 74 1012.4
20260905041819 20 13 0.0 0.0 0.00 0.00 0.00 74 1012.4
20260905041721 20 13 0.0 0.0 0.00 0.00 0.00 74 1012.4
20260905041702 20 50 0.0 0.0 0.00 0.00 0.00 74 1012.4
20260905041653 20 13 0.0 0.0 0.00 0.00 0.00 74 1012.4
20260905041621 20 51 0.0 1.6 0.00 0.00 0.00 74 1013.5
20260905041324 20 50 0.0 0.0 0.00 0.00 0.00 73 1012.4
20260905041319 20 13 0.0 0.0 0.00 0.00 0.00 74 1012.4
20260905041224 20 50 0.0 0.0 0.00 0.00 0.00 73 1012.4
20260905041219 20 13 0.0 0.0 0.00 0.00 0.00 74 1012.4
20260905041209 20 13 0.0 0.0 0.00 0.00 0.00 74 1012.4
20260905041159 20 13 0.0 0.0 0.00 0.00 0.00 74 1012.4
20260905041116 20 50 0.0 1.6 0.00 0.00 0.00 74 1013.3
20260905041018 20 50 0.0 0.0 0.00 0.00 0.00 73 1012.4
20260905041005 20 50 0.0 0.0 0.00 0.00 0.00 73 1012.4
20260905040958 20 50 0.0 0.0 0.00 0.00 0.00 73 1012.4
20260905040818 20 50 0.0 0.0 0.00 0.00 0.00 73 1012.4
20260905040725 20 50 0.0 0.0 0.00 0.00 0.00 73 1012.4
20260905040711 20 50 0.0 0.0 0.00 0.00 0.00 73 1012.4
20260905040616 20 10 0.0 3.2 0.00 0.00 0.00 73 1013.3
20260905040419 20 50 0.0 0.0 0.00 0.00 0.00 73 1012.4
20260905040319 20 50 0.0 0.0 0.00 0.00 0.00 73 1012.4
20260905040217 20 50 0.0 0.0 0.00 0.00 0.00 73 1012.4
20260905040147 20 50 0.0 0.0 0.00 0.00 0.00 73 1012.4
20260905040119 20 50 0.0 0.0 0.00 0.00 0.00 73 1012.4
20260905040115 20 50 0.0 0.0 0.00 0.00 0.00 73 1013.3
20260905040103 20 37 0.0 0.0 0.00 0.00 0.00 73 1012.3
20260905040019 20 37 0.0 0.0 0.00 0.00 0.00 73 1012.3
20260905035948 20 37 0.0 0.0 0.00 0.00 0.00 73 1012.3
20260905035917 20 37 0.0 0.0 0.00 0.00 0.00 73 1012.3
20260905035819 20 37 0.0 0.0 0.00 0.00 0.00 72 1012.3
20260905035722 20 37 0.0 0.0 0.00 0.00 0.00 72 1012.3
20260905035711 20 37 0.0 0.0 0.00 0.00 0.00 72 1012.3
20260905035618 20 37 0.0 0.0 0.00 0.00 0.00 72 1012.3
20260905035610 20 48 1.6 3.2 0.00 0.00 0.00 73 1013.3
20260905035602 20 37 0.0 0.0 0.00 0.00 0.00 72 1012.3
20260905035548 20 37 0.0 0.0 0.00 0.00 0.00 73 1012.3
20260905035517 20 37 0.0 0.0 0.00 0.00 0.00 72 1012.3
20260905035450 20 37 0.0 0.0 0.00 0.00 0.00 72 1012.3
20260905035418 20 37 0.0 0.0 0.00 0.00 0.00 72 1012.3
20260905035353 20 37 0.0 0.0 0.00 0.00 0.00 72 1012.3
20260905035339 20 37 0.0 0.0 0.00 0.00 0.00 72 1012.3
20260905035107 20 224 0.0 3.2 0.00 0.00 0.00 72 1013.2
20260905035052 20 89 0.0 0.0 0.00 0.00 0.00 72 1012.2
20260905035019 20 89 0.0 0.0 0.00 0.00 0.00 72 1012.2
20260905034952 20 89 0.0 0.0 0.00 0.00 0.00 72 1012.2
20260905034922 20 89 0.0 0.0 0.00 0.00 0.00 72 1012.2
20260905034819 20 89 0.0 0.0 0.00 0.00 0.00 72 1012.2
20260905034717 20 89 0.0 0.0 0.00 0.00 0.00 72 1012.2
20260905034633 20 89 0.0 0.0 0.00 0.00 0.00 72 1012.2
20260905034603 20 37 0.0 0.0 0.00 0.00 0.00 72 1013.1
20260905034419 20 89 0.0 0.0 0.00 0.00 0.00 72 1012.2
20260905034318 20 89 0.0 0.0 0.00 0.00 0.00 72 1012.2
20260905034247 20 89 0.0 0.0 0.00 0.00 0.00 72 1012.2
20260905034220 21 89 0.0 0.0 0.00 0.00 0.00 72 1012.2
20260905034147 21 89 0.0 0.0 0.00 0.00 0.00 72 1012.2
20260905034123 21 89 0.0 0.0 0.00 0.00 0.00 72 1012.2
20260905034111 21 37 0.0 0.0 0.00 0.00 0.00 72 1012.2
20260905034102 21 89 0.0 0.0 0.00 0.00 0.00 72 1013.0
20260905034049 21 37 0.0 0.0 0.00 0.00 0.00 72 1012.2
20260905034017 21 37 0.0 0.0 0.00 0.00 0.00 72 1012.2
20260905033919 21 37 0.0 0.0 0.00 0.00 0.00 72 1012.2
20260905033847 21 37 0.0 0.0 0.00 0.00 0.00 72 1012.2
20260905033817 21 37 0.0 0.0 0.00 0.00 0.00 71 1012.2
20260905033755 21 37 0.0 0.0 0.00 0.00 0.00 71 1012.2
20260905033747 21 37 0.0 0.0 0.00 0.00 0.00 71 1012.2
20260905033733 21 37 0.0 0.0 0.00 0.00 0.00 72 1012.2
20260905033556 21 53 0.0 1.6 0.00 0.00 0.00 72 1013.1
20260905033527 21 299 0.0 0.0 0.00 0.00 0.00 71 1011.9
20260905033520 21 37 0.0 0.0 0.00 0.00 0.00 72 1012.2
20260905033433 21 37 0.0 0.0 0.00 0.00 0.00 72 1012.2
20260905033220 21 37 0.0 0.0 0.00 0.00 0.00 71 1012.2
20260905033205 21 299 0.0 0.0 0.00 0.00 0.00 71 1011.9
20260905033201 21 37 0.0 0.0 0.00 0.00 0.00 71 1012.2
20260905033151 21 37 0.0 0.0 0.00 0.00 0.00 71 1012.2
20260905033052 21 89 0.0 0.0 0.00 0.00 0.00 71 1013.0
20260905032918 21 299 0.0 0.0 0.00 0.00 0.00 71 1011.9
20260905032858 21 299 0.0 0.0 0.00 0.00 0.00 70 1011.9
20260905032832 21 299 0.0 0.0 0.00 0.00 0.00 71 1011.9
20260905032701 21 299 0.0 0.0 0.00 0.00 0.00 70 1011.9
20260905032620 21 299 0.0 0.0 0.00 0.00 0.00 71 1011.9
20260905032552 21 299 0.0 0.0 0.00 0.00 0.00 70 1013.0
20260905032548 21 299 0.0 0.0 0.00 0.00 0.00 71 1011.9
20260905032535 21 299 0.0 0.0 0.00 0.00 0.00 70 1011.9
20260905032337 21 37 0.0 0.0 0.00 0.00 0.00 70 1011.9
20260905032333 21 299 0.0 0.0 0.00 0.00 0.00 70 1011.9
20260905032148 21 299 0.0 0.0 0.00 0.00 0.00 70 1011.9
20260905032122 21 299 0.0 0.0 0.00 0.00 0.00 70 1011.9
20260905032047 21 37 0.0 0.0 0.00 0.00 0.00 70 1011.9
20260905032017 21 37 0.0 0.0 0.00 0.00 0.00 70 1011.9
20260905031951 21 37 0.0 0.0 0.00 0.00 0.00 71 1011.9
20260905031917 21 37 0.0 0.0 0.00 0.00 0.00 71 1011.9
20260905031859 21 37 0.0 0.0 0.00 0.00 0.00 71 1011.9
20260905031717 21 37 0.0 0.0 0.00 0.00 0.00 70 1011.9
20260905031657 21 37 0.0 0.0 0.00 0.00 0.00 71 1011.9
20260905031619 21 37 0.0 0.0 0.00 0.00 0.00 70 1011.9
20260905031543 21 344 0.0 1.6 0.00 0.00 0.00 71 1013.0
20260905031533 21 89 0.0 0.0 0.00 0.00 0.00 71 1011.9
20260905031519 21 37 0.0 0.0 0.00 0.00 0.00 70 1011.9
20260905031500 21 37 0.0 0.0 0.00 0.00 0.00 71 1011.9
20260905031419 21 37 0.0 0.0 0.00 0.00 0.00 71 1011.9
20260905031336 21 37 0.0 0.0 0.00 0.00 0.00 71 1011.9
20260905031323 21 37 0.0 0.0 0.00 0.00 0.00 71 1011.9
20260905031313 21 37 0.0 0.0 0.00 0.00 0.00 71 1011.9
20260905031042 21 34 0.0 1.6 0.00 0.00 0.00 71 1012.9
20260905031019 21 89 0.0 0.0 0.00 0.00 0.00 71 1011.9
20260905030921 21 89 0.0 0.0 0.00 0.00 0.00 71 1011.9
20260905030849 21 89 0.0 0.0 0.00 0.00 0.00 71 1011.9
20260905030819 21 89 0.0 0.0 0.00 0.00 0.00 71 1011.9
20260905030802 21 89 0.0 0.0 0.00 0.00 0.00 71 1011.9
20260905030719 21 89 0.0 0.0 0.00 0.00 0.00 71 1011.9
20260905030620 21 89 0.0 0.0 0.00 0.00 0.00 71 1011.9
20260905030538 21 161 0.0 1.6 0.00 0.00 0.00 71 1012.6
20260905030524 21 89 0.0 0.0 0.00 0.00 0.00 71 1011.9
20260905030506 21 6 1.6 0.0 0.00 0.00 0.00 70 1011.7
20260905030444 21 89 0.0 0.0 0.00 0.00 0.00 71 1011.9
20260905030248 21 89 0.0 0.0 0.00 0.00 0.00 71 1011.9
20260905030222 21 6 1.6 0.0 0.00 0.00 0.00 70 1011.7
20260905030218 21 89 0.0 0.0 0.00 0.00 0.00 71 1011.9
20260905030203 21 89 0.0 0.0 0.00 0.00 0.00 71 1011.9
20260905030140 21 6 1.6 0.0 0.00 0.00 0.00 70 1011.7
20260905030136 21 89 0.0 0.0 0.00 0.00 0.00 71 1011.9
20260905030105 21 6 1.6 0.0 0.00 0.00 0.00 71 1011.7
20260905030044 21 6 1.6 0.0 0.00 0.00 0.00 71 1011.7
20260905030037 21 29 0.0 1.6 0.00 0.00 0.00 71 1012.6
20260905025831 21 6 1.6 0.0 0.00 0.00 0.00 70 1011.7
20260905025700 21 6 1.6 0.0 0.00 0.00 0.00 70 1011.7
20260905025620 21 6 1.6 0.0 0.00 0.00 0.00 70 1011.7
20260905025605 21 17 0.0 0.0 0.00 0.00 0.00 70 1011.7
20260905025558 21 6 1.6 0.0 0.00 0.00 0.00 70 1011.7
20260905025532 21 256 0.0 3.2 0.00 0.00 0.00 70 1012.6
20260905025418 21 6 1.6 0.0 0.00 0.00 0.00 70 1011.7
20260905025337 22 17 0.0 0.0 0.00 0.00 0.00 70 1011.7
20260905025332 21 6 1.6 0.0 0.00 0.00 0.00 70 1011.7
20260905025152 21 6 1.6 0.0 0.00 0.00 0.00 70 1011.7
20260905025142 21 6 1.6 1.6 0.00 0.00 0.00 70 1011.7
20260905025029 21 345 0.0 1.6 0.00 0.00 0.00 70 1012.7
20260905024959 21 17 0.0 0.0 0.00 0.00 0.00 70 1011.7
20260905024819 22 17 0.0 0.0 0.00 0.00 0.00 69 1011.7
20260905024724 22 17 0.0 0.0 0.00 0.00 0.00 69 1011.7
20260905024647 22 17 0.0 0.0 0.00 0.00 0.00 69 1011.7
20260905024617 22 17 0.0 0.0 0.00 0.00 0.00 69 1011.7
20260905024524 22 147 0.0 3.2 0.00 0.00 0.00 69 1012.5
20260905024519 22 17 0.0 0.0 0.00 0.00 0.00 69 1011.7
20260905024422 22 17 0.0 0.0 0.00 0.00 0.00 69 1011.7
20260905024319 22 17 0.0 0.0 0.00 0.00 0.00 69 1011.7
20260905024232 22 297 0.0 0.0 0.00 0.00 0.00 68 1011.7
20260905024219 22 17 0.0 0.0 0.00 0.00 0.00 69 1011.7
20260905024148 22 17 0.0 0.0 0.00 0.00 0.00 69 1011.7
20260905024121 22 17 0.0 1.6 0.00 0.00 0.00 69 1011.7
20260905024107 22 297 0.0 0.0 0.00 0.00 0.00 68 1011.7
20260905024019 22 297 0.0 0.0 0.00 0.00 0.00 69 1011.7
20260905023947 22 297 0.0 0.0 0.00 0.00 0.00 68 1011.7
20260905023919 22 297 0.0 0.0 0.00 0.00 0.00 69 1011.7
20260905023906 22 297 0.0 0.0 0.00 0.00 0.00 69 1011.7
20260905023733 22 297 0.0 0.0 0.00 0.00 0.00 68 1011.7
20260905023548 22 297 0.0 0.0 0.00 0.00 0.00 68 1011.7
20260905023517 22 297 0.0 0.0 0.00 0.00 0.00 69 1011.7
20260905023514 22 31 1.6 3.2 0.00 0.00 0.00 68 1012.5
20260905023432 22 297 0.0 0.0 0.00 0.00 0.00 68 1011.7
20260905023219 22 297 0.0 0.0 0.00 0.00 0.00 68 1011.7
20260905023148 22 297 0.0 0.0 0.00 0.00 0.00 68 1011.7
20260905023121 22 297 0.0 0.0 0.00 0.00 0.00 68 1011.7
20260905023020 22 15 0.0 0.0 0.00 0.00 0.00 68 1011.8
20260905023009 22 271 0.0 3.2 0.00 0.00 0.00 67 1012.7
20260905022948 22 15 0.0 0.0 0.00 0.00 0.00 68 1011.8
20260905022929 22 15 0.0 0.0 0.00 0.00 0.00 67 1011.8
20260905022925 22 15 0.0 0.0 0.00 0.00 0.00 67 1011.8
20260905022900 22 15 0.0 0.0 0.00 0.00 0.00 67 1011.8
20260905022819 22 15 0.0 0.0 0.00 0.00 0.00 67 1011.8
20260905022731 22 15 0.0 0.0 0.00 0.00 0.00 67 1011.8
20260905022719 22 15 0.0 0.0 0.00 0.00 0.00 67 1011.8
20260905022648 22 15 0.0 0.0 0.00 0.00 0.00 68 1011.8
20260905022620 22 15 0.0 0.0 0.00 0.00 0.00 67 1011.8
20260905022549 22 15 0.0 0.0 0.00 0.00 0.00 67 1011.8
20260905022503 22 51 0.0 3.2 0.00 0.00 0.00 67 1012.5
20260905022406 22 2 1.6 0.0 0.00 0.00 0.00 66 1011.7
20260905022359 22 15 0.0 0.0 0.00 0.00 0.00 67 1011.8
20260905022219 22 15 0.0 0.0 0.00 0.00 0.00 67 1011.8
20260905022147 22 15 0.0 0.0 0.00 0.00 0.00 66 1011.8
20260905022120 22 15 0.0 0.0 0.00 0.00 0.00 66 1011.8
20260905022048 22 2 1.6 0.0 0.00 0.00 0.00 67 1011.7
20260905022020 22 2 1.6 0.0 0.00 0.00 0.00 66 1011.7
20260905022006 22 2 1.6 0.0 0.00 0.00 0.00 65 1011.7
20260905021959 22 2 1.6 0.0 0.00 0.00 0.00 66 1011.7
20260905021817 22 2 1.6 0.0 0.00 0.00 0.00 66 1011.7
20260905021735 22 2 1.6 0.0 0.00 0.00 0.00 65 1011.7
20260905021731 22 2 1.6 0.0 0.00 0.00 0.00 66 1011.7
20260905021619 22 2 1.6 0.0 0.00 0.00 0.00 66 1011.7
20260905021535 22 2 1.6 0.0 0.00 0.00 0.00 66 1011.7
20260905021458 22 337 0.0 3.2 0.00 0.00 0.00 65 1012.6
20260905021400 22 2 1.6 0.0 0.00 0.00 0.00 65 1011.7
20260905021223 22 2 1.6 0.0 0.00 0.00 0.00 65 1011.7
20260905021148 22 2 1.6 0.0 0.00 0.00 0.00 65 1011.7
20260905021120 22 2 1.6 1.6 0.00 0.00 0.00 65 1011.7
20260905021038 22 320 0.0 0.0 0.00 0.00 0.00 65 1011.7
20260905020953 22 72 0.0 3.2 0.00 0.00 0.00 65 1012.6
20260905020920 22 320 0.0 0.0 0.00 0.00 0.00 65 1011.7
20260905020910 22 320 0.0 0.0 0.00 0.00 0.00 64 1011.7
20260905020820 22 320 0.0 0.0 0.00 0.00 0.00 65 1011.7
20260905020747 22 320 0.0 0.0 0.00 0.00 0.00 65 1011.7
20260905020735 23 320 0.0 0.0 0.00 0.00 0.00 64 1011.7
20260905020717 22 320 0.0 0.0 0.00 0.00 0.00 65 1011.7
20260905020632 23 320 0.0 0.0 0.00 0.00 0.00 64 1011.7
20260905020619 22 320 0.0 0.0 0.00 0.00 0.00 65 1011.7
20260905020604 23 4 1.6 0.0 0.00 0.00 0.00 63 1011.7
20260905020554 22 320 0.0 0.0 0.00 0.00 0.00 64 1011.7
20260905020542 22 320 0.0 0.0 0.00 0.00 0.00 64 1011.7
20260905020447 22 51 0.0 3.2 0.00 0.00 0.00 64 1012.5
20260905020423 23 320 0.0 0.0 0.00 0.00 0.00 64 1011.7
20260905020412 23 320 0.0 0.0 0.00 0.00 0.00 65 1011.7
20260905020128 23 320 0.0 1.6 0.00 0.00 0.00 64 1011.7
20260905020114 23 4 1.6 0.0 0.00 0.00 0.00 64 1011.7
20260905015948 23 148 0.0 4.8 0.00 0.00 0.00 63 1012.5
20260905015921 23 4 1.6 0.0 0.00 0.00 0.00 63 1011.7
20260905015821 23 4 1.6 0.0 0.00 0.00 0.00 63 1011.7
20260905015800 23 4 1.6 0.0 0.00 0.00 0.00 62 1011.7
20260905015747 23 4 1.6 0.0 0.00 0.00 0.00 63 1011.7
20260905015717 23 4 1.6 0.0 0.00 0.00 0.00 63 1011.7
20260905015619 23 4 1.6 0.0 0.00 0.00 0.00 63 1011.7
20260905015519 23 4 1.6 0.0 0.00 0.00 0.00 63 1011.7
20260905015501 23 336 1.6 0.0 0.00 0.00 0.00 62 1011.7
20260905015448 23 4 1.6 0.0 0.00 0.00 0.00 63 1011.7
20260905015446 23 344 0.0 1.6 0.00 0.00 0.00 63 1012.5
20260905015436 23 4 1.6 0.0 0.00 0.00 0.00 62 1011.7
20260905015250 23 4 1.6 0.0 0.00 0.00 0.00 62 1011.7
20260905015219 23 4 1.6 0.0 0.00 0.00 0.00 62 1011.7
20260905015149 23 4 1.6 0.0 0.00 0.00 0.00 62 1011.7
20260905015139 23 4 1.6 3.2 0.00 0.00 0.00 62 1011.7
20260905015128 23 336 1.6 0.0 0.00 0.00 0.00 62 1011.7
20260905014958 23 336 1.6 0.0 0.00 0.00 0.00 61 1011.7
20260905014945 23 7 1.6 3.2 0.00 0.00 0.00 62 1012.6
20260905014925 23 336 1.6 0.0 0.00 0.00 0.00 62 1011.7
20260905014819 23 336 1.6 0.0 0.00 0.00 0.00 62 1011.7
20260905014719 23 336 1.6 0.0 0.00 0.00 0.00 62 1011.7
20260905014647 23 336 1.6 0.0 0.00 0.00 0.00 62 1011.7
20260905014634 23 336 1.6 0.0 0.00 0.00 0.00 61 1011.7
20260905014441 23 332 0.0 1.6 0.00 0.00 0.00 61 1012.5
20260905014419 23 336 1.6 0.0 0.00 0.00 0.00 61 1011.7
20260905014349 23 336 1.6 0.0 0.00 0.00 0.00 61 1011.7
20260905014318 23 336 1.6 0.0 0.00 0.00 0.00 61 1011.7
20260905014226 24 286 0.0 0.0 0.00 0.00 0.00 60 1011.7
20260905014222 23 336 1.6 0.0 0.00 0.00 0.00 61 1011.7
20260905014150 23 336 1.6 0.0 0.00 0.00 0.00 61 1011.7
20260905014122 23 336 1.6 1.6 0.00 0.00 0.00 61 1011.7
20260905014049 23 286 0.0 0.0 0.00 0.00 0.00 61 1011.7
20260905014032 24 286 0.0 0.0 0.00 0.00 0.00 60 1011.7
20260905014017 24 286 0.0 0.0 0.00 0.00 0.00 61 1011.7
20260905013936 24 0 0.0 3.2 0.00 0.00 0.00 61 1012.6
20260905013919 24 286 0.0 0.0 0.00 0.00 0.00 61 1011.7
20260905013858 24 286 0.0 0.0 0.00 0.00 0.00 61 1011.7
20260905013722 24 286 0.0 0.0 0.00 0.00 0.00 60 1011.7
20260905013708 24 286 0.0 3.2 0.00 0.00 0.00 59 1011.7
20260905013658 24 286 0.0 0.0 0.00 0.00 0.00 60 1011.7
20260905013526 24 0 0.0 0.0 0.00 0.00 0.00 59 1011.6
20260905013521 24 286 0.0 0.0 0.00 0.00 0.00 60 1011.7
20260905013433 24 334 0.0 3.2 0.00 0.00 0.00 60 1012.5
20260905013420 24 286 0.0 0.0 0.00 0.00 0.00 60 1011.7
20260905013336 25 0 0.0 0.0 0.00 0.00 0.00 59 1011.6
20260905013331 24 286 0.0 0.0 0.00 0.00 0.00 60 1011.7
20260905013317 24 286 0.0 0.0 0.00 0.00 0.00 60 1011.7
20260905013309 24 286 0.0 0.0 0.00 0.00 0.00 60 1011.7
20260905013019 24 0 0.0 0.0 0.00 0.00 0.00 59 1011.6
20260905012932 25 339 3.2 3.2 0.00 0.00 0.00 59 1012.4
20260905012919 24 0 0.0 0.0 0.00 0.00 0.00 59 1011.6
20260905012848 24 0 0.0 0.0 0.00 0.00 0.00 60 1011.6
20260905012825 25 0 0.0 0.0 0.00 0.00 0.00 59 1011.6
20260905012819 25 0 0.0 0.0 0.00 0.00 0.00 59 1011.6
20260905012758 25 0 0.0 0.0 0.00 0.00 0.00 59 1011.6
20260905012617 25 0 0.0 0.0 0.00 0.00 0.00 59 1011.6
20260905012553 25 0 0.0 0.0 0.00 0.00 0.00 59 1011.6
20260905012520 25 0 0.0 0.0 0.00 0.00 0.00 59 1011.6
20260905012458 25 0 0.0 0.0 0.00 0.00 0.00 59 1011.6
20260905012428 25 257 1.6 4.8 0.00 0.00 0.00 59 1012.4
20260905012331 25 0 0.0 0.0 0.00 0.00 0.00 59 1011.6
20260905012239 25 323 3.2 0.0 0.00 0.00 0.00 59 1011.6
20260905012229 25 0 0.0 0.0 0.00 0.00 0.00 59 1011.6
20260905012219 25 0 0.0 0.0 0.00 0.00 0.00 59 1011.6
20260905012009 25 323 3.2 0.0 0.00 0.00 0.00 59 1011.6
20260905011939 25 323 3.2 0.0 0.00 0.00 0.00 58 1011.6
20260905011925 25 293 0.0 1.6 0.00 0.00 0.00 59 1012.5
20260905011907 25 323 3.2 0.0 0.00 0.00 0.00 59 1011.6
20260905011837 25 323 3.2 0.0 0.00 0.00 0.00 59 1011.6
20260905011807 25 323 3.2 0.0 0.00 0.00 0.00 59 1011.6
20260905011758 25 323 3.2 0.0 0.00 0.00 0.00 58 1011.6
20260905011747 25 323 3.2 0.0 0.00 0.00 0.00 59 1011.6
20260905011609 25 323 3.2 0.0 0.00 0.00 0.00 59 1011.6
20260905011555 25 299 0.0 0.0 0.00 0.00 0.00 58 1011.6
20260905011548 25 323 3.2 0.0 0.00 0.00 0.00 59 1011.6
20260905011428 25 299 0.0 0.0 0.00 0.00 0.00 58 1011.6
20260905011421 25 323 3.2 0.0 0.00 0.00 0.00 58 1011.6
20260905011358 25 323 3.2 0.0 0.00 0.00 0.00 59 1011.6
20260905011347 25 323 3.2 0.0 0.00 0.00 0.00 58 1011.6
20260905011213 25 299 0.0 0.0 0.00 0.00 0.00 58 1011.6
20260905011208 25 323 3.2 0.0 0.00 0.00 0.00 59 1011.6
20260905011159 25 323 3.2 0.0 0.00 0.00 0.00 58 1011.6
20260905011149 25 323 3.2 3.2 0.00 0.00 0.00 58 1011.6
20260905011007 25 299 0.0 0.0 0.00 0.00 0.00 58 1011.6
20260905010915 25 290 0.0 3.2 0.00 0.00 0.00 58 1012.6
20260905010907 25 299 0.0 0.0 0.00 0.00 0.00 58 1011.6
20260905010853 25 299 0.0 0.0 0.00 0.00 0.00 58 1011.6
20260905010728 25 299 0.0 0.0 0.00 0.00 0.00 58 1011.6
20260905010719 25 299 0.0 0.0 0.00 0.00 0.00 59 1011.6
20260905010538 25 299 0.0 0.0 0.00 0.00 0.00 58 1011.6
20260905010507 25 299 0.0 0.0 0.00 0.00 0.00 58 1011.6
20260905010449 25 298 0.0 0.0 0.00 0.00 0.00 58 1011.6
20260905010411 25 310 0.0 3.2 0.00 0.00 0.00 58 1012.6
20260905010408 25 299 0.0 0.0 0.00 0.00 0.00 58 1011.6
20260905010348 25 299 0.0 0.0 0.00 0.00 0.00 58 1011.6
20260905010208 25 299 0.0 0.0 0.00 0.00 0.00 57 1011.6
20260905010155 25 298 0.0 0.0 0.00 0.00 0.00 57 1011.6
20260905010151 25 299 0.0 0.0 0.00 0.00 0.00 58 1011.6
20260905010141 25 299 0.0 3.2 0.00 0.00 0.00 58 1011.6
20260905005917 25 298 0.0 0.0 0.00 0.00 0.00 57 1011.6
20260905005909 25 298 0.0 0.0 0.00 0.00 0.00 58 1011.6
20260905005907 25 269 0.0 3.2 0.00 0.00 0.00 58 1012.4
20260905005808 25 298 0.0 0.0 0.00 0.00 0.00 58 1011.6
20260905005738 25 298 0.0 0.0 0.00 0.00 0.00 57 1011.6
20260905005719 25 298 0.0 0.0 0.00 0.00 0.00 58 1011.6
20260905005705 25 298 0.0 0.0 0.00 0.00 0.00 58 1011.6
20260905005407 25 298 0.0 0.0 0.00 0.00 0.00 57 1011.6
20260905005403 25 304 1.6 3.2 0.00 0.00 0.00 57 1012.4
20260905005307 25 298 0.0 0.0 0.00 0.00 0.00 57 1011.6
20260905005237 26 298 0.0 0.0 0.00 0.00 0.00 57 1011.6
20260905005207 26 298 0.0 0.0 0.00 0.00 0.00 57 1011.6
20260905005139 26 298 0.0 0.0 0.00 0.00 0.00 57 1011.6
20260905005109 26 298 0.0 1.6 0.00 0.00 0.00 57 1011.6
20260905005038 26 352 3.2 0.0 0.00 0.00 0.00 57 1011.7
20260905005007 26 352 3.2 0.0 0.00 0.00 0.00 56 1011.7
20260905004938 26 352 3.2 0.0 0.00 0.00 0.00 56 1011.7
20260905004908 26 352 3.2 0.0 0.00 0.00 0.00 56 1011.7
20260905004858 26 314 1.6 3.2 0.00 0.00 0.00 56 1012.5
20260905004841 26 352 3.2 0.0 0.00 0.00 0.00 56 1011.7
20260905004810 26 352 3.2 0.0 0.00 0.00 0.00 56 1011.7
20260905004737 26 352 3.2 0.0 0.00 0.00 0.00 56 1011.7
20260905004707 26 352 3.2 0.0 0.00 0.00 0.00 56 1011.7
20260905004637 26 352 3.2 0.0 0.00 0.00 0.00 56 1011.7
20260905004607 26 352 3.2 0.0 0.00 0.00 0.00 57 1011.7
20260905004538 26 352 3.2 0.0 0.00 0.00 0.00 56 1011.7
20260905004513 26 272 3.2 0.0 0.00 0.00 0.00 57 1011.6
20260905004507 26 352 3.2 0.0 0.00 0.00 0.00 57 1011.7
20260905004438 26 352 3.2 0.0 0.00 0.00 0.00 57 1011.7
20260905004407 26 352 3.2 0.0 0.00 0.00 0.00 57 1011.7
20260905004358 26 254 0.0 3.2 0.00 0.00 0.00 57 1012.5
20260905004346 26 272 3.2 0.0 0.00 0.00 0.00 57 1011.6
20260905004340 26 352 3.2 0.0 0.00 0.00 0.00 57 1011.7
20260905004308 26 352 3.2 0.0 0.00 0.00 0.00 57 1011.7
20260905004221 26 272 3.2 0.0 0.00 0.00 0.00 56 1011.6
20260905004212 26 272 3.2 0.0 0.00 0.00 0.00 55 1011.6
20260905004208 26 352 3.2 0.0 0.00 0.00 0.00 57 1011.7
20260905004158 26 352 3.2 0.0 0.00 0.00 0.00 57 1011.7
20260905004148 26 352 3.2 4.8 0.00 0.00 0.00 57 1011.7
20260905003853 26 323 1.6 4.8 0.00 0.00 0.00 56 1012.6
20260905003828 26 272 3.2 0.0 0.00 0.00 0.00 56 1011.6
20260905003820 26 272 3.2 0.0 0.00 0.00 0.00 56 1011.6
20260905003639 26 272 3.2 0.0 0.00 0.00 0.00 55 1011.6
20260905003629 26 272 3.2 0.0 0.00 0.00 0.00 56 1011.6
20260905003620 26 272 3.2 0.0 0.00 0.00 0.00 56 1011.6
20260905003438 26 272 3.2 0.0 0.00 0.00 0.00 56 1011.6
20260905003407 26 272 3.2 0.0 0.00 0.00 0.00 55 1011.6
20260905003349 26 297 0.0 4.8 0.00 0.00 0.00 55 1012.5
20260905003341 26 334 1.6 0.0 0.00 0.00 0.00 55 1011.6
20260905003307 26 272 3.2 0.0 0.00 0.00 0.00 55 1011.6
20260905003256 26 334 1.6 0.0 0.00 0.00 0.00 55 1011.6
20260905003247 26 272 3.2 0.0 0.00 0.00 0.00 55 1011.6
20260905003110 26 272 3.2 3.2 0.00 0.00 0.00 55 1011.6
20260905003044 27 334 1.6 0.0 0.00 0.00 0.00 54 1011.6
20260905003033 26 334 1.6 0.0 0.00 0.00 0.00 55 1011.6
20260905002856 26 334 1.6 0.0 0.00 0.00 0.00 54 1011.6
20260905002847 26 334 1.6 0.0 0.00 0.00 0.00 55 1011.6
20260905002844 26 327 0.0 3.2 0.00 0.00 0.00 55 1012.5
20260905002707 26 334 1.6 0.0 0.00 0.00 0.00 55 1011.6
20260905002639 26 334 1.6 0.0 0.00 0.00 0.00 55 1011.6
20260905002621 27 334 1.6 0.0 0.00 0.00 0.00 55 1011.6
20260905002548 27 334 1.6 0.0 0.00 0.00 0.00 54 1011.6
20260905002409 27 334 1.6 0.0 0.00 0.00 0.00 54 1011.6
20260905002359 27 318 3.2 0.0 0.00 0.00 0.00 53 1011.7
20260905002343 27 338 3.2 3.2 0.00 0.00 0.00 54 1012.5
20260905002338 27 334 1.6 0.0 0.00 0.00 0.00 54 1011.6
20260905002308 27 334 1.6 0.0 0.00 0.00 0.00 54 1011.6
20260905002214 27 318 3.2 0.0 0.00 0.00 0.00 52 1011.7
20260905002208 27 334 1.6 0.0 0.00 0.00 0.00 54 1011.6
20260905002138 27 334 1.6 0.0 0.00 0.00 0.00 54 1011.6
20260905002120 27 318 3.2 0.0 0.00 0.00 0.00 53 1011.7
20260905002112 27 334 1.6 3.2 0.00 0.00 0.00 53 1011.6
20260905002101 27 318 3.2 0.0 0.00 0.00 0.00 53 1011.7
20260905002048 27 318 3.2 4.8 0.00 0.00 0.00 52 1011.7
20260905002040 27 318 3.2 0.0 0.00 0.00 0.00 53 1011.7
20260905001903 27 318 3.2 0.0 0.00 0.00 0.00 54 1011.7
20260905001853 27 318 3.2 0.0 0.00 0.00 0.00 52 1011.7
20260905001839 27 215 3.2 4.8 0.00 0.00 0.00 53 1012.5
20260905001437 27 318 3.2 0.0 0.00 0.00 0.00 53 1011.7
20260905001407 27 318 3.2 0.0 0.00 0.00 0.00 53 1011.7
20260905001356 28 340 3.2 0.0 0.00 0.00 0.00 51 1011.5
20260905001338 27 264 0.0 6.4 0.00 0.00 0.00 53 1012.5
20260905001320 29 349 0.0 0.0 0.00 0.00 0.00 49 1011.6
20260905001308 27 318 3.2 0.0 0.00 0.00 0.00 53 1011.7
20260905001257 28 340 3.2 0.0 0.00 0.00 0.00 51 1011.5
20260905001246 28 340 3.2 0.0 0.00 0.00 0.00 50 1011.5
20260905001242 27 318 3.2 0.0 0.00 0.00 0.00 52 1011.7
20260905001232 27 318 3.2 0.0 0.00 0.00 0.00 53 1011.7
20260905001224 27 318 3.2 0.0 0.00 0.00 0.00 53 1011.7
20260905001101 27 340 3.2 0.0 0.00 0.00 0.00 52 1011.5
20260905001050 28 340 3.2 0.0 0.00 0.00 0.00 52 1011.5
20260905000910 28 340 3.2 0.0 0.00 0.00 0.00 51 1011.5
20260905000900 28 340 3.2 0.0 0.00 0.00 0.00 51 1011.5
20260905000833 28 307 4.8 6.4 0.00 0.00 0.00 50 1012.6
20260905000720 28 340 3.2 0.0 0.00 0.00 0.00 50 1011.5
20260905000638 28 340 3.2 0.0 0.00 0.00 0.00 50 1011.5
20260905000446 28 340 3.2 0.0 0.00 0.00 0.00 50 1011.5
20260905000435 28 340 3.2 0.0 0.00 0.00 0.00 50 1011.5
20260905000329 29 248 3.2 4.8 0.00 0.00 0.00 49 1012.5
20260905000307 28 340 3.2 0.0 0.00 0.00 0.00 49 1011.5
20260905000221 29 349 0.0 0.0 0.00 0.00 0.00 49 1011.6
20260905000207 29 340 3.2 0.0 0.00 0.00 0.00 49 1011.5
20260905000139 29 340 3.2 0.0 0.00 0.00 0.00 49 1011.5
20260905000109 29 340 3.2 3.2 0.00 0.00 0.00 49 1011.5
20260905000048 28 349 0.0 0.0 0.00 0.00 0.00 49 1011.6
20260905000025 29 349 0.0 0.0 0.00 0.00 0.00 49 1011.6
20260905000008 29 349 0.0 0.0 0.00 0.00 0.00 48 1011.6
20260904235958 29 349 0.0 0.0 0.00 0.00 0.00 48 1011.6
20260904235824 29 277 1.6 3.2 0.00 0.00 0.00 49 1012.3
20260904235709 29 349 0.0 0.0 0.00 0.00 0.00 49 1011.6
20260904235638 29 349 0.0 0.0 0.00 0.00 0.00 49 1011.6
20260904235622 30 349 0.0 0.0 0.00 0.00 0.00 48 1011.6
20260904235607 29 349 0.0 0.0 0.00 0.00 0.00 49 1011.6
20260904235508 29 349 0.0 0.0 0.00 0.00 0.00 49 1011.6
20260904235437 29 349 0.0 0.0 0.00 0.00 0.00 49 1011.6
20260904235408 29 349 0.0 0.0 0.00 0.00 0.00 48 1011.6
20260904235338 30 349 0.0 0.0 0.00 0.00 0.00 48 1011.6
20260904235319 30 284 6.4 6.4 0.00 0.00 0.00 48 1012.4
20260904235308 30 349 0.0 0.0 0.00 0.00 0.00 48 1011.6
20260904235248 30 349 0.0 0.0 0.00 0.00 0.00 48 1011.6
20260904235109 30 349 0.0 3.2 0.00 0.00 0.00 47 1011.6
20260904235045 30 309 1.6 0.0 0.00 0.00 0.00 48 1011.7
20260904235039 30 309 1.6 0.0 0.00 0.00 0.00 47 1011.7
20260904235008 30 309 1.6 0.0 0.00 0.00 0.00 46 1011.7
20260904234938 30 309 1.6 0.0 0.00 0.00 0.00 46 1011.7
20260904234907 30 309 1.6 0.0 0.00 0.00 0.00 46 1011.7
20260904234848 30 309 1.6 0.0 0.00 0.00 0.00 48 1011.7
20260904234838 30 309 1.6 0.0 0.00 0.00 0.00 46 1011.7
20260904234814 30 242 0.0 3.2 0.00 0.00 0.00 47 1012.4
20260904234808 30 309 1.6 0.0 0.00 0.00 0.00 47 1011.7
20260904234739 30 309 1.6 0.0 0.00 0.00 0.00 47 1011.7
20260904234725 30 309 1.6 3.2 0.00 0.00 0.00 48 1011.7
20260904234721 30 309 1.6 0.0 0.00 0.00 0.00 48 1011.7
20260904234539 30 327 0.0 0.0 0.00 0.00 0.00 48 1011.6
20260904234529 30 309 1.6 0.0 0.00 0.00 0.00 47 1011.7
20260904234519 30 309 1.6 0.0 0.00 0.00 0.00 48 1011.7
20260904234351 30 309 1.6 0.0 0.00 0.00 0.00 48 1011.7
20260904234317 30 327 0.0 0.0 0.00 0.00 0.00 48 1011.6
20260904234312 30 309 1.6 0.0 0.00 0.00 0.00 48 1011.7
20260904234309 30 359 1.6 3.2 0.00 0.00 0.00 48 1012.4
20260904234257 30 309 1.6 0.0 0.00 0.00 0.00 48 1011.7
20260904234248 30 309 1.6 0.0 0.00 0.00 0.00 48 1011.7
20260904233938 30 327 0.0 0.0 0.00 0.00 0.00 49 1011.6
20260904233920 30 327 0.0 0.0 0.00 0.00 0.00 48 1011.6
20260904233827 30 327 0.0 0.0 0.00 0.00 0.00 48 1011.6
20260904233823 30 327 0.0 0.0 0.00 0.00 0.00 48 1011.6
20260904233805 30 254 0.0 9.7 0.00 0.00 0.00 48 1012.5
20260904233637 30 327 0.0 0.0 0.00 0.00 0.00 48 1011.6
20260904233607 30 327 0.0 0.0 0.00 0.00 0.00 48 1011.6
20260904233538 30 327 0.0 0.0 0.00 0.00 0.00 48 1011.6
20260904233508 30 327 0.0 0.0 0.00 0.00 0.00 47 1011.6
20260904233444 30 327 0.0 0.0 0.00 0.00 0.00 48 1011.6
20260904233422 30 327 0.0 0.0 0.00 0.00 0.00 48 1011.6
20260904233256 30 282 1.6 3.2 0.00 0.00 0.00 49 1012.4
20260904233238 30 327 0.0 0.0 0.00 0.00 0.00 48 1011.6
20260904233207 30 327 0.0 0.0 0.00 0.00 0.00 48 1011.6
20260904233137 30 327 0.0 0.0 0.00 0.00 0.00 49 1011.6
20260904233111 30 327 0.0 1.6 0.00 0.00 0.00 49 1011.6
20260904233100 30 306 0.0 0.0 0.00 0.00 0.00 48 1011.6
20260904233038 30 306 0.0 0.0 0.00 0.00 0.00 48 1011.6
20260904233007 30 306 0.0 0.0 0.00 0.00 0.00 48 1011.6
20260904232937 30 306 0.0 0.0 0.00 0.00 0.00 49 1011.6
20260904232907 30 306 0.0 0.0 0.00 0.00 0.00 49 1011.6
20260904232825 30 306 0.0 0.0 0.00 0.00 0.00 49 1011.6
20260904232820 30 306 0.0 0.0 0.00 0.00 0.00 49 1011.6
20260904232752 30 226 1.6 6.4 0.00 0.00 0.00 49 1012.6
20260904232741 30 306 0.0 0.0 0.00 0.00 0.00 49 1011.6
20260904232731 30 306 0.0 0.0 0.00 0.00 0.00 49 1011.6
20260904232522 30 306 0.0 0.0 0.00 0.00 0.00 49 1011.6
20260904232507 30 201 0.0 0.0 0.00 0.00 0.00 48 1011.6
20260904232500 30 306 0.0 0.0 0.00 0.00 0.00 49 1011.6
20260904232323 30 306 0.0 0.0 0.00 0.00 0.00 48 1011.6
20260904232300 30 306 0.0 0.0 0.00 0.00 0.00 48 1011.6
20260904232248 30 252 1.6 4.8 0.00 0.00 0.00 48 1012.4
20260904232122 30 306 0.0 0.0 0.00 0.00 0.00 47 1011.6
20260904232103 29 201 0.0 0.0 0.00 0.00 0.00 49 1011.6
20260904232058 30 306 0.0 3.2 0.00 0.00 0.00 48 1011.6
20260904232047 30 201 0.0 0.0 0.00 0.00 0.00 48 1011.6
20260904232037 30 201 0.0 0.0 0.00 0.00 0.00 49 1011.6
20260904231850 30 201 0.0 0.0 0.00 0.00 0.00 48 1011.6
20260904231822 30 201 0.0 0.0 0.00 0.00 0.00 49 1011.6
20260904231758 30 201 0.0 0.0 0.00 0.00 0.00 47 1011.6
20260904231751 30 201 0.0 0.0 0.00 0.00 0.00 49 1011.6
20260904231743 30 276 0.0 4.8 0.00 0.00 0.00 49 1012.5
20260904231721 30 201 0.0 0.0 0.00 0.00 0.00 49 1011.6
20260904231622 30 201 0.0 0.0 0.00 0.00 0.00 49 1011.6
20260904231612 29 341 1.6 0.0 0.00 0.00 0.00 46 1011.5
20260904231608 30 201 0.0 0.0 0.00 0.00 0.00 49 1011.6
20260904231558 29 201 0.0 0.0 0.00 0.00 0.00 50 1011.6
20260904231432 30 201 0.0 0.0 0.00 0.00 0.00 49 1011.6
20260904231238 30 325 1.6 6.4 0.00 0.00 0.00 44 1012.5
20260904231224 30 201 0.0 0.0 0.00 0.00 0.00 43 1011.6
20260904231140 30 341 1.6 0.0 0.00 0.00 0.00 43 1011.5
20260904231121 30 201 0.0 0.0 0.00 0.00 0.00 42 1011.6
20260904231059 30 341 1.6 0.0 0.00 0.00 0.00 42 1011.5
20260904231055 30 201 0.0 3.2 0.00 0.00 0.00 42 1011.6
20260904231043 30 341 1.6 0.0 0.00 0.00 0.00 42 1011.5
20260904231032 30 341 1.6 0.0 0.00 0.00 0.00 47 1011.5
20260904230900 31 341 1.6 0.0 0.00 0.00 0.00 41 1011.5
20260904230856 30 341 1.6 3.2 0.00 0.00 0.00 41 1011.5
20260904230852 29 341 1.6 0.0 0.00 0.00 0.00 46 1011.5
20260904230842 29 341 1.6 0.0 0.00 0.00 0.00 47 1011.5
20260904230832 29 341 1.6 0.0 0.00 0.00 0.00 46 1011.5
20260904230822 29 341 1.6 0.0 0.00 0.00 0.00 45 1011.5
20260904230813 30 341 1.6 0.0 0.00 0.00 0.00 44 1011.5
20260904230732 29 234 0.0 8.0 0.00 0.00 0.00 44 1012.5
20260904230522 30 341 1.6 0.0 0.00 0.00 0.00 42 1011.5
20260904230427 29 255 0.0 0.0 0.00 0.00 0.00 42 1011.6
20260904230423 30 341 1.6 0.0 0.00 0.00 0.00 42 1011.5
20260904230413 30 341 1.6 0.0 0.00 0.00 0.00 42 1011.5
20260904230403 30 341 1.6 0.0 0.00 0.00 0.00 43 1011.5
20260904230353 30 341 1.6 0.0 0.00 0.00 0.00 43 1011.5
20260904230232 30 341 1.6 0.0 0.00 0.00 0.00 40 1011.5
20260904230226 31 214 0.0 4.8 0.00 0.00 0.00 41 1012.5
20260904230222 30 341 1.6 0.0 0.00 0.00 0.00 41 1011.5
20260904230040 30 255 0.0 0.0 0.00 0.00 0.00 41 1011.6
20260904230009 29 255 0.0 0.0 0.00 0.00 0.00 43 1011.6
20260904225952 30 255 0.0 0.0 0.00 0.00 0.00 41 1011.6
20260904225922 30 255 0.0 0.0 0.00 0.00 0.00 41 1011.6
20260904225901 29 255 0.0 0.0 0.00 0.00 0.00 42 1011.6
20260904225726 29 246 3.2 9.7 0.00 0.00 0.00 42 1012.4
20260904225723 29 255 0.0 0.0 0.00 0.00 0.00 42 1011.6
20260904225638 29 255 0.0 0.0 0.00 0.00 0.00 42 1011.6
20260904225422 29 255 0.0 0.0 0.00 0.00 0.00 43 1011.6
20260904225323 29 255 0.0 0.0 0.00 0.00 0.00 43 1011.6
20260904225230 28 220 6.4 0.0 0.00 0.00 0.00 42 1011.6
20260904225223 29 255 0.0 0.0 0.00 0.00 0.00 42 1011.6
20260904225220 28 219 4.8 12.9 0.00 0.00 0.00 42 1012.4
20260904225150 29 255 0.0 0.0 0.00 0.00 0.00 42 1011.6
20260904225122 28 255 0.0 0.0 0.00 0.00 0.00 43 1011.6
20260904225053 28 255 0.0 4.8 0.00 0.00 0.00 43 1011.6
20260904225026 28 220 6.4 0.0 0.00 0.00 0.00 42 1011.6
20260904224924 29 220 6.4 0.0 0.00 0.00 0.00 42 1011.6
20260904224911 29 220 6.4 0.0 0.00 0.00 0.00 42 1011.6
20260904224901 28 220 6.4 0.0 0.00 0.00 0.00 42 1011.6
20260904224721 28 220 6.4 0.0 0.00 0.00 0.00 42 1011.6
20260904224719 28 139 0.0 6.4 0.00 0.00 0.00 42 1012.5
20260904224642 28 220 6.4 0.0 0.00 0.00 0.00 41 1011.6
20260904224622 28 220 6.4 0.0 0.00 0.00 0.00 42 1011.6
20260904224521 28 220 6.4 0.0 0.00 0.00 0.00 42 1011.6
20260904224450 28 220 6.4 0.0 0.00 0.00 0.00 42 1011.6
20260904224423 28 220 6.4 0.0 0.00 0.00 0.00 41 1011.6
20260904224337 29 186 1.6 0.0 0.00 0.00 0.00 41 1011.6
20260904224333 29 220 6.4 0.0 0.00 0.00 0.00 41 1011.6
20260904224323 29 220 6.4 0.0 0.00 0.00 0.00 41 1011.6
20260904224313 28 220 6.4 0.0 0.00 0.00 0.00 41 1011.6
20260904224214 28 202 6.4 9.7 0.00 0.00 0.00 41 1012.4
20260904224122 29 220 6.4 0.0 0.00 0.00 0.00 42 1011.6
20260904224052 29 220 6.4 8.0 0.00 0.00 0.00 42 1011.6
20260904224025 29 186 1.6 0.0 0.00 0.00 0.00 42 1011.6
20260904224011 29 186 1.6 0.0 0.00 0.00 0.00 41 1011.6
20260904224000 29 186 1.6 0.0 0.00 0.00 0.00 41 1011.6
20260904223821 29 186 1.6 0.0 0.00 0.00 0.00 41 1011.6
20260904223751 29 186 1.6 0.0 0.00 0.00 0.00 42 1011.6
20260904223720 29 186 1.6 0.0 0.00 0.00 0.00 41 1011.6
20260904223713 29 230 3.2 9.7 0.00 0.00 0.00 42 1012.3
20260904223631 29 186 1.6 0.0 0.00 0.00 0.00 42 1011.6
20260904223616 29 186 1.6 0.0 0.00 0.00 0.00 41 1011.6
20260904223424 29 186 1.6 0.0 0.00 0.00 0.00 41 1011.6
20260904223321 29 186 1.6 0.0 0.00 0.00 0.00 41 1011.6
20260904223226 29 169 3.2 0.0 0.00 0.00 0.00 41 1011.7
20260904223221 29 186 1.6 0.0 0.00 0.00 0.00 41 1011.6
20260904223209 29 180 0.0 8.0 0.00 0.00 0.00 41 1012.4
20260904223122 29 186 1.6 0.0 0.00 0.00 0.00 41 1011.6
20260904223051 29 186 1.6 6.4 0.00 0.00 0.00 41 1011.6
20260904223023 29 169 3.2 0.0 0.00 0.00 0.00 41 1011.7
20260904222921 29 169 3.2 0.0 0.00 0.00 0.00 41 1011.7
20260904222900 28 169 3.2 0.0 0.00 0.00 0.00 43 1011.7
20260904222843 28 169 3.2 0.0 0.00 0.00 0.00 43 1011.7
20260904222839 29 169 3.2 0.0 0.00 0.00 0.00 41 1011.7
20260904222704 29 242 1.6 8.0 0.00 0.00 0.00 41 1012.6
20260904222624 29 169 3.2 0.0 0.00 0.00 0.00 41 1011.7
20260904222602 28 205 11.3 0.0 0.00 0.00 0.00 44 1011.6
20260904222554 28 205 11.3 0.0 0.00 0.00 0.00 44 1011.6
20260904222544 29 169 3.2 0.0 0.00 0.00 0.00 42 1011.7
20260904222534 29 169 3.2 0.0 0.00 0.00 0.00 42 1011.7
20260904222522 28 169 3.2 0.0 0.00 0.00 0.00 42 1011.7
20260904222511 28 169 3.2 0.0 0.00 0.00 0.00 42 1011.7
20260904222227 28 205 11.3 0.0 0.00 0.00 0.00 43 1011.6
20260904222222 28 169 3.2 0.0 0.00 0.00 0.00 43 1011.7
20260904222211 28 205 11.3 0.0 0.00 0.00 0.00 43 1011.6
20260904222204 28 169 3.2 0.0 0.00 0.00 0.00 44 1011.7
20260904222200 28 228 1.6 14.5 0.00 0.00 0.00 44 1012.5
20260904222153 28 169 3.2 9.7 0.00 0.00 0.00 43 1011.7
20260904221837 28 205 11.3 0.0 0.00 0.00 0.00 43 1011.6
20260904221703 28 205 11.3 0.0 0.00 0.00 0.00 43 1011.6
20260904221659 28 174 1.6 12.9 0.00 0.00 0.00 43 1012.4
20260904221637 28 205 11.3 0.0 0.00 0.00 0.00 43 1011.6
20260904221422 28 205 11.3 0.0 0.00 0.00 0.00 43 1011.6
20260904221337 28 205 11.3 0.0 0.00 0.00 0.00 43 1011.6
20260904221154 28 156 6.4 11.3 0.00 0.00 0.00 43 1012.4
20260904221150 28 205 11.3 0.0 0.00 0.00 0.00 43 1011.6
20260904221120 28 205 11.3 0.0 0.00 0.00 0.00 43 1011.6
20260904221051 28 205 11.3 11.3 0.00 0.00 0.00 43 1011.6
20260904221028 28 212 4.8 0.0 0.00 0.00 0.00 43 1011.8
20260904221000 29 212 4.8 0.0 0.00 0.00 0.00 42 1011.8
20260904220949 28 212 4.8 0.0 0.00 0.00 0.00 44 1011.8
20260904220922 28 212 4.8 0.0 0.00 0.00 0.00 43 1011.8
20260904220850 28 212 4.8 0.0 0.00 0.00 0.00 44 1011.8
20260904220820 28 212 4.8 0.0 0.00 0.00 0.00 44 1011.8
20260904220723 28 212 4.8 0.0 0.00 0.00 0.00 43 1011.8
20260904220650 29 128 11.3 11.3 0.00 0.00 0.00 42 1012.5
20260904220641 29 212 4.8 0.0 0.00 0.00 0.00 43 1011.8
20260904220451 29 212 4.8 0.0 0.00 0.00 0.00 42 1011.8
20260904220422 30 212 4.8 0.0 0.00 0.00 0.00 42 1011.8
20260904220351 30 212 4.8 0.0 0.00 0.00 0.00 41 1011.8
20260904220337 30 148 3.2 0.0 0.00 0.00 0.00 40 1011.9
20260904220321 30 212 4.8 0.0 0.00 0.00 0.00 40 1011.8
20260904220226 30 148 3.2 0.0 0.00 0.00 0.00 41 1011.9
20260904220222 30 212 4.8 0.0 0.00 0.00 0.00 40 1011.8
20260904220150 30 212 4.8 0.0 0.00 0.00 0.00 40 1011.8
20260904220145 30 218 6.4 8.0 0.00 0.00 0.00 40 1012.5
20260904220123 30 212 4.8 0.0 0.00 0.00 0.00 39 1011.8
20260904220104 30 212 4.8 0.0 0.00 0.00 0.00 39 1011.8
20260904220033 30 212 4.8 6.4 0.00 0.00 0.00 39 1011.8
20260904220008 28 148 3.2 0.0 0.00 0.00 0.00 41 1011.9
20260904215649 29 148 3.2 0.0 0.00 0.00 0.00 41 1011.9
20260904215644 29 227 4.8 16.1 0.00 0.00 0.00 41 1012.7
20260904215639 29 148 3.2 0.0 0.00 0.00 0.00 41 1011.9
20260904215629 28 148 3.2 0.0 0.00 0.00 0.00 41 1011.9
20260904215510 28 148 3.2 0.0 0.00 0.00 0.00 41 1011.9
20260904215433 28 148 3.2 0.0 0.00 0.00 0.00 41 1011.9
20260904215334 28 148 3.2 0.0 0.00 0.00 0.00 41 1011.9
20260904215235 28 148 3.2 0.0 0.00 0.00 0.00 41 1011.9
20260904215212 29 154 6.4 0.0 0.00 0.00 0.00 41 1011.9
20260904215203 28 148 3.2 0.0 0.00 0.00 0.00 42 1011.9
20260904215153 28 148 3.2 0.0 0.00 0.00 0.00 41 1011.9
20260904215143 28 148 3.2 0.0 0.00 0.00 0.00 42 1011.9
20260904215141 28 200 1.6 9.7 0.00 0.00 0.00 42 1012.9
20260904215004 28 148 3.2 0.0 0.00 0.00 0.00 41 1011.9
20260904214935 28 148 3.2 9.7 0.00 0.00 0.00 41 1011.9
20260904214912 28 192 3.2 0.0 0.00 0.00 0.00 41 1011.9
20260904214906 28 192 3.2 0.0 0.00 0.00 0.00 41 1011.9
20260904214856 29 154 6.4 0.0 0.00 0.00 0.00 40 1011.9
20260904214834 28 192 3.2 0.0 0.00 0.00 0.00 41 1011.9
20260904214818 28 192 3.2 0.0 0.00 0.00 0.00 42 1011.9
20260904214754 28 192 3.2 6.4 0.00 0.00 0.00 41 1011.9
20260904214744 28 192 3.2 0.0 0.00 0.00 0.00 42 1011.9
20260904214735 28 192 3.2 0.0 0.00 0.00 0.00 42 1011.9
20260904214725 28 192 3.2 0.0 0.00 0.00 0.00 41 1011.9
20260904214641 28 72 6.4 11.3 0.00 0.00 0.00 41 1012.4
20260904214611 28 192 3.2 0.0 0.00 0.00 0.00 41 1011.9
20260904214601 28 192 3.2 0.0 0.00 0.00 0.00 40 1011.9
20260904214548 28 192 3.2 0.0 0.00 0.00 0.00 40 1011.9
20260904214540 28 192 3.2 0.0 0.00 0.00 0.00 40 1011.9
20260904214310 28 192 3.2 0.0 0.00 0.00 0.00 41 1011.9
20260904214259 28 192 3.2 0.0 0.00 0.00 0.00 41 1011.9
20260904214140 28 154 6.4 0.0 0.00 0.00 0.00 41 1011.9
20260904214136 28 154 0.0 9.7 0.00 0.00 0.00 41 1012.9
20260904214134 28 192 3.2 0.0 0.00 0.00 0.00 41 1011.9
20260904214119 29 154 6.4 0.0 0.00 0.00 0.00 40 1011.9
20260904214107 28 192 3.2 0.0 0.00 0.00 0.00 41 1011.9
20260904214058 28 192 3.2 0.0 0.00 0.00 0.00 41 1011.9
20260904213934 28 154 6.4 0.0 0.00 0.00 0.00 41 1011.9
20260904213924 28 154 6.4 0.0 0.00 0.00 0.00 41 1011.9
20260904213634 28 161 1.6 11.3 0.00 0.00 0.00 40 1013.0
20260904213451 28 154 6.4 0.0 0.00 0.00 0.00 42 1011.9
20260904213433 29 154 6.4 0.0 0.00 0.00 0.00 40 1011.9
20260904213346 29 154 6.4 0.0 0.00 0.00 0.00 40 1011.9
20260904213312 28 128 9.7 0.0 0.00 0.00 0.00 42 1011.8
20260904213308 29 154 6.4 0.0 0.00 0.00 0.00 40 1011.9
20260904213258 29 154 6.4 0.0 0.00 0.00 0.00 41 1011.9
20260904213237 29 154 6.4 0.0 0.00 0.00 0.00 41 1011.9
20260904213226 28 154 6.4 0.0 0.00 0.00 0.00 41 1011.9
20260904213131 28 143 0.0 8.0 0.00 0.00 0.00 41 1012.6
20260904212934 28 154 6.4 8.0 0.00 0.00 0.00 42 1011.9
20260904212835 28 128 9.7 0.0 0.00 0.00 0.00 42 1011.8
20260904212806 28 128 9.7 0.0 0.00 0.00 0.00 42 1011.8
20260904212751 28 128 9.7 0.0 0.00 0.00 0.00 43 1011.8
20260904212747 28 128 9.7 0.0 0.00 0.00 0.00 42 1011.8
20260904212625 28 92 0.0 6.4 0.00 0.00 0.00 43 1012.6
20260904212603 28 128 9.7 0.0 0.00 0.00 0.00 42 1011.8
20260904212534 28 128 9.7 0.0 0.00 0.00 0.00 43 1011.8
20260904212516 27 128 9.7 0.0 0.00 0.00 0.00 43 1011.8
20260904212440 28 128 9.7 0.0 0.00 0.00 0.00 43 1011.8
20260904212406 28 128 9.7 0.0 0.00 0.00 0.00 42 1011.8
20260904212334 28 128 9.7 0.0 0.00 0.00 0.00 42 1011.8
20260904212319 27 125 12.9 0.0 0.00 0.00 0.00 44 1011.9
20260904212315 28 128 9.7 0.0 0.00 0.00 0.00 43 1011.8
20260904212306 28 128 9.7 0.0 0.00 0.00 0.00 42 1011.8
20260904212120 28 121 3.2 8.0 0.00 0.00 0.00 43 1012.7
20260904212004 27 128 9.7 0.0 0.00 0.00 0.00 43 1011.8
20260904211947 27 128 9.7 14.5 0.00 0.00 0.00 43 1011.8
20260904211904 27 125 12.9 0.0 0.00 0.00 0.00 43 1011.9
20260904211833 27 125 12.9 0.0 0.00 0.00 0.00 43 1011.9
20260904211749 27 125 12.9 0.0 0.00 0.00 0.00 43 1011.9
20260904211620 27 80 3.2 9.7 0.00 0.00 0.00 44 1012.7
20260904211547 27 125 12.9 0.0 0.00 0.00 0.00 44 1011.9
20260904211505 27 125 12.9 0.0 0.00 0.00 0.00 44 1011.9
20260904211447 28 125 12.9 0.0 0.00 0.00 0.00 43 1011.9
20260904211438 27 125 12.9 0.0 0.00 0.00 0.00 45 1011.9
20260904211407 27 125 12.9 0.0 0.00 0.00 0.00 44 1011.9
20260904211333 27 125 12.9 0.0 0.00 0.00 0.00 44 1011.9
20260904211304 27 125 12.9 0.0 0.00 0.00 0.00 43 1011.9
20260904211246 27 125 12.9 0.0 0.00 0.00 0.00 44 1011.9
20260904211135 27 125 12.9 0.0 0.00 0.00 0.00 44 1011.9
20260904211125 28 214 12.9 0.0 0.00 0.00 0.00 43 1012.0
20260904211115 27 86 4.8 12.9 0.00 0.00 0.00 44 1013.0
20260904210935 28 125 12.9 12.9 0.00 0.00 0.00 43 1011.9
20260904210904 28 214 12.9 0.0 0.00 0.00 0.00 42 1012.0
20260904210833 28 214 12.9 0.0 0.00 0.00 0.00 42 1012.0
20260904210823 28 214 12.9 0.0 0.00 0.00 0.00 43 1012.0
20260904210803 28 214 12.9 0.0 0.00 0.00 0.00 42 1012.0
20260904210735 28 214 12.9 0.0 0.00 0.00 0.00 43 1012.0
20260904210725 28 213 4.8 0.0 0.00 0.00 0.00 44 1012.1
20260904210702 28 214 12.9 0.0 0.00 0.00 0.00 43 1012.0
20260904210615 28 89 0.0 6.4 0.00 0.00 0.00 43 1013.2
20260904210511 28 214 12.9 0.0 0.00 0.00 0.00 43 1012.0
20260904210454 28 214 12.9 0.0 0.00 0.00 0.00 43 1012.0
20260904210324 28 214 12.9 0.0 0.00 0.00 0.00 43 1012.0
20260904210207 27 213 4.8 0.0 0.00 0.00 0.00 44 1012.1
20260904210153 27 214 12.9 0.0 0.00 0.00 0.00 43 1012.0
20260904210144 27 214 12.9 0.0 0.00 0.00 0.00 43 1012.0
20260904210111 27 71 0.0 14.5 0.00 0.00 0.00 43 1012.9
20260904210003 28 214 12.9 0.0 0.00 0.00 0.00 43 1012.0
20260904205933 28 214 12.9 12.9 0.00 0.00 0.00 42 1012.0
20260904205853 27 213 4.8 0.0 0.00 0.00 0.00 44 1012.1
20260904205849 28 213 4.8 0.0 0.00 0.00 0.00 43 1012.1
20260904205723 28 213 4.8 0.0 0.00 0.00 0.00 44 1012.1
20260904205712 27 213 4.8 0.0 0.00 0.00 0.00 44 1012.1
20260904205606 27 230 3.2 6.4 0.00 0.00 0.00 44 1013.0
20260904205534 27 213 4.8 0.0 0.00 0.00 0.00 44 1012.1
20260904205433 27 213 4.8 0.0 0.00 0.00 0.00 44 1012.1
20260904205414 27 213 4.8 0.0 0.00 0.00 0.00 44 1012.1
20260904205232 27 213 4.8 0.0 0.00 0.00 0.00 44 1012.1
20260904205207 27 230 0.0 0.0 0.00 0.00 0.00 45 1012.3
20260904205202 27 213 4.8 0.0 0.00 0.00 0.00 44 1012.1
20260904205132 27 213 4.8 0.0 0.00 0.00 0.00 44 1012.1
20260904205102 27 216 8.0 14.5 0.00 0.00 0.00 44 1012.9
20260904205033 27 213 4.8 0.0 0.00 0.00 0.00 44 1012.1
20260904205012 27 230 0.0 0.0 0.00 0.00 0.00 44 1012.3
20260904205002 27 213 4.8 0.0 0.00 0.00 0.00 44 1012.1
20260904204934 27 213 4.8 4.8 0.00 0.00 0.00 44 1012.1
20260904204912 27 230 0.0 0.0 0.00 0.00 0.00 44 1012.3
20260904204908 27 230 0.0 0.0 0.00 0.00 0.00 44 1012.3
20260904204856 27 230 0.0 0.0 0.00 0.00 0.00 44 1012.3
20260904204847 27 230 0.0 0.0 0.00 0.00 0.00 44 1012.3
20260904204703 27 230 0.0 0.0 0.00 0.00 0.00 45 1012.3
20260904204653 27 230 0.0 0.0 0.00 0.00 0.00 44 1012.3
20260904204649 27 230 0.0 0.0 0.00 0.00 0.00 44 1012.3
20260904204558 27 211 6.4 12.9 0.00 0.00 0.00 44 1013.1
20260904204502 28 230 0.0 0.0 0.00 0.00 0.00 44 1012.3
20260904204452 28 230 0.0 0.0 0.00 0.00 0.00 43 1012.3
20260904204234 27 230 0.0 0.0 0.00 0.00 0.00 44 1012.3
20260904204213 27 230 0.0 0.0 0.00 0.00 0.00 44 1012.3
20260904204054 27 320 1.6 6.4 0.00 0.00 0.00 44 1013.1
20260904204032 27 230 0.0 0.0 0.00 0.00 0.00 44 1012.3
20260904204003 27 230 0.0 0.0 0.00 0.00 0.00 44 1012.3
20260904203934 27 230 0.0 3.2 0.00 0.00 0.00 44 1012.3
20260904203917 27 126 4.8 0.0 0.00 0.00 0.00 44 1012.2
20260904203852 26 228 0.0 0.0 0.00 0.00 0.00 48 1012.5
20260904203844 27 126 4.8 0.0 0.00 0.00 0.00 45 1012.2
20260904203803 27 126 4.8 0.0 0.00 0.00 0.00 44 1012.2
20260904203736 27 126 4.8 0.0 0.00 0.00 0.00 44 1012.2
20260904203704 27 126 4.8 0.0 0.00 0.00 0.00 45 1012.2
20260904203633 27 126 4.8 0.0 0.00 0.00 0.00 45 1012.2
20260904203619 26 126 4.8 0.0 0.00 0.00 0.00 44 1012.2
20260904203603 27 126 4.8 0.0 0.00 0.00 0.00 45 1012.2
20260904203550 27 105 4.8 11.3 0.00 0.00 0.00 44 1012.9
20260904203539 26 126 4.8 0.0 0.00 0.00 0.00 45 1012.2
20260904203533 27 126 4.8 0.0 0.00 0.00 0.00 44 1012.2
20260904203523 27 126 4.8 0.0 0.00 0.00 0.00 44 1012.2
20260904203511 27 126 4.8 0.0 0.00 0.00 0.00 44 1012.2
20260904203501 27 126 4.8 0.0 0.00 0.00 0.00 43 1012.2
20260904203335 27 126 4.8 0.0 0.00 0.00 0.00 43 1012.2
20260904203325 26 84 1.6 0.0 0.00 0.00 0.00 46 1012.5
20260904203314 27 126 4.8 0.0 0.00 0.00 0.00 44 1012.2
20260904203304 27 126 4.8 0.0 0.00 0.00 0.00 44 1012.2
20260904203254 26 126 4.8 0.0 0.00 0.00 0.00 44 1012.2
20260904203046 26 25 0.0 6.4 0.00 0.00 0.00 45 1013.2
20260904203006 26 185 3.2 0.0 0.00 0.00 0.00 47 1012.7
20260904203002 26 126 4.8 0.0 0.00 0.00 0.00 45 1012.2
20260904202933 26 126 4.8 4.8 0.00 0.00 0.00 45 1012.2
20260904202922 26 135 0.0 0.0 0.00 0.00 0.00 48 1012.7
20260904202903 26 84 1.6 0.0 0.00 0.00 0.00 45 1012.5
20260904202854 27 84 1.6 0.0 0.00 0.00 0.00 45 1012.5
20260904202845 27 84 1.6 3.2 0.00 0.00 0.00 47 1012.5
20260904202836 27 228 0.0 0.0 0.00 0.00 0.00 47 1012.5
20260904202832 26 84 1.6 0.0 0.00 0.00 0.00 45 1012.5
20260904202817 26 84 1.6 0.0 0.00 0.00 0.00 46 1012.5
20260904202802 26 84 1.6 0.0 0.00 0.00 0.00 47 1012.5
20260904202542 27 144 8.0 14.5 0.00 0.00 0.00 45 1013.2
20260904202533 27 84 1.6 0.0 0.00 0.00 0.00 45 1012.5
20260904202522 26 228 0.0 0.0 0.00 0.00 0.00 48 1012.5
20260904202515 27 84 1.6 0.0 0.00 0.00 0.00 45 1012.5
20260904202505 27 84 1.6 0.0 0.00 0.00 0.00 44 1012.5
20260904202456 27 84 1.6 0.0 0.00 0.00 0.00 44 1012.5
20260904202434 27 84 1.6 0.0 0.00 0.00 0.00 45 1012.5
20260904202418 27 84 1.6 0.0 0.00 0.00 0.00 45 1012.5
20260904202407 27 84 1.6 0.0 0.00 0.00 0.00 45 1012.5
20260904202245 27 84 1.6 0.0 0.00 0.00 0.00 47 1012.5
20260904202236 27 84 1.6 0.0 0.00 0.00 0.00 47 1012.5
20260904202115 27 228 0.0 0.0 0.00 0.00 0.00 47 1012.5
20260904202105 27 228 0.0 0.0 0.00 0.00 0.00 47 1012.5
20260904202038 27 244 3.2 3.2 0.00 0.00 0.00 46 1013.1
20260904201646 26 228 0.0 0.0 0.00 0.00 0.00 48 1012.5
20260904201533 26 215 3.2 6.4 0.00 0.00 0.00 46 1013.5
20260904201433 26 228 0.0 0.0 0.00 0.00 0.00 48 1012.5
20260904201415 26 135 0.0 0.0 0.00 0.00 0.00 48 1012.7
20260904201406 26 228 0.0 0.0 0.00 0.00 0.00 48 1012.5
20260904201357 26 228 0.0 0.0 0.00 0.00 0.00 48 1012.5
20260904201241 26 228 0.0 0.0 0.00 0.00 0.00 48 1012.5
20260904201229 26 228 0.0 0.0 0.00 0.00 0.00 48 1012.5
20260904201115 26 135 0.0 0.0 0.00 0.00 0.00 49 1012.7
20260904201103 26 228 0.0 0.0 0.00 0.00 0.00 48 1012.5
20260904201033 26 228 0.0 0.0 0.00 0.00 0.00 48 1012.5
20260904201028 26 324 0.0 3.2 0.00 0.00 0.00 47 1013.5
20260904201016 26 135 0.0 0.0 0.00 0.00 0.00 49 1012.7
20260904201004 26 228 0.0 0.0 0.00 0.00 0.00 48 1012.5
20260904200955 26 228 0.0 4.8 0.00 0.00 0.00 48 1012.5
20260904200940 26 135 0.0 0.0 0.00 0.00 0.00 48 1012.7
20260904200926 26 135 0.0 0.0 0.00 0.00 0.00 48 1012.7
20260904200533 26 135 0.0 0.0 0.00 0.00 0.00 48 1012.7
20260904200526 26 216 0.0 16.1 0.00 0.00 0.00 48 1013.6
20260904200523 26 185 3.2 0.0 0.00 0.00 0.00 49 1012.7
20260904200519 26 135 0.0 0.0 0.00 0.00 0.00 48 1012.7
20260904200457 26 135 0.0 0.0 0.00 0.00 0.00 49 1012.7
20260904200446 26 135 0.0 0.0 0.00 0.00 0.00 49 1012.7
20260904200203 26 135 0.0 0.0 0.00 0.00 0.00 49 1012.7
20260904200137 26 135 0.0 0.0 0.00 0.00 0.00 49 1012.7
20260904200022 26 107 6.4 6.4 0.00 0.00 0.00 48 1013.7
20260904200014 26 135 0.0 3.2 0.00 0.00 0.00 49 1012.7
20260904195833 26 185 3.2 0.0 0.00 0.00 0.00 49 1012.7
20260904195822 26 185 3.2 0.0 0.00 0.00 0.00 47 1012.7
20260904195734 26 185 3.2 0.0 0.00 0.00 0.00 49 1012.7
20260904195724 26 185 3.2 0.0 0.00 0.00 0.00 47 1012.7
20260904195643 26 185 3.2 0.0 0.00 0.00 0.00 47 1012.7
20260904195630 26 185 3.2 0.0 0.00 0.00 0.00 47 1012.7
20260904195520 26 119 4.8 4.8 0.00 0.00 0.00 49 1013.6
20260904195509 26 155 3.2 0.0 0.00 0.00 0.00 46 1012.8
20260904195500 26 185 3.2 0.0 0.00 0.00 0.00 47 1012.7
20260904195155 26 155 3.2 0.0 0.00 0.00 0.00 46 1012.8
20260904195148 26 185 3.2 0.0 0.00 0.00 0.00 47 1012.7
20260904195019 26 203 9.7 9.7 0.00 0.00 0.00 47 1013.5
20260904195002 26 185 3.2 0.0 0.00 0.00 0.00 47 1012.7
20260904194942 26 185 3.2 3.2 0.00 0.00 0.00 46 1012.7
20260904194928 26 155 3.2 0.0 0.00 0.00 0.00 46 1012.8
20260904194655 25 155 3.2 0.0 0.00 0.00 0.00 47 1012.8
20260904194632 26 155 3.2 0.0 0.00 0.00 0.00 46 1012.8
20260904194534 26 155 3.2 0.0 0.00 0.00 0.00 46 1012.8
20260904194515 26 14 3.2 6.4 0.00 0.00 0.00 45 1013.6
20260904194502 26 155 3.2 0.0 0.00 0.00 0.00 45 1012.8
20260904194432 26 155 3.2 0.0 0.00 0.00 0.00 45 1012.8
20260904194335 26 155 3.2 0.0 0.00 0.00 0.00 45 1012.8
20260904194325 26 155 3.2 0.0 0.00 0.00 0.00 45 1012.8
20260904194314 26 155 3.2 0.0 0.00 0.00 0.00 46 1012.8
20260904194132 25 155 3.2 0.0 0.00 0.00 0.00 47 1012.8
20260904194048 26 212 6.4 0.0 0.00 0.00 0.00 45 1012.9
20260904194042 25 155 3.2 0.0 0.00 0.00 0.00 46 1012.8
20260904194009 25 180 3.2 9.7 0.00 0.00 0.00 46 1013.9
20260904194002 25 155 3.2 0.0 0.00 0.00 0.00 46 1012.8
20260904193934 25 155 3.2 9.7 0.00 0.00 0.00 46 1012.8
20260904193916 25 212 6.4 0.0 0.00 0.00 0.00 47 1012.9
20260904193902 25 212 6.4 0.0 0.00 0.00 0.00 46 1012.9
20260904193833 26 212 6.4 0.0 0.00 0.00 0.00 45 1012.9
20260904193808 26 212 6.4 0.0 0.00 0.00 0.00 45 1012.9
20260904193736 26 212 6.4 0.0 0.00 0.00 0.00 45 1012.9
20260904193713 26 212 6.4 0.0 0.00 0.00 0.00 45 1012.9
20260904193547 25 212 6.4 0.0 0.00 0.00 0.00 47 1012.9
20260904193504 25 206 11.3 12.9 0.00 0.00 0.00 46 1013.8
20260904193415 25 212 6.4 8.0 0.00 0.00 0.00 49 1012.9
20260904193402 25 212 6.4 0.0 0.00 0.00 0.00 48 1012.9
20260904193332 25 212 6.4 0.0 0.00 0.00 0.00 49 1012.9
20260904193234 25 212 6.4 0.0 0.00 0.00 0.00 49 1012.9
20260904193136 26 223 0.0 0.0 0.00 0.00 0.00 48 1013.0
20260904193132 25 212 6.4 0.0 0.00 0.00 0.00 49 1012.9
20260904193107 26 223 0.0 0.0 0.00 0.00 0.00 48 1013.0
20260904193052 25 212 6.4 0.0 0.00 0.00 0.00 49 1012.9
20260904193044 25 212 6.4 0.0 0.00 0.00 0.00 49 1012.9
20260904193000 25 192 9.7 12.9 0.00 0.00 0.00 49 1013.8
20260904192902 25 223 0.0 0.0 0.00 0.00 0.00 49 1013.0
20260904192841 26 223 0.0 0.0 0.00 0.00 0.00 48 1013.0
20260904192835 26 223 0.0 0.0 0.00 0.00 0.00 48 1013.0
20260904192823 26 223 0.0 0.0 0.00 0.00 0.00 48 1013.0
20260904192633 26 223 0.0 0.0 0.00 0.00 0.00 48 1013.0
20260904192614 26 223 0.0 0.0 0.00 0.00 0.00 48 1013.0
20260904192500 26 218 1.6 4.8 0.00 0.00 0.00 47 1014.0
20260904192451 25 177 1.6 0.0 0.00 0.00 0.00 50 1013.1
20260904192447 26 223 0.0 0.0 0.00 0.00 0.00 48 1013.0
20260904192245 26 223 0.0 0.0 0.00 0.00 0.00 49 1013.0
20260904192133 26 223 0.0 0.0 0.00 0.00 0.00 49 1013.0
20260904192045 25 177 1.6 0.0 0.00 0.00 0.00 52 1013.1
20260904192041 25 223 0.0 0.0 0.00 0.00 0.00 50 1013.0
20260904192031 25 223 0.0 0.0 0.00 0.00 0.00 50 1013.0
20260904192017 25 223 0.0 1.6 0.00 0.00 0.00 50 1013.0
20260904191956 26 134 6.4 6.4 0.00 0.00 0.00 49 1014.0
20260904191834 25 177 1.6 0.0 0.00 0.00 0.00 50 1013.1
20260904191807 25 177 1.6 0.0 0.00 0.00 0.00 50 1013.1
20260904191733 25 177 1.6 0.0 0.00 0.00 0.00 50 1013.1
20260904191634 25 177 1.6 0.0 0.00 0.00 0.00 50 1013.1
20260904191623 25 177 1.6 0.0 0.00 0.00 0.00 50 1013.1
20260904191613 25 177 1.6 0.0 0.00 0.00 0.00 50 1013.1
20260904191452 25 218 3.2 4.8 0.00 0.00 0.00 51 1014.0
20260904191432 25 177 1.6 0.0 0.00 0.00 0.00 52 1013.1
20260904191334 25 177 1.6 0.0 0.00 0.00 0.00 52 1013.1
20260904191253 25 177 1.6 0.0 0.00 0.00 0.00 52 1013.1
20260904191243 25 177 1.6 0.0 0.00 0.00 0.00 51 1013.1
20260904191102 25 177 1.6 0.0 0.00 0.00 0.00 50 1013.1
20260904191032 25 177 1.6 0.0 0.00 0.00 0.00 51 1013.1
20260904191002 25 177 1.6 0.0 0.00 0.00 0.00 51 1013.1
20260904190950 25 224 0.0 0.0 0.00 0.00 0.00 50 1013.4
20260904190933 25 177 1.6 6.4 0.00 0.00 0.00 51 1013.1
20260904190902 25 224 0.0 0.0 0.00 0.00 0.00 51 1013.4
20260904190832 25 224 0.0 0.0 0.00 0.00 0.00 52 1013.4
20260904190804 24 224 0.0 0.0 0.00 0.00 0.00 52 1013.4
20260904190744 25 224 0.0 0.0 0.00 0.00 0.00 50 1013.4
20260904190733 24 224 0.0 0.0 0.00 0.00 0.00 52 1013.4
20260904190703 24 224 0.0 0.0 0.00 0.00 0.00 52 1013.4
20260904190632 24 224 0.0 0.0 0.00 0.00 0.00 52 1013.4
20260904190622 24 224 0.0 0.0 0.00 0.00 0.00 52 1013.4
20260904190612 25 224 0.0 0.0 0.00 0.00 0.00 50 1013.4
20260904190444 25 205 6.4 14.5 0.00 0.00 0.00 50 1014.3
20260904190432 25 224 0.0 0.0 0.00 0.00 0.00 50 1013.4
20260904190422 25 208 1.6 0.0 0.00 0.00 0.00 53 1013.4
20260904190412 25 224 0.0 0.0 0.00 0.00 0.00 50 1013.4
20260904190232 25 224 0.0 0.0 0.00 0.00 0.00 50 1013.4
20260904190207 24 208 1.6 0.0 0.00 0.00 0.00 53 1013.4
20260904190202 26 224 0.0 0.0 0.00 0.00 0.00 49 1013.4
20260904190133 26 224 0.0 0.0 0.00 0.00 0.00 50 1013.4
20260904190109 25 224 0.0 0.0 0.00 0.00 0.00 52 1013.4
20260904190056 24 208 1.6 0.0 0.00 0.00 0.00 53 1013.4
20260904190043 25 208 1.6 0.0 0.00 0.00 0.00 52 1013.4
20260904190039 25 224 0.0 0.0 0.00 0.00 0.00 51 1013.4
20260904190027 25 224 0.0 0.0 0.00 0.00 0.00 51 1013.4
20260904190011 25 224 0.0 1.6 0.00 0.00 0.00 52 1013.4
20260904185940 25 185 3.2 6.4 0.00 0.00 0.00 52 1014.2
20260904185839 25 208 1.6 0.0 0.00 0.00 0.00 53 1013.4
20260904185825 25 208 1.6 0.0 0.00 0.00 0.00 53 1013.4
20260904185533 24 208 1.6 0.0 0.00 0.00 0.00 54 1013.4
20260904185503 24 208 1.6 0.0 0.00 0.00 0.00 53 1013.4
20260904185436 24 222 6.4 9.7 0.00 0.00 0.00 54 1014.3
20260904185432 24 208 1.6 0.0 0.00 0.00 0.00 53 1013.4
20260904185403 24 208 1.6 0.0 0.00 0.00 0.00 53 1013.4
20260904185337 25 16 3.2 0.0 0.00 0.00 0.00 53 1013.6
20260904185332 24 208 1.6 0.0 0.00 0.00 0.00 53 1013.4
20260904185306 24 208 1.6 0.0 0.00 0.00 0.00 53 1013.4
20260904185255 24 208 1.6 0.0 0.00 0.00 0.00 53 1013.4
20260904185119 25 16 3.2 0.0 0.00 0.00 0.00 53 1013.6
20260904185040 25 208 1.6 0.0 0.00 0.00 0.00 52 1013.4
20260904185030 25 208 1.6 0.0 0.00 0.00 0.00 52 1013.4
20260904185015 25 208 1.6 4.8 0.00 0.00 0.00 53 1013.4
20260904184931 25 241 3.2 6.4 0.00 0.00 0.00 51 1014.4
20260904184833 25 16 3.2 0.0 0.00 0.00 0.00 53 1013.6
20260904184800 25 16 3.2 0.0 0.00 0.00 0.00 53 1013.6
20260904184533 25 16 3.2 0.0 0.00 0.00 0.00 53 1013.6
20260904184432 25 16 3.2 0.0 0.00 0.00 0.00 53 1013.6
20260904184430 25 209 1.6 8.0 0.00 0.00 0.00 52 1014.4
20260904184402 25 16 3.2 0.0 0.00 0.00 0.00 53 1013.6
20260904184332 25 16 3.2 0.0 0.00 0.00 0.00 53 1013.6
20260904184234 25 16 3.2 0.0 0.00 0.00 0.00 53 1013.6
20260904184204 25 16 3.2 0.0 0.00 0.00 0.00 53 1013.6
20260904184132 24 16 3.2 0.0 0.00 0.00 0.00 53 1013.6
20260904184102 24 16 3.2 0.0 0.00 0.00 0.00 53 1013.6
20260904184032 24 16 3.2 0.0 0.00 0.00 0.00 53 1013.6
20260904184004 24 16 3.2 0.0 0.00 0.00 0.00 53 1013.6
20260904183934 24 16 3.2 4.8 0.00 0.00 0.00 53 1013.6
20260904183926 24 19 3.2 4.8 0.00 0.00 0.00 54 1014.4
20260904183909 25 164 1.6 0.0 0.00 0.00 0.00 53 1013.6
20260904183902 24 164 1.6 0.0 0.00 0.00 0.00 53 1013.6
20260904183833 24 164 1.6 0.0 0.00 0.00 0.00 54 1013.6
20260904183803 24 164 1.6 0.0 0.00 0.00 0.00 54 1013.6
20260904183737 25 164 1.6 0.0 0.00 0.00 0.00 53 1013.6
20260904183732 24 164 1.6 0.0 0.00 0.00 0.00 54 1013.6
20260904183703 25 164 1.6 0.0 0.00 0.00 0.00 53 1013.6
20260904183632 25 164 1.6 0.0 0.00 0.00 0.00 53 1013.6
20260904183537 25 164 1.6 0.0 0.00 0.00 0.00 53 1013.6
20260904183525 25 164 1.6 0.0 0.00 0.00 0.00 53 1013.6
20260904183421 23 120 3.2 12.9 0.00 0.00 0.00 55 1014.5
20260904183245 25 164 1.6 0.0 0.00 0.00 0.00 53 1013.6
20260904183206 25 164 1.6 0.0 0.00 0.00 0.00 53 1013.6
20260904183133 25 164 1.6 0.0 0.00 0.00 0.00 53 1013.6
20260904183035 25 164 1.6 0.0 0.00 0.00 0.00 53 1013.6
20260904183003 25 164 1.6 0.0 0.00 0.00 0.00 53 1013.6
20260904182934 25 164 1.6 4.8 0.00 0.00 0.00 53 1013.6
20260904182917 24 261 3.2 6.4 0.00 0.00 0.00 54 1014.5
20260904182849 23 297 0.0 0.0 0.00 0.00 0.00 56 1013.7
20260904182834 24 297 0.0 0.0 0.00 0.00 0.00 54 1013.7
20260904182802 24 297 0.0 0.0 0.00 0.00 0.00 55 1013.7
20260904182738 23 297 0.0 0.0 0.00 0.00 0.00 55 1013.7
20260904182733 24 297 0.0 0.0 0.00 0.00 0.00 54 1013.7
20260904182703 24 297 0.0 0.0 0.00 0.00 0.00 55 1013.7
20260904182633 24 297 0.0 0.0 0.00 0.00 0.00 54 1013.7
20260904182616 24 297 0.0 0.0 0.00 0.00 0.00 54 1013.7
20260904182545 24 297 0.0 0.0 0.00 0.00 0.00 54 1013.7
20260904182532 24 297 0.0 0.0 0.00 0.00 0.00 55 1013.7
20260904182524 24 297 0.0 0.0 0.00 0.00 0.00 55 1013.7
20260904182412 23 268 4.8 8.0 0.00 0.00 0.00 55 1014.5
20260904182401 24 297 0.0 0.0 0.00 0.00 0.00 55 1013.7
20260904182351 23 297 0.0 0.0 0.00 0.00 0.00 55 1013.7
20260904182103 24 297 0.0 0.0 0.00 0.00 0.00 54 1013.7
20260904182032 24 297 0.0 0.0 0.00 0.00 0.00 55 1013.7
20260904182003 24 297 0.0 0.0 0.00 0.00 0.00 55 1013.7
20260904181934 23 297 0.0 1.6 0.00 0.00 0.00 56 1013.7
20260904181907 23 143 3.2 8.0 0.00 0.00 0.00 55 1014.5
20260904181833 23 175 3.2 0.0 0.00 0.00 0.00 56 1013.7
20260904181746 23 175 3.2 0.0 0.00 0.00 0.00 56 1013.7
20260904181733 23 175 3.2 0.0 0.00 0.00 0.00 56 1013.7
20260904181633 23 175 3.2 0.0 0.00 0.00 0.00 56 1013.7
20260904181532 23 175 3.2 0.0 0.00 0.00 0.00 56 1013.7
20260904181502 23 175 3.2 0.0 0.00 0.00 0.00 57 1013.7
20260904181432 23 175 3.2 0.0 0.00 0.00 0.00 57 1013.7
20260904181412 23 175 3.2 0.0 0.00 0.00 0.00 57 1013.7
20260904181402 23 207 12.9 14.5 0.00 0.00 0.00 57 1014.7
20260904181234 23 175 3.2 0.0 0.00 0.00 0.00 56 1013.7
20260904181215 23 219 3.2 0.0 0.00 0.00 0.00 56 1013.7
20260904181205 23 175 3.2 0.0 0.00 0.00 0.00 56 1013.7
20260904181133 23 175 3.2 0.0 0.00 0.00 0.00 56 1013.7
20260904181033 23 175 3.2 0.0 0.00 0.00 0.00 56 1013.7
20260904181022 23 219 3.2 0.0 0.00 0.00 0.00 56 1013.7
20260904181015 23 175 3.2 0.0 0.00 0.00 0.00 57 1013.7
20260904180934 23 175 3.2 6.4 0.00 0.00 0.00 57 1013.7
20260904180907 23 219 3.2 0.0 0.00 0.00 0.00 56 1013.7
20260904180902 23 219 3.2 0.0 0.00 0.00 0.00 57 1013.7
20260904180857 23 203 4.8 11.3 0.00 0.00 0.00 56 1014.4
20260904180848 23 219 3.2 0.0 0.00 0.00 0.00 56 1013.7
20260904180658 23 219 3.2 0.0 0.00 0.00 0.00 55 1013.7
20260904180646 23 219 3.2 0.0 0.00 0.00 0.00 55 1013.7
20260904180637 23 219 3.2 0.0 0.00 0.00 0.00 55 1013.7
20260904180352 23 63 1.6 4.8 0.00 0.00 0.00 57 1014.8
20260904180333 23 219 3.2 0.0 0.00 0.00 0.00 56 1013.7
20260904180251 23 67 8.0 0.0 0.00 0.00 0.00 57 1013.7
20260904180232 23 219 3.2 0.0 0.00 0.00 0.00 58 1013.7
20260904180203 23 219 3.2 0.0 0.00 0.00 0.00 58 1013.7
20260904180132 23 219 3.2 0.0 0.00 0.00 0.00 58 1013.7
20260904180116 23 219 3.2 0.0 0.00 0.00 0.00 58 1013.7
20260904180045 23 67 8.0 0.0 0.00 0.00 0.00 57 1013.7
20260904180034 23 219 3.2 0.0 0.00 0.00 0.00 58 1013.7
20260904180003 23 219 3.2 0.0 0.00 0.00 0.00 58 1013.7
20260904175934 23 219 3.2 6.4 0.00 0.00 0.00 58 1013.7
20260904175912 23 67 8.0 0.0 0.00 0.00 0.00 58 1013.7
20260904175851 23 205 6.4 8.0 0.00 0.00 0.00 57 1014.8
20260904175737 23 67 8.0 0.0 0.00 0.00 0.00 57 1013.7
20260904175733 23 67 8.0 0.0 0.00 0.00 0.00 57 1013.7
20260904175713 23 67 8.0 0.0 0.00 0.00 0.00 57 1013.7
20260904175533 23 67 8.0 0.0 0.00 0.00 0.00 57 1013.7
20260904175445 23 67 8.0 0.0 0.00 0.00 0.00 57 1013.7
20260904175350 23 111 4.8 8.0 0.00 0.00 0.00 57 1014.7
20260904175346 23 67 8.0 0.0 0.00 0.00 0.00 57 1013.7
20260904175133 23 67 8.0 0.0 0.00 0.00 0.00 57 1013.7
20260904175032 23 67 8.0 0.0 0.00 0.00 0.00 57 1013.7
20260904175009 22 28 3.2 0.0 0.00 0.00 0.00 62 1013.6
20260904175003 23 67 8.0 0.0 0.00 0.00 0.00 57 1013.7
20260904174934 23 67 8.0 9.7 0.00 0.00 0.00 57 1013.7
20260904174845 23 28 3.2 0.0 0.00 0.00 0.00 57 1013.6
20260904174802 23 28 3.2 0.0 0.00 0.00 0.00 57 1013.6
20260904174733 23 28 3.2 0.0 0.00 0.00 0.00 58 1013.6
20260904174710 23 28 3.2 0.0 0.00 0.00 0.00 58 1013.6
20260904174653 22 28 3.2 0.0 0.00 0.00 0.00 62 1013.6
20260904174502 22 28 3.2 0.0 0.00 0.00 0.00 62 1013.6
20260904174432 22 28 3.2 0.0 0.00 0.00 0.00 62 1013.6
20260904174340 23 62 4.8 6.4 0.00 0.00 0.00 58 1014.7
20260904174333 22 28 3.2 0.0 0.00 0.00 0.00 62 1013.6
20260904174304 22 28 3.2 0.0 0.00 0.00 0.00 62 1013.6
20260904174232 22 28 3.2 0.0 0.00 0.00 0.00 62 1013.6
20260904174209 22 65 0.0 0.0 0.00 0.00 0.00 62 1013.7
20260904174133 22 28 3.2 0.0 0.00 0.00 0.00 62 1013.6
20260904174032 22 28 3.2 0.0 0.00 0.00 0.00 62 1013.6
20260904174002 22 28 3.2 0.0 0.00 0.00 0.00 62 1013.6
20260904173934 22 28 3.2 3.2 0.00 0.00 0.00 62 1013.6
20260904173853 22 65 0.0 0.0 0.00 0.00 0.00 64 1013.7
20260904173849 22 65 0.0 0.0 0.00 0.00 0.00 62 1013.7
20260904173836 22 117 6.4 9.7 0.00 0.00 0.00 62 1014.5
20260904173703 22 65 0.0 0.0 0.00 0.00 0.00 62 1013.7
20260904173632 22 65 0.0 0.0 0.00 0.00 0.00 62 1013.7
20260904173604 22 65 0.0 0.0 0.00 0.00 0.00 64 1013.7
20260904173532 22 65 0.0 0.0 0.00 0.00 0.00 64 1013.7
20260904173450 22 65 0.0 0.0 0.00 0.00 0.00 63 1013.7
20260904173446 22 65 0.0 0.0 0.00 0.00 0.00 64 1013.7
20260904173331 22 121 4.8 6.4 0.00 0.00 0.00 63 1014.7
20260904173303 22 65 0.0 0.0 0.00 0.00 0.00 64 1013.7
20260904173244 21 65 0.0 0.0 0.00 0.00 0.00 63 1013.7
20260904173129 21 65 0.0 0.0 0.00 0.00 0.00 63 1013.7
20260904173116 21 69 3.2 0.0 0.00 0.00 0.00 64 1013.7
20260904173109 22 65 0.0 0.0 0.00 0.00 0.00 62 1013.7
20260904172929 22 65 0.0 3.2 0.00 0.00 0.00 63 1013.7
20260904172829 22 69 3.2 0.0 0.00 0.00 0.00 63 1013.7
20260904172827 22 32 6.4 6.4 0.00 0.00 0.00 63 1014.5
20260904172729 22 69 3.2 0.0 0.00 0.00 0.00 63 1013.7
20260904172712 22 69 3.2 0.0 0.00 0.00 0.00 64 1013.7
20260904172529 21 69 3.2 0.0 0.00 0.00 0.00 64 1013.7
20260904172459 21 69 3.2 0.0 0.00 0.00 0.00 64 1013.7
20260904172428 21 69 3.2 0.0 0.00 0.00 0.00 65 1013.7
20260904172358 21 69 3.2 0.0 0.00 0.00 0.00 65 1013.7
20260904172338 22 102 0.0 0.0 0.00 0.00 0.00 62 1013.6
20260904172328 21 69 3.2 0.0 0.00 0.00 0.00 64 1013.7
20260904172326 21 86 1.6 6.4 0.00 0.00 0.00 64 1014.6
20260904172228 21 69 3.2 0.0 0.00 0.00 0.00 64 1013.7
20260904172158 21 69 3.2 0.0 0.00 0.00 0.00 64 1013.7
20260904172128 22 69 3.2 0.0 0.00 0.00 0.00 63 1013.7
20260904172031 22 69 3.2 0.0 0.00 0.00 0.00 63 1013.7
20260904172020 22 69 3.2 0.0 0.00 0.00 0.00 62 1013.7
20260904172010 22 69 3.2 6.4 0.00 0.00 0.00 62 1013.7
20260904171829 22 102 0.0 0.0 0.00 0.00 0.00 62 1013.6
20260904171821 22 44 0.0 8.0 0.00 0.00 0.00 62 1014.5
20260904171758 22 102 0.0 0.0 0.00 0.00 0.00 62 1013.6
20260904171729 22 102 0.0 0.0 0.00 0.00 0.00 61 1013.6
20260904171659 22 102 0.0 0.0 0.00 0.00 0.00 62 1013.6
20260904171634 22 102 0.0 0.0 0.00 0.00 0.00 62 1013.6
20260904171558 22 102 0.0 0.0 0.00 0.00 0.00 62 1013.6
20260904171528 22 102 0.0 0.0 0.00 0.00 0.00 63 1013.6
20260904171500 22 102 0.0 0.0 0.00 0.00 0.00 63 1013.6
20260904171442 22 102 0.0 0.0 0.00 0.00 0.00 62 1013.6
20260904171412 22 102 0.0 0.0 0.00 0.00 0.00 63 1013.6
20260904171329 22 102 0.0 0.0 0.00 0.00 0.00 62 1013.6
20260904171317 22 200 6.4 6.4 0.00 0.00 0.00 62 1014.6
20260904171300 22 102 0.0 0.0 0.00 0.00 0.00 61 1013.6
20260904171251 22 55 3.2 0.0 0.00 0.00 0.00 61 1013.6
20260904171229 22 102 0.0 0.0 0.00 0.00 0.00 61 1013.6
20260904171158 22 102 0.0 0.0 0.00 0.00 0.00 61 1013.6
20260904171130 22 102 0.0 0.0 0.00 0.00 0.00 60 1013.6
20260904171042 22 102 0.0 0.0 0.00 0.00 0.00 60 1013.6
20260904170959 22 102 0.0 0.0 0.00 0.00 0.00 60 1013.6
20260904170938 22 102 0.0 6.4 0.00 0.00 0.00 60 1013.6
20260904170923 22 55 3.2 0.0 0.00 0.00 0.00 60 1013.6
20260904170813 22 157 3.2 9.7 0.00 0.00 0.00 60 1014.6
20260904170728 22 55 3.2 0.0 0.00 0.00 0.00 61 1013.6
20260904170659 22 55 3.2 0.0 0.00 0.00 0.00 62 1013.6
20260904170631 22 55 3.2 0.0 0.00 0.00 0.00 63 1013.6
20260904170607 22 55 3.2 0.0 0.00 0.00 0.00 63 1013.6
20260904170545 22 55 3.2 0.0 0.00 0.00 0.00 63 1013.6
20260904170528 22 55 3.2 0.0 0.00 0.00 0.00 64 1013.6
20260904170459 22 55 3.2 0.0 0.00 0.00 0.00 64 1013.6
20260904170428 22 55 3.2 0.0 0.00 0.00 0.00 64 1013.6
20260904170328 22 55 3.2 0.0 0.00 0.00 0.00 64 1013.6
20260904170308 22 104 1.6 4.8 0.00 0.00 0.00 65 1014.5
20260904170242 22 55 3.2 0.0 0.00 0.00 0.00 65 1013.6
20260904170232 22 55 3.2 0.0 0.00 0.00 0.00 65 1013.6
20260904170222 22 55 3.2 0.0 0.00 0.00 0.00 63 1013.6
20260904170030 22 55 3.2 0.0 0.00 0.00 0.00 63 1013.6
20260904165958 22 55 3.2 0.0 0.00 0.00 0.00 63 1013.6
20260904165930 22 55 3.2 3.2 0.00 0.00 0.00 64 1013.6
20260904165916 21 124 0.0 0.0 0.00 0.00 0.00 65 1013.4
20260904165859 22 124 0.0 0.0 0.00 0.00 0.00 65 1013.4
20260904165828 22 124 0.0 0.0 0.00 0.00 0.00 65 1013.4
20260904165808 21 114 0.0 4.8 0.00 0.00 0.00 65 1014.4
20260904165759 21 124 0.0 0.0 0.00 0.00 0.00 65 1013.4
20260904165728 21 124 0.0 0.0 0.00 0.00 0.00 67 1013.4
20260904165630 21 124 0.0 0.0 0.00 0.00 0.00 67 1013.4
20260904165620 21 62 0.0 0.0 0.00 0.00 0.00 67 1013.5
20260904165612 21 124 0.0 0.0 0.00 0.00 0.00 66 1013.4
20260904165601 21 124 0.0 0.0 0.00 0.00 0.00 66 1013.4
20260904165401 21 124 0.0 0.0 0.00 0.00 0.00 64 1013.4
20260904165328 21 124 0.0 0.0 0.00 0.00 0.00 64 1013.4
20260904165305 21 197 0.0 4.8 0.00 0.00 0.00 64 1014.4
20260904165258 21 124 0.0 0.0 0.00 0.00 0.00 64 1013.4
20260904165228 22 124 0.0 0.0 0.00 0.00 0.00 63 1013.4
20260904165134 21 124 0.0 0.0 0.00 0.00 0.00 64 1013.4
20260904165119 21 124 0.0 0.0 0.00 0.00 0.00 64 1013.4
20260904165058 21 124 0.0 0.0 0.00 0.00 0.00 64 1013.4
20260904164930 21 124 0.0 3.2 0.00 0.00 0.00 64 1013.4
20260904164859 21 62 0.0 0.0 0.00 0.00 0.00 65 1013.5
20260904164829 21 62 0.0 0.0 0.00 0.00 0.00 65 1013.5
20260904164802 21 108 1.6 3.2 0.00 0.00 0.00 66 1014.4
20260904164758 21 62 0.0 0.0 0.00 0.00 0.00 66 1013.5
20260904164730 21 62 0.0 0.0 0.00 0.00 0.00 66 1013.5
20260904164659 21 62 0.0 0.0 0.00 0.00 0.00 66 1013.5
20260904164637 22 62 0.0 0.0 0.00 0.00 0.00 65 1013.5
20260904164633 21 62 0.0 0.0 0.00 0.00 0.00 65 1013.5
20260904164622 21 62 0.0 0.0 0.00 0.00 0.00 66 1013.5
20260904164611 21 62 0.0 0.0 0.00 0.00 0.00 65 1013.5
20260904164429 21 62 0.0 0.0 0.00 0.00 0.00 66 1013.5
20260904164359 21 62 0.0 0.0 0.00 0.00 0.00 66 1013.5
20260904164333 21 78 1.6 0.0 0.00 0.00 0.00 68 1013.4
20260904164329 21 62 0.0 0.0 0.00 0.00 0.00 66 1013.5
20260904164311 22 62 0.0 0.0 0.00 0.00 0.00 65 1013.5
20260904164257 21 170 0.0 11.3 0.00 0.00 0.00 67 1014.3
20260904164128 21 62 0.0 0.0 0.00 0.00 0.00 67 1013.5
20260904164035 21 62 0.0 0.0 0.00 0.00 0.00 67 1013.5
20260904164024 22 62 0.0 0.0 0.00 0.00 0.00 68 1013.5
20260904164012 21 62 0.0 0.0 0.00 0.00 0.00 68 1013.5
20260904163828 21 78 1.6 0.0 0.00 0.00 0.00 68 1013.4
20260904163805 21 78 1.6 0.0 0.00 0.00 0.00 67 1013.4
20260904163759 21 78 1.6 0.0 0.00 0.00 0.00 68 1013.4
20260904163753 21 124 1.6 6.4 0.00 0.00 0.00 68 1014.3
20260904163728 21 78 1.6 0.0 0.00 0.00 0.00 68 1013.4
20260904163659 21 78 1.6 0.0 0.00 0.00 0.00 68 1013.4
20260904163629 21 78 1.6 0.0 0.00 0.00 0.00 68 1013.4
20260904163612 21 78 1.6 0.0 0.00 0.00 0.00 67 1013.4
20260904163530 21 78 1.6 0.0 0.00 0.00 0.00 68 1013.4
20260904163448 21 78 1.6 0.0 0.00 0.00 0.00 68 1013.4
20260904163439 21 78 1.6 0.0 0.00 0.00 0.00 68 1013.4
20260904163248 21 207 3.2 3.2 0.00 0.00 0.00 68 1014.2
20260904163245 21 78 1.6 0.0 0.00 0.00 0.00 67 1013.4
20260904163058 21 78 1.6 0.0 0.00 0.00 0.00 68 1013.4
20260904163031 21 78 1.6 0.0 0.00 0.00 0.00 67 1013.4
20260904162958 21 78 1.6 0.0 0.00 0.00 0.00 67 1013.4
20260904162931 21 78 1.6 3.2 0.00 0.00 0.00 67 1013.4
20260904162858 21 59 3.2 0.0 0.00 0.00 0.00 67 1013.5
20260904162828 21 59 3.2 0.0 0.00 0.00 0.00 68 1013.5
20260904162800 21 59 3.2 0.0 0.00 0.00 0.00 68 1013.5
20260904162747 21 135 0.0 3.2 0.00 0.00 0.00 67 1014.3
20260904162730 21 59 3.2 0.0 0.00 0.00 0.00 67 1013.5
20260904162629 21 59 3.2 0.0 0.00 0.00 0.00 67 1013.5
20260904162559 22 59 3.2 0.0 0.00 0.00 0.00 67 1013.5
20260904162528 22 59 3.2 0.0 0.00 0.00 0.00 67 1013.5
20260904162500 22 59 3.2 0.0 0.00 0.00 0.00 67 1013.5
20260904162429 22 59 3.2 0.0 0.00 0.00 0.00 66 1013.5
20260904162329 22 59 3.2 0.0 0.00 0.00 0.00 66 1013.5
20260904162258 22 59 3.2 0.0 0.00 0.00 0.00 66 1013.5
20260904162243 22 11 0.0 6.4 0.00 0.00 0.00 66 1014.3
20260904162228 22 59 3.2 0.0 0.00 0.00 0.00 66 1013.5
20260904162159 22 59 3.2 0.0 0.00 0.00 0.00 66 1013.5
20260904162128 22 59 3.2 0.0 0.00 0.00 0.00 66 1013.5
20260904162036 22 59 3.2 0.0 0.00 0.00 0.00 66 1013.5
20260904161959 21 59 3.2 0.0 0.00 0.00 0.00 67 1013.5
20260904161933 20 80 3.2 0.0 0.00 0.00 0.00 71 1013.1
20260904161929 21 59 3.2 4.8 0.00 0.00 0.00 67 1013.5
20260904161859 21 80 3.2 0.0 0.00 0.00 0.00 69 1013.1
20260904161828 21 80 3.2 0.0 0.00 0.00 0.00 69 1013.1
20260904161811 20 80 3.2 0.0 0.00 0.00 0.00 71 1013.1
20260904161758 21 80 3.2 0.0 0.00 0.00 0.00 68 1013.1
20260904161738 21 103 0.0 6.4 0.00 0.00 0.00 69 1014.4
20260904161728 21 80 3.2 0.0 0.00 0.00 0.00 69 1013.1
20260904161658 21 80 3.2 0.0 0.00 0.00 0.00 69 1013.1
20260904161646 20 80 3.2 0.0 0.00 0.00 0.00 71 1013.1
20260904161628 20 80 3.2 0.0 0.00 0.00 0.00 71 1013.1
20260904161618 21 80 3.2 0.0 0.00 0.00 0.00 70 1013.1
20260904161608 20 80 3.2 0.0 0.00 0.00 0.00 71 1013.1
20260904161310 20 80 3.2 0.0 0.00 0.00 0.00 71 1013.1
20260904161238 20 28 0.0 4.8 0.00 0.00 0.00 71 1014.2
20260904161130 20 80 3.2 0.0 0.00 0.00 0.00 71 1013.1
20260904161119 21 78 4.8 0.0 0.00 0.00 0.00 69 1013.1
20260904161108 20 80 3.2 0.0 0.00 0.00 0.00 72 1013.1
20260904160930 21 80 3.2 6.4 0.00 0.00 0.00 70 1013.1
20260904160829 21 78 4.8 0.0 0.00 0.00 0.00 70 1013.1
20260904160733 21 83 4.8 8.0 0.00 0.00 0.00 69 1014.2
20260904160729 21 78 4.8 0.0 0.00 0.00 0.00 69 1013.1
20260904160649 21 78 4.8 0.0 0.00 0.00 0.00 69 1013.1
20260904160645 21 78 4.8 0.0 0.00 0.00 0.00 69 1013.1
20260904160459 21 78 4.8 0.0 0.00 0.00 0.00 68 1013.1
20260904160428 21 78 4.8 0.0 0.00 0.00 0.00 68 1013.1
20260904160359 21 78 4.8 0.0 0.00 0.00 0.00 67 1013.1
20260904160328 21 78 4.8 0.0 0.00 0.00 0.00 68 1013.1
20260904160312 21 129 4.8 0.0 0.00 0.00 0.00 67 1013.1
20260904160254 21 78 4.8 0.0 0.00 0.00 0.00 68 1013.1
20260904160232 21 78 4.8 0.0 0.00 0.00 0.00 68 1013.1
20260904160229 21 123 1.6 4.8 0.00 0.00 0.00 68 1014.3
20260904160222 21 78 4.8 0.0 0.00 0.00 0.00 69 1013.1
20260904160042 20 129 4.8 0.0 0.00 0.00 0.00 71 1013.3
20260904160031 21 78 4.8 0.0 0.00 0.00 0.00 69 1013.1
20260904160009 21 78 4.8 0.0 0.00 0.00 0.00 68 1013.1
20260904155946 21 78 4.8 6.4 0.00 0.00 0.00 68 1013.1
20260904155758 20 129 4.8 0.0 0.00 0.00 0.00 71 1013.1
20260904155728 20 129 4.8 0.0 0.00 0.00 0.00 71 1013.3
20260904155724 21 108 3.2 6.4 0.00 0.00 0.00 68 1014.2
20260904155718 20 129 4.8 0.0 0.00 0.00 0.00 71 1013.3
20260904155709 20 129 4.8 0.0 0.00 0.00 0.00 71 1013.3
20260904155529 20 129 4.8 0.0 0.00 0.00 0.00 71 1013.3
20260904155459 20 129 4.8 0.0 0.00 0.00 0.00 71 1013.3
20260904155428 20 129 4.8 0.0 0.00 0.00 0.00 71 1013.3
20260904155346 20 129 4.8 0.0 0.00 0.00 0.00 71 1013.3
20260904155223 20 128 3.2 9.7 0.00 0.00 0.00 70 1014.3
20260904155129 20 129 4.8 0.0 0.00 0.00 0.00 71 1013.3
20260904155036 20 129 4.8 0.0 0.00 0.00 0.00 71 1013.3
20260904155002 20 129 4.8 0.0 0.00 0.00 0.00 71 1013.3
20260904154942 20 52 0.0 0.0 0.00 0.00 0.00 73 1013.2
20260904154931 20 129 4.8 8.0 0.00 0.00 0.00 71 1013.3
20260904154829 20 52 0.0 0.0 0.00 0.00 0.00 71 1013.2
20260904154735 21 52 0.0 0.0 0.00 0.00 0.00 69 1013.2
20260904154729 20 52 0.0 0.0 0.00 0.00 0.00 71 1013.2
20260904154721 20 137 8.0 9.7 0.00 0.00 0.00 71 1014.1
20260904154700 20 52 0.0 0.0 0.00 0.00 0.00 71 1013.2
20260904154630 20 52 0.0 0.0 0.00 0.00 0.00 72 1013.2
20260904154620 20 52 0.0 0.0 0.00 0.00 0.00 72 1013.2
20260904154609 20 52 0.0 0.0 0.00 0.00 0.00 73 1013.2
20260904154429 21 52 0.0 0.0 0.00 0.00 0.00 71 1013.2
20260904154409 21 52 0.0 0.0 0.00 0.00 0.00 71 1013.2
20260904154230 21 52 0.0 0.0 0.00 0.00 0.00 70 1013.2
20260904154221 19 71 4.8 0.0 0.00 0.00 0.00 78 1013.0
20260904154216 21 197 4.8 4.8 0.00 0.00 0.00 69 1014.1
20260904154129 21 52 0.0 0.0 0.00 0.00 0.00 70 1013.2
20260904154030 19 52 0.0 0.0 0.00 0.00 0.00 78 1013.2
20260904154004 19 52 0.0 0.0 0.00 0.00 0.00 78 1013.2
20260904153939 19 52 0.0 0.0 0.00 0.00 0.00 78 1013.2
20260904153921 18 71 4.8 0.0 0.00 0.00 0.00 78 1013.0
20260904153906 18 71 4.8 0.0 0.00 0.00 0.00 78 1013.0
20260904153858 19 71 4.8 0.0 0.00 0.00 0.00 78 1013.0
20260904153711 20 158 1.6 3.2 0.00 0.00 0.00 76 1014.0
20260904153659 19 71 4.8 0.0 0.00 0.00 0.00 78 1013.0
20260904153628 19 71 4.8 0.0 0.00 0.00 0.00 78 1013.0
20260904153546 19 71 4.8 0.0 0.00 0.00 0.00 78 1013.0
20260904153538 19 71 4.8 0.0 0.00 0.00 0.00 78 1013.0
20260904153409 18 71 4.8 0.0 0.00 0.00 0.00 78 1013.0
20260904153229 18 71 4.8 0.0 0.00 0.00 0.00 78 1013.0
20260904153207 18 92 3.2 4.8 0.00 0.00 0.00 78 1014.0
20260904153159 18 71 4.8 0.0 0.00 0.00 0.00 78 1013.0
20260904153129 19 71 4.8 0.0 0.00 0.00 0.00 77 1013.0
20260904153030 19 71 4.8 0.0 0.00 0.00 0.00 77 1013.0
20260904153011 19 103 0.0 0.0 0.00 0.00 0.00 76 1013.1
20260904152958 19 71 4.8 0.0 0.00 0.00 0.00 77 1013.0
20260904152932 19 71 4.8 4.8 0.00 0.00 0.00 77 1013.0
20260904152829 19 103 0.0 0.0 0.00 0.00 0.00 77 1013.1
20260904152759 19 103 0.0 0.0 0.00 0.00 0.00 76 1013.1
20260904152728 19 103 0.0 0.0 0.00 0.00 0.00 76 1013.1
20260904152716 19 103 0.0 0.0 0.00 0.00 0.00 77 1013.1
20260904152703 19 93 3.2 4.8 0.00 0.00 0.00 76 1014.1
20260904152643 19 103 0.0 0.0 0.00 0.00 0.00 76 1013.1
20260904152500 19 103 0.0 0.0 0.00 0.00 0.00 77 1013.1
20260904152447 19 103 0.0 0.0 0.00 0.00 0.00 77 1013.1
20260904152429 19 103 0.0 0.0 0.00 0.00 0.00 77 1013.1
20260904152351 19 103 0.0 0.0 0.00 0.00 0.00 77 1013.1
20260904152211 19 103 0.0 0.0 0.00 0.00 0.00 77 1013.1
20260904152158 19 93 0.0 4.8 0.00 0.00 0.00 77 1014.1
20260904152150 19 86 0.0 0.0 0.00 0.00 0.00 78 1013.2
20260904152129 19 103 0.0 0.0 0.00 0.00 0.00 77 1013.1
20260904151941 19 103 0.0 0.0 0.00 0.00 0.00 77 1013.1
20260904151911 19 103 0.0 0.0 0.00 0.00 0.00 77 1013.1
20260904151824 19 86 0.0 0.0 0.00 0.00 0.00 78 1013.2
20260904151820 19 86 0.0 0.0 0.00 0.00 0.00 77 1013.2
20260904151805 19 86 0.0 0.0 0.00 0.00 0.00 78 1013.2
20260904151654 19 124 1.6 3.2 0.00 0.00 0.00 77 1014.1
20260904151611 19 86 0.0 0.0 0.00 0.00 0.00 78 1013.2
20260904151510 19 86 0.0 0.0 0.00 0.00 0.00 78 1013.2
20260904151458 19 65 6.4 0.0 0.00 0.00 0.00 78 1013.1
20260904151451 19 86 0.0 0.0 0.00 0.00 0.00 78 1013.2
20260904151152 18 77 3.2 4.8 0.00 0.00 0.00 78 1014.0
20260904151140 19 86 0.0 0.0 0.00 0.00 0.00 78 1013.2
20260904151111 18 86 0.0 0.0 0.00 0.00 0.00 78 1013.2
20260904151052 18 86 0.0 0.0 0.00 0.00 0.00 78 1013.2
20260904151026 19 86 0.0 0.0 0.00 0.00 0.00 78 1013.2
20260904151003 19 86 0.0 3.2 0.00 0.00 0.00 78 1013.2
20260904150817 18 65 6.4 0.0 0.00 0.00 0.00 83 1013.0
20260904150811 19 65 6.4 0.0 0.00 0.00 0.00 78 1013.1
20260904150740 18 65 6.4 0.0 0.00 0.00 0.00 83 1013.1
20260904150711 18 65 6.4 0.0 0.00 0.00 0.00 83 1013.0
20260904150648 19 172 0.0 3.2 0.00 0.00 0.00 79 1013.9
20260904150642 18 65 6.4 0.0 0.00 0.00 0.00 83 1013.0
20260904150631 18 65 6.4 0.0 0.00 0.00 0.00 83 1013.0
20260904150622 18 65 6.4 0.0 0.00 0.00 0.00 83 1013.1
20260904150517 18 65 6.4 0.0 0.00 0.00 0.00 83 1013.0
20260904150511 18 65 6.4 0.0 0.00 0.00 0.00 83 1013.0
20260904150450 18 65 6.4 0.0 0.00 0.00 0.00 83 1013.0
20260904150316 18 65 6.4 0.0 0.00 0.00 0.00 83 1013.0
20260904150303 18 65 6.4 0.0 0.00 0.00 0.00 83 1013.0
20260904150149 18 109 3.2 3.2 0.00 0.00 0.00 81 1014.0
20260904150127 18 65 6.4 0.0 0.00 0.00 0.00 83 1013.0
20260904150113 18 65 6.4 0.0 0.00 0.00 0.00 83 1013.0
20260904145922 18 153 0.0 0.0 0.00 0.00 0.00 83 1013.1
20260904145912 18 65 6.4 6.4 0.00 0.00 0.00 83 1013.0
20260904145810 18 153 0.0 0.0 0.00 0.00 0.00 83 1013.1
20260904145710 18 153 0.0 0.0 0.00 0.00 0.00 83 1013.1
20260904145647 18 62 4.8 6.4 0.00 0.00 0.00 83 1014.1
20260904145610 18 153 0.0 0.0 0.00 0.00 0.00 83 1013.1
20260904145550 18 153 0.0 0.0 0.00 0.00 0.00 83 1013.1
20260904145410 18 153 0.0 0.0 0.00 0.00 0.00 83 1013.1
20260904145339 18 153 0.0 0.0 0.00 0.00 0.00 84 1013.1
20260904145309 18 153 0.0 0.0 0.00 0.00 0.00 84 1013.1
20260904145241 18 153 0.0 0.0 0.00 0.00 0.00 84 1013.1
20260904145209 18 153 0.0 0.0 0.00 0.00 0.00 84 1013.1
20260904145142 17 89 3.2 4.8 0.00 0.00 0.00 83 1014.0
20260904145139 17 153 0.0 0.0 0.00 0.00 0.00 84 1013.1
20260904145109 17 153 0.0 0.0 0.00 0.00 0.00 83 1013.1
20260904145009 17 153 0.0 0.0 0.00 0.00 0.00 84 1013.1
20260904144939 18 153 0.0 0.0 0.00 0.00 0.00 84 1013.1
20260904144911 17 153 0.0 0.0 0.00 0.00 0.00 84 1013.1
20260904144850 17 97 0.0 0.0 0.00 0.00 0.00 84 1013.0
20260904144841 17 97 0.0 0.0 0.00 0.00 0.00 84 1013.0
20260904144809 17 97 0.0 0.0 0.00 0.00 0.00 84 1013.0
20260904144740 17 97 0.0 0.0 0.00 0.00 0.00 84 1013.0
20260904144730 17 97 0.0 0.0 0.00 0.00 0.00 85 1013.0
20260904144709 17 97 0.0 0.0 0.00 0.00 0.00 84 1013.0
20260904144638 17 107 4.8 4.8 0.00 0.00 0.00 84 1013.9
20260904144611 17 97 0.0 0.0 0.00 0.00 0.00 84 1013.0
20260904144532 17 97 0.0 0.0 0.00 0.00 0.00 85 1013.0
20260904144528 17 97 0.0 0.0 0.00 0.00 0.00 84 1013.0
20260904144352 17 97 0.0 0.0 0.00 0.00 0.00 84 1013.0
20260904144210 17 97 0.0 0.0 0.00 0.00 0.00 85 1013.0
20260904144133 17 112 3.2 4.8 0.00 0.00 0.00 85 1013.8
20260904144111 17 97 0.0 0.0 0.00 0.00 0.00 85 1013.0
20260904144057 17 97 0.0 0.0 0.00 0.00 0.00 85 1013.0
20260904143912 17 97 0.0 3.2 0.00 0.00 0.00 85 1013.0
20260904143810 17 103 1.6 0.0 0.00 0.00 0.00 85 1012.7
20260904143754 17 103 1.6 0.0 0.00 0.00 0.00 85 1012.7
20260904143723 17 103 1.6 0.0 0.00 0.00 0.00 85 1012.7
20260904143629 17 98 3.2 3.2 0.00 0.00 0.00 85 1013.8
20260904143610 17 103 1.6 0.0 0.00 0.00 0.00 85 1012.7
20260904143509 17 103 1.6 0.0 0.00 0.00 0.00 85 1012.7
20260904143440 17 103 1.6 0.0 0.00 0.00 0.00 85 1012.7
20260904143209 17 103 1.6 0.0 0.00 0.00 0.00 85 1012.7
20260904143126 17 100 3.2 4.8 0.00 0.00 0.00 85 1013.7
20260904143110 17 103 1.6 0.0 0.00 0.00 0.00 85 1012.7
20260904143052 17 131 0.0 0.0 0.00 0.00 0.00 87 1012.8
20260904143010 17 103 1.6 0.0 0.00 0.00 0.00 85 1012.7
20260904142940 17 103 1.6 0.0 0.00 0.00 0.00 85 1012.7
20260904142914 17 103 1.6 3.2 0.00 0.00 0.00 86 1012.7
20260904142903 17 131 0.0 1.6 0.00 0.00 0.00 87 1012.8
20260904142846 17 131 0.0 0.0 0.00 0.00 0.00 86 1012.8
20260904142809 17 131 0.0 0.0 0.00 0.00 0.00 86 1012.8
20260904142719 17 131 0.0 0.0 0.00 0.00 0.00 86 1012.8
20260904142705 17 131 0.0 0.0 0.00 0.00 0.00 86 1012.8
20260904142622 17 197 0.0 3.2 0.00 0.00 0.00 86 1013.7
20260904142547 17 131 0.0 0.0 0.00 0.00 0.00 86 1012.8
20260904142539 17 131 0.0 0.0 0.00 0.00 0.00 86 1012.8
20260904142410 17 131 0.0 0.0 0.00 0.00 0.00 86 1012.8
20260904142327 17 126 0.0 0.0 0.00 0.00 0.00 87 1012.4
20260904142310 17 131 0.0 0.0 0.00 0.00 0.00 86 1012.8
20260904142249 17 126 0.0 0.0 0.00 0.00 0.00 87 1012.4
20260904142245 17 131 0.0 0.0 0.00 0.00 0.00 86 1012.8
20260904142235 17 131 0.0 0.0 0.00 0.00 0.00 87 1012.8
20260904142222 17 131 0.0 0.0 0.00 0.00 0.00 87 1012.8
20260904142209 17 131 0.0 0.0 0.00 0.00 0.00 87 1012.8
20260904142117 17 99 0.0 3.2 0.00 0.00 0.00 87 1013.7
20260904141821 16 126 0.0 0.0 0.00 0.00 0.00 89 1012.4
20260904141810 17 126 0.0 0.0 0.00 0.00 0.00 87 1012.4
20260904141710 17 126 0.0 0.0 0.00 0.00 0.00 87 1012.4
20260904141657 16 126 0.0 1.6 0.00 0.00 0.00 89 1012.4
20260904141650 17 126 0.0 0.0 0.00 0.00 0.00 87 1012.4
20260904141612 17 118 0.0 3.2 0.00 0.00 0.00 87 1013.4
20260904141529 17 126 0.0 0.0 0.00 0.00 0.00 87 1012.4
20260904141520 17 126 0.0 0.0 0.00 0.00 0.00 87 1012.4
20260904141457 16 126 0.0 0.0 0.00 0.00 0.00 89 1012.4
20260904141310 16 126 0.0 0.0 0.00 0.00 0.00 89 1012.4
20260904141240 16 126 0.0 0.0 0.00 0.00 0.00 89 1012.4
20260904141210 16 126 0.0 0.0 0.00 0.00 0.00 89 1012.4
20260904141140 16 126 0.0 0.0 0.00 0.00 0.00 89 1012.4
20260904141125 16 51 0.0 0.0 0.00 0.00 0.00 89 1012.2
20260904141110 16 126 0.0 0.0 0.00 0.00 0.00 89 1012.4
20260904141108 17 131 1.6 3.2 0.00 0.00 0.00 88 1013.5
20260904141044 16 51 0.0 0.0 0.00 0.00 0.00 89 1012.2
20260904141034 16 126 0.0 0.0 0.00 0.00 0.00 89 1012.4
20260904141025 16 126 0.0 0.0 0.00 0.00 0.00 89 1012.4
20260904140810 16 51 0.0 0.0 0.00 0.00 0.00 89 1012.2
20260904140750 16 51 0.0 0.0 0.00 0.00 0.00 89 1012.2
20260904140630 16 51 0.0 0.0 0.00 0.00 0.00 89 1012.2
20260904140626 16 51 0.0 0.0 0.00 0.00 0.00 89 1012.2
20260904140604 16 150 0.0 0.0 0.00 0.00 0.00 89 1013.4
20260904140422 16 51 0.0 0.0 0.00 0.00 0.00 89 1012.2
20260904140353 16 51 0.0 0.0 0.00 0.00 0.00 89 1012.2
20260904140310 16 51 0.0 0.0 0.00 0.00 0.00 89 1012.2
20260904140253 16 57 0.0 0.0 0.00 0.00 0.00 89 1012.2
20260904140227 16 51 0.0 0.0 0.00 0.00 0.00 89 1012.2
20260904140045 16 57 0.0 0.0 0.00 0.00 0.00 89 1012.2
20260904140040 16 51 0.0 0.0 0.00 0.00 0.00 89 1012.2
20260904140009 16 51 0.0 0.0 0.00 0.00 0.00 89 1012.2
20260904135940 16 51 0.0 0.0 0.00 0.00 0.00 89 1012.2
20260904135930 16 51 0.0 3.2 0.00 0.00 0.00 89 1012.2
20260904135724 16 57 0.0 0.0 0.00 0.00 0.00 89 1012.2
20260904135602 16 43 1.6 3.2 0.00 0.00 0.00 89 1013.5
20260904135552 16 57 0.0 0.0 0.00 0.00 0.00 89 1012.2
20260904135540 16 57 0.0 0.0 0.00 0.00 0.00 89 1012.2
20260904135510 16 57 0.0 0.0 0.00 0.00 0.00 89 1012.2
20260904135411 16 57 0.0 0.0 0.00 0.00 0.00 89 1012.2
20260904135347 16 135 3.2 0.0 0.00 0.00 0.00 88 1012.2
20260904135312 16 57 0.0 0.0 0.00 0.00 0.00 89 1012.2
20260904135230 16 135 3.2 0.0 0.00 0.00 0.00 88 1012.2
20260904135226 16 57 0.0 0.0 0.00 0.00 0.00 89 1012.2
20260904135059 16 36 0.0 0.0 0.00 0.00 0.00 88 1013.2
20260904135020 16 57 0.0 0.0 0.00 0.00 0.00 88 1012.2
20260904135011 16 57 0.0 0.0 0.00 0.00 0.00 88 1012.2
20260904135002 16 57 0.0 0.0 0.00 0.00 0.00 88 1012.2
20260904134829 16 135 3.2 0.0 0.00 0.00 0.00 88 1012.2
20260904134825 16 135 3.2 0.0 0.00 0.00 0.00 88 1012.2
20260904134610 16 135 3.2 0.0 0.00 0.00 0.00 88 1012.2
20260904134554 16 157 0.0 1.6 0.00 0.00 0.00 88 1013.1
20260904134524 16 135 3.2 0.0 0.00 0.00 0.00 88 1012.2
20260904134351 16 135 3.2 0.0 0.00 0.00 0.00 88 1012.2
20260904134212 16 135 3.2 0.0 0.00 0.00 0.00 88 1012.2
20260904134110 16 135 3.2 0.0 0.00 0.00 0.00 88 1012.2
20260904134048 16 113 0.0 3.2 0.00 0.00 0.00 88 1013.1
20260904134043 16 135 3.2 0.0 0.00 0.00 0.00 88 1012.2
20260904134011 16 135 3.2 0.0 0.00 0.00 0.00 88 1012.2
20260904133939 16 135 3.2 0.0 0.00 0.00 0.00 88 1012.2
20260904133911 16 135 3.2 3.2 0.00 0.00 0.00 88 1012.2
20260904133810 16 93 1.6 0.0 0.00 0.00 0.00 88 1012.2
20260904133753 16 93 1.6 0.0 0.00 0.00 0.00 88 1012.2
20260904133711 16 93 1.6 0.0 0.00 0.00 0.00 88 1012.2
20260904133610 16 93 1.6 0.0 0.00 0.00 0.00 88 1012.2
20260904133543 16 103 0.0 3.2 0.00 0.00 0.00 88 1013.2
20260904133541 16 93 1.6 0.0 0.00 0.00 0.00 88 1012.2
20260904133509 16 93 1.6 0.0 0.00 0.00 0.00 88 1012.2
20260904133424 16 93 1.6 0.0 0.00 0.00 0.00 88 1012.2
20260904133222 16 93 1.6 0.0 0.00 0.00 0.00 88 1012.2
20260904133155 16 98 1.6 0.0 0.00 0.00 0.00 88 1012.3
20260904133109 16 93 1.6 0.0 0.00 0.00 0.00 88 1012.2
20260904133039 16 93 1.6 0.0 0.00 0.00 0.00 88 1012.2
20260904133009 16 93 1.6 0.0 0.00 0.00 0.00 88 1012.2
20260904132941 16 93 1.6 0.0 0.00 0.00 0.00 88 1012.2
20260904132911 16 93 1.6 3.2 0.00 0.00 0.00 88 1012.2
20260904132837 16 98 1.6 0.0 0.00 0.00 0.00 88 1012.3
20260904132639 16 98 1.6 0.0 0.00 0.00 0.00 88 1012.3
20260904132609 16 98 1.6 0.0 0.00 0.00 0.00 88 1012.3
20260904132546 16 98 1.6 0.0 0.00 0.00 0.00 88 1012.3
20260904132539 16 111 0.0 3.2 0.00 0.00 0.00 88 1013.0
20260904132511 16 98 1.6 0.0 0.00 0.00 0.00 88 1012.3
20260904132410 16 98 1.6 0.0 0.00 0.00 0.00 88 1012.3
20260904132347 16 98 1.6 0.0 0.00 0.00 0.00 88 1012.3
20260904132324 16 40 1.6 0.0 0.00 0.00 0.00 88 1012.3
20260904132310 16 98 1.6 0.0 0.00 0.00 0.00 88 1012.3
20260904132256 16 58 1.6 0.0 0.00 0.00 0.00 88 1012.0
20260904132241 16 40 1.6 0.0 0.00 0.00 0.00 88 1012.3
20260904132231 16 98 1.6 0.0 0.00 0.00 0.00 88 1012.3
20260904132044 16 40 1.6 0.0 0.00 0.00 0.00 88 1012.3
20260904132039 16 134 0.0 1.6 0.00 0.00 0.00 88 1013.3
20260904132023 16 40 1.6 0.0 0.00 0.00 0.00 88 1012.3
20260904132019 16 98 1.6 0.0 0.00 0.00 0.00 88 1012.3
20260904132010 16 98 1.6 0.0 0.00 0.00 0.00 88 1012.3
20260904132000 16 98 1.6 1.6 0.00 0.00 0.00 88 1012.3
20260904131649 16 40 1.6 0.0 0.00 0.00 0.00 88 1012.3
20260904131538 16 96 1.6 3.2 0.00 0.00 0.00 88 1013.3
20260904131510 16 40 1.6 0.0 0.00 0.00 0.00 88 1012.3
20260904131500 16 40 1.6 0.0 0.00 0.00 0.00 88 1012.3
20260904131453 16 40 1.6 0.0 0.00 0.00 0.00 88 1012.3
20260904131312 16 40 1.6 0.0 0.00 0.00 0.00 88 1012.3
20260904131301 16 58 1.6 0.0 0.00 0.00 0.00 88 1012.0
20260904131253 16 40 1.6 0.0 0.00 0.00 0.00 88 1012.3
20260904131110 16 40 1.6 0.0 0.00 0.00 0.00 88 1012.3
20260904131052 16 40 1.6 0.0 0.00 0.00 0.00 88 1012.3
20260904131035 16 60 1.6 3.2 0.00 0.00 0.00 88 1013.1
20260904130932 16 58 1.6 0.0 0.00 0.00 0.00 88 1012.0
20260904130928 16 40 1.6 3.2 0.00 0.00 0.00 88 1012.3
20260904130723 16 58 1.6 0.0 0.00 0.00 0.00 88 1012.0
20260904130712 16 58 1.6 0.0 0.00 0.00 0.00 88 1012.0
20260904130556 16 58 1.6 1.6 0.00 0.00 0.00 88 1012.0
20260904130549 16 48 1.6 0.0 0.00 0.00 0.00 88 1012.1
20260904130541 16 58 1.6 0.0 0.00 0.00 0.00 88 1012.0
20260904130534 16 75 0.0 1.6 0.00 0.00 0.00 88 1013.2
20260904130531 16 48 1.6 0.0 0.00 0.00 0.00 88 1012.1
20260904130521 16 48 1.6 0.0 0.00 0.00 0.00 88 1012.1
20260904130514 16 48 1.6 0.0 0.00 0.00 0.00 88 1012.1
20260904130510 16 58 1.6 0.0 0.00 0.00 0.00 88 1012.0
20260904130455 16 58 1.6 0.0 0.00 0.00 0.00 88 1012.0
20260904130313 16 58 1.6 0.0 0.00 0.00 0.00 88 1012.0
20260904130300 16 58 1.6 0.0 0.00 0.00 0.00 88 1012.0
20260904130232 16 58 1.6 0.0 0.00 0.00 0.00 88 1012.0
20260904130029 16 60 1.6 3.2 0.00 0.00 0.00 88 1013.1
20260904125802 16 48 1.6 0.0 0.00 0.00 0.00 88 1012.1
20260904125622 16 48 1.6 0.0 0.00 0.00 0.00 88 1012.1
20260904125552 16 48 1.6 0.0 0.00 0.00 0.00 88 1012.1
20260904125526 16 106 0.0 3.2 0.00 0.00 0.00 88 1013.1
20260904125410 16 48 1.6 0.0 0.00 0.00 0.00 88 1012.1
20260904125328 16 48 1.6 0.0 0.00 0.00 0.00 88 1012.1
20260904125140 16 48 1.6 0.0 0.00 0.00 0.00 88 1012.1
20260904125109 16 48 1.6 0.0 0.00 0.00 0.00 88 1012.1
20260904125039 16 48 1.6 0.0 0.00 0.00 0.00 88 1012.1
20260904125020 16 19 1.6 3.2 0.00 0.00 0.00 88 1013.1
20260904125009 16 48 1.6 0.0 0.00 0.00 0.00 88 1012.1
20260904124952 16 84 0.0 0.0 0.00 0.00 0.00 88 1012.1
20260904124939 16 48 1.6 0.0 0.00 0.00 0.00 88 1012.1
20260904124923 16 48 1.6 3.2 0.00 0.00 0.00 88 1012.1
20260904124815 16 84 0.0 0.0 0.00 0.00 0.00 88 1012.1
20260904124743 16 84 0.0 0.0 0.00 0.00 0.00 88 1012.1
20260904124709 16 84 0.0 0.0 0.00 0.00 0.00 88 1012.1
20260904124629 16 84 0.0 0.0 0.00 0.00 0.00 88 1012.1
20260904124625 16 84 0.0 0.0 0.00 0.00 0.00 88 1012.1
20260904124515 16 334 0.0 3.2 0.00 0.00 0.00 88 1013.1
20260904124410 16 84 0.0 0.0 0.00 0.00 0.00 88 1012.1
20260904124310 16 84 0.0 0.0 0.00 0.00 0.00 88 1012.1
20260904124257 16 69 3.2 0.0 0.00 0.00 0.00 87 1012.2
20260904124250 16 84 0.0 0.0 0.00 0.00 0.00 88 1012.1
20260904124109 16 84 0.0 0.0 0.00 0.00 0.00 87 1012.1
20260904124040 16 84 0.0 0.0 0.00 0.00 0.00 87 1012.1
20260904124011 16 51 0.0 3.2 0.00 0.00 0.00 87 1013.0
20260904124009 16 84 0.0 0.0 0.00 0.00 0.00 87 1012.1
20260904123940 16 84 0.0 0.0 0.00 0.00 0.00 87 1012.1
20260904123911 16 84 0.0 0.0 0.00 0.00 0.00 87 1012.1
20260904123857 16 69 3.2 0.0 0.00 0.00 0.00 87 1012.2
20260904123850 16 69 3.2 0.0 0.00 0.00 0.00 87 1012.2
20260904123722 16 69 3.2 0.0 0.00 0.00 0.00 87 1012.2
20260904123643 16 69 3.2 0.0 0.00 0.00 0.00 87 1012.2
20260904123633 16 69 3.2 0.0 0.00 0.00 0.00 87 1012.2
20260904123611 16 69 3.2 0.0 0.00 0.00 0.00 87 1012.2
20260904123517 16 69 3.2 0.0 0.00 0.00 0.00 87 1012.2
20260904123510 16 113 0.0 3.2 0.00 0.00 0.00 87 1013.1
20260904123443 16 69 3.2 0.0 0.00 0.00 0.00 87 1012.2
20260904123302 16 69 3.2 0.0 0.00 0.00 0.00 87 1012.2
20260904123010 16 69 3.2 0.0 0.00 0.00 0.00 87 1012.2
20260904123007 16 31 1.6 6.4 0.00 0.00 0.00 87 1013.0
20260904122939 16 69 3.2 0.0 0.00 0.00 0.00 87 1012.2
20260904122911 16 69 3.2 3.2 0.00 0.00 0.00 87 1012.2
20260904122840 16 38 0.0 0.0 0.00 0.00 0.00 87 1012.0
20260904122809 16 38 0.0 0.0 0.00 0.00 0.00 87 1012.0
20260904122752 16 38 0.0 0.0 0.00 0.00 0.00 87 1012.0
20260904122711 16 38 0.0 0.0 0.00 0.00 0.00 87 1012.0
20260904122645 16 38 0.0 0.0 0.00 0.00 0.00 87 1012.0
20260904122640 16 38 0.0 0.0 0.00 0.00 0.00 87 1012.0
20260904122609 16 38 0.0 0.0 0.00 0.00 0.00 87 1012.0
20260904122510 16 38 0.0 0.0 0.00 0.00 0.00 87 1012.0
20260904122501 16 76 3.2 3.2 0.00 0.00 0.00 87 1013.1
20260904122411 16 38 0.0 0.0 0.00 0.00 0.00 87 1012.0
20260904122326 16 38 0.0 0.0 0.00 0.00 0.00 87 1012.0
20260904122115 16 89 0.0 0.0 0.00 0.00 0.00 87 1012.2
20260904122109 16 38 0.0 0.0 0.00 0.00 0.00 87 1012.0
20260904122039 16 38 0.0 0.0 0.00 0.00 0.00 87 1012.0
20260904122009 16 38 0.0 0.0 0.00 0.00 0.00 87 1012.0
20260904121955 16 142 0.0 1.6 0.00 0.00 0.00 87 1013.2
20260904121946 15 89 0.0 0.0 0.00 0.00 0.00 87 1012.2
20260904121939 16 38 0.0 0.0 0.00 0.00 0.00 87 1012.0
20260904121911 16 38 0.0 0.0 0.00 0.00 0.00 87 1012.0
20260904121830 15 89 0.0 0.0 0.00 0.00 0.00 87 1012.2
20260904121811 16 89 0.0 0.0 0.00 0.00 0.00 87 1012.2
20260904121802 15 89 0.0 0.0 0.00 0.00 0.00 87 1012.2
20260904121753 15 89 0.0 1.6 0.00 0.00 0.00 86 1012.2
20260904121744 16 89 0.0 0.0 0.00 0.00 0.00 87 1012.2
20260904121615 16 89 0.0 0.0 0.00 0.00 0.00 87 1012.2
20260904121452 15 72 0.0 1.6 0.00 0.00 0.00 87 1012.9
20260904121327 15 56 3.2 0.0 0.00 0.00 0.00 86 1012.1
20260904121314 15 89 0.0 0.0 0.00 0.00 0.00 87 1012.2
20260904121302 15 89 0.0 0.0 0.00 0.00 0.00 87 1012.2
20260904121129 15 56 3.2 0.0 0.00 0.00 0.00 86 1012.1
20260904121125 15 89 0.0 0.0 0.00 0.00 0.00 87 1012.2
20260904121109 15 89 0.0 0.0 0.00 0.00 0.00 87 1012.2
20260904121101 15 89 0.0 0.0 0.00 0.00 0.00 87 1012.2
20260904120948 15 79 0.0 3.2 0.00 0.00 0.00 86 1013.0
20260904120810 15 56 3.2 0.0 0.00 0.00 0.00 86 1012.1
20260904120737 15 56 3.2 0.0 0.00 0.00 0.00 86 1012.1
20260904120530 15 56 3.2 0.0 0.00 0.00 0.00 86 1012.1
20260904120521 15 56 3.2 0.0 0.00 0.00 0.00 86 1012.1
20260904120443 15 77 0.0 1.6 0.00 0.00 0.00 86 1013.0
20260904120421 15 56 3.2 0.0 0.00 0.00 0.00 86 1012.1
20260904120321 15 56 3.2 0.0 0.00 0.00 0.00 86 1012.1
20260904120222 15 56 3.2 0.0 0.00 0.00 0.00 86 1012.1
20260904120158 15 56 3.2 0.0 0.00 0.00 0.00 86 1012.1
20260904120148 15 56 3.2 0.0 0.00 0.00 0.00 86 1012.1
20260904120008 15 56 3.2 0.0 0.00 0.00 0.00 86 1012.1
20260904115939 15 56 3.2 0.0 0.00 0.00 0.00 86 1012.1
20260904115911 15 56 3.2 3.2 0.00 0.00 0.00 86 1012.1
20260904115839 15 57 3.2 0.0 0.00 0.00 0.00 86 1011.9
20260904115808 15 57 3.2 0.0 0.00 0.00 0.00 86 1011.9
20260904115720 15 57 3.2 0.0 0.00 0.00 0.00 87 1011.9
20260904115709 15 57 3.2 0.0 0.00 0.00 0.00 87 1011.9
20260904115608 15 57 3.2 0.0 0.00 0.00 0.00 87 1011.9
20260904115541 15 57 3.2 0.0 0.00 0.00 0.00 87 1011.9
20260904115522 15 57 3.2 0.0 0.00 0.00 0.00 87 1011.9
20260904115508 15 57 3.2 0.0 0.00 0.00 0.00 87 1011.9
20260904115433 15 64 1.6 3.2 0.00 0.00 0.00 87 1013.0
20260904115409 15 57 3.2 0.0 0.00 0.00 0.00 87 1011.9
20260904115352 15 57 3.2 0.0 0.00 0.00 0.00 87 1011.9
20260904115230 15 61 0.0 0.0 0.00 0.00 0.00 87 1012.1
20260904115224 15 61 0.0 0.0 0.00 0.00 0.00 87 1012.1
20260904115220 15 57 3.2 0.0 0.00 0.00 0.00 87 1011.9
20260904115202 15 57 3.2 0.0 0.00 0.00 0.00 87 1011.9
20260904115010 15 57 3.2 0.0 0.00 0.00 0.00 87 1011.9
20260904114939 15 57 3.2 0.0 0.00 0.00 0.00 87 1011.9
20260904114928 15 52 3.2 3.2 0.00 0.00 0.00 87 1013.0
20260904114922 15 61 0.0 0.0 0.00 0.00 0.00 87 1012.1
20260904114916 15 57 3.2 3.2 0.00 0.00 0.00 87 1011.9
20260904114902 15 61 0.0 0.0 0.00 0.00 0.00 87 1012.1
20260904114608 15 61 0.0 0.0 0.00 0.00 0.00 87 1012.1
20260904114543 15 61 0.0 0.0 0.00 0.00 0.00 87 1012.1
20260904114428 15 43 3.2 3.2 0.00 0.00 0.00 87 1013.1
20260904114340 15 61 0.0 0.0 0.00 0.00 0.00 87 1012.1
20260904114309 15 61 0.0 0.0 0.00 0.00 0.00 87 1012.1
20260904114240 15 61 0.0 0.0 0.00 0.00 0.00 87 1012.1
20260904114209 15 61 0.0 0.0 0.00 0.00 0.00 87 1012.1
20260904114146 15 73 0.0 0.0 0.00 0.00 0.00 87 1012.1
20260904114140 15 61 0.0 0.0 0.00 0.00 0.00 87 1012.1
20260904114107 15 61 0.0 0.0 0.00 0.00 0.00 87 1012.1
20260904114038 15 61 0.0 0.0 0.00 0.00 0.00 87 1012.1
20260904114008 15 61 0.0 0.0 0.00 0.00 0.00 87 1012.1
20260904113948 15 73 0.0 0.0 0.00 0.00 0.00 87 1012.1
20260904113939 15 61 0.0 0.0 0.00 0.00 0.00 87 1012.1
20260904113924 15 65 1.6 3.2 0.00 0.00 0.00 87 1013.0
20260904113922 15 61 0.0 1.6 0.00 0.00 0.00 87 1012.1
20260904113823 15 73 0.0 0.0 0.00 0.00 0.00 87 1012.1
20260904113624 15 73 0.0 0.0 0.00 0.00 0.00 87 1012.1
20260904113423 15 62 0.0 1.6 0.00 0.00 0.00 87 1013.1
20260904113421 15 73 0.0 0.0 0.00 0.00 0.00 87 1012.1
20260904113340 15 73 0.0 0.0 0.00 0.00 0.00 87 1012.1
20260904113309 15 73 0.0 0.0 0.00 0.00 0.00 87 1012.1
20260904113238 15 73 0.0 0.0 0.00 0.00 0.00 87 1012.1
20260904113208 15 73 0.0 0.0 0.00 0.00 0.00 87 1012.1
20260904113149 15 75 0.0 0.0 0.00 0.00 0.00 87 1012.1
20260904113109 15 73 0.0 0.0 0.00 0.00 0.00 87 1012.1
20260904113051 15 73 0.0 0.0 0.00 0.00 0.00 87 1012.1
20260904113008 15 73 0.0 0.0 0.00 0.00 0.00 87 1012.1
20260904112938 15 73 0.0 0.0 0.00 0.00 0.00 87 1012.1
20260904112922 15 59 1.6 3.2 0.00 0.00 0.00 87 1012.9
20260904112910 15 73 0.0 3.2 0.00 0.00 0.00 87 1012.1
20260904112825 15 75 0.0 0.0 0.00 0.00 0.00 87 1012.1
20260904112608 15 75 0.0 0.0 0.00 0.00 0.00 87 1012.1
20260904112538 15 75 0.0 0.0 0.00 0.00 0.00 87 1012.1
20260904112508 15 75 0.0 0.0 0.00 0.00 0.00 87 1012.1
20260904112418 15 65 0.0 3.2 0.00 0.00 0.00 87 1013.0
20260904112409 15 75 0.0 0.0 0.00 0.00 0.00 87 1012.1
20260904112338 15 75 0.0 0.0 0.00 0.00 0.00 87 1012.1
20260904112308 15 75 0.0 0.0 0.00 0.00 0.00 87 1012.1
20260904112242 15 37 3.2 0.0 0.00 0.00 0.00 87 1012.1
20260904112238 15 75 0.0 0.0 0.00 0.00 0.00 87 1012.1
20260904112208 15 75 0.0 0.0 0.00 0.00 0.00 87 1012.1
20260904112141 15 75 0.0 0.0 0.00 0.00 0.00 87 1012.1
20260904112109 15 75 0.0 0.0 0.00 0.00 0.00 87 1012.1
20260904112011 15 75 0.0 0.0 0.00 0.00 0.00 87 1012.1
20260904111939 15 75 0.0 0.0 0.00 0.00 0.00 87 1012.1
20260904111926 15 37 3.2 0.0 0.00 0.00 0.00 87 1012.1
20260904111922 15 75 0.0 1.6 0.00 0.00 0.00 87 1012.1
20260904111914 15 62 1.6 3.2 0.00 0.00 0.00 87 1013.0
20260904111740 15 37 3.2 0.0 0.00 0.00 0.00 87 1012.1
20260904111709 15 37 3.2 0.0 0.00 0.00 0.00 87 1012.1
20260904111640 15 37 3.2 0.0 0.00 0.00 0.00 87 1012.1
20260904111608 15 37 3.2 0.0 0.00 0.00 0.00 87 1012.1
20260904111528 15 37 3.2 0.0 0.00 0.00 0.00 87 1012.1
20260904111524 15 37 3.2 0.0 0.00 0.00 0.00 87 1012.1
20260904111409 15 76 1.6 3.2 0.00 0.00 0.00 87 1013.0
20260904111339 15 37 3.2 0.0 0.00 0.00 0.00 87 1012.1
20260904111308 15 37 3.2 0.0 0.00 0.00 0.00 87 1012.1
20260904111240 15 37 3.2 0.0 0.00 0.00 0.00 87 1012.1
20260904111215 15 48 1.6 0.0 0.00 0.00 0.00 86 1012.1
20260904111208 15 37 3.2 0.0 0.00 0.00 0.00 87 1012.1
20260904111145 15 57 0.0 0.0 0.00 0.00 0.00 86 1012.3
20260904111136 15 37 3.2 0.0 0.00 0.00 0.00 87 1012.1
20260904110939 15 37 3.2 0.0 0.00 0.00 0.00 87 1012.1
20260904110928 15 57 0.0 0.0 0.00 0.00 0.00 86 1012.3
20260904110910 15 37 3.2 3.2 0.00 0.00 0.00 87 1012.1
20260904110905 15 51 1.6 3.2 0.00 0.00 0.00 87 1012.9
20260904110847 15 57 0.0 0.0 0.00 0.00 0.00 87 1012.3
20260904110837 15 57 0.0 0.0 0.00 0.00 0.00 86 1012.3
20260904110715 15 57 0.0 0.0 0.00 0.00 0.00 86 1012.3
20260904110702 15 57 0.0 0.0 0.00 0.00 0.00 86 1012.3
20260904110408 15 57 0.0 0.0 0.00 0.00 0.00 86 1012.3
20260904110403 15 71 1.6 3.2 0.00 0.00 0.00 86 1012.9
20260904110353 15 57 0.0 1.6 0.00 0.00 0.00 86 1012.3
20260904110322 15 57 0.0 0.0 0.00 0.00 0.00 86 1012.3
20260904110221 15 57 0.0 0.0 0.00 0.00 0.00 86 1012.3
20260904110153 15 57 0.0 0.0 0.00 0.00 0.00 86 1012.3
20260904110031 15 57 0.0 0.0 0.00 0.00 0.00 86 1012.3
20260904110023 15 57 0.0 0.0 0.00 0.00 0.00 86 1012.3
20260904105859 15 68 0.0 3.2 0.00 0.00 0.00 86 1013.1
20260904105839 15 48 1.6 0.0 0.00 0.00 0.00 86 1012.1
20260904105826 15 48 1.6 0.0 0.00 0.00 0.00 86 1012.1
20260904105808 15 48 1.6 0.0 0.00 0.00 0.00 86 1012.1
20260904105739 15 48 1.6 0.0 0.00 0.00 0.00 86 1012.1
20260904105708 15 48 1.6 0.0 0.00 0.00 0.00 86 1012.1
20260904105652 15 48 1.6 0.0 0.00 0.00 0.00 86 1012.1
20260904105615 15 48 1.6 0.0 0.00 0.00 0.00 86 1012.1
20260904105602 15 48 1.6 0.0 0.00 0.00 0.00 86 1012.1
20260904105354 15 46 1.6 3.2 0.00 0.00 0.00 86 1013.1
20260904105310 15 48 1.6 0.0 0.00 0.00 0.00 86 1012.1
20260904105208 15 48 1.6 0.0 0.00 0.00 0.00 86 1012.1
20260904105108 15 48 1.6 0.0 0.00 0.00 0.00 86 1012.1
20260904105039 15 48 1.6 0.0 0.00 0.00 0.00 86 1012.1
20260904105008 15 48 1.6 0.0 0.00 0.00 0.00 86 1012.1
20260904104938 15 48 1.6 0.0 0.00 0.00 0.00 86 1012.1
20260904104914 15 48 1.6 3.2 0.00 0.00 0.00 86 1012.1
20260904104849 15 65 1.6 3.2 0.00 0.00 0.00 86 1013.2
20260904104809 15 48 3.2 0.0 0.00 0.00 0.00 86 1012.0
20260904104739 15 48 3.2 0.0 0.00 0.00 0.00 86 1012.0
20260904104708 15 48 3.2 0.0 0.00 0.00 0.00 86 1012.0
20260904104639 15 48 3.2 0.0 0.00 0.00 0.00 86 1012.0
20260904104612 15 48 3.2 0.0 0.00 0.00 0.00 85 1012.0
20260904104608 15 48 3.2 0.0 0.00 0.00 0.00 86 1012.0
20260904104540 15 48 3.2 0.0 0.00 0.00 0.00 86 1012.0
20260904104509 15 48 3.2 0.0 0.00 0.00 0.00 86 1012.0
20260904104438 15 48 3.2 0.0 0.00 0.00 0.00 86 1012.0
20260904104416 15 48 3.2 0.0 0.00 0.00 0.00 85 1012.0
20260904104408 15 48 3.2 0.0 0.00 0.00 0.00 86 1012.0
20260904104343 15 63 1.6 3.2 0.00 0.00 0.00 86 1013.0
20260904104339 15 48 3.2 0.0 0.00 0.00 0.00 86 1012.0
20260904104308 15 48 3.2 0.0 0.00 0.00 0.00 86 1012.0
20260904104248 15 48 3.2 0.0 0.00 0.00 0.00 86 1012.0
20260904104113 15 76 3.2 0.0 0.00 0.00 0.00 85 1011.9
20260904104109 15 48 3.2 0.0 0.00 0.00 0.00 86 1012.0
20260904104059 15 48 3.2 0.0 0.00 0.00 0.00 86 1012.0
20260904104049 15 48 3.2 0.0 0.00 0.00 0.00 85 1012.0
20260904103910 15 48 3.2 3.2 0.00 0.00 0.00 86 1012.0
20260904103840 15 46 3.2 3.2 0.00 0.00 0.00 86 1013.0
20260904103809 15 76 3.2 0.0 0.00 0.00 0.00 86 1011.9
20260904103711 15 76 3.2 0.0 0.00 0.00 0.00 86 1011.9
20260904103659 15 76 3.2 0.0 0.00 0.00 0.00 85 1011.9
20260904103650 15 76 3.2 0.0 0.00 0.00 0.00 86 1011.9
20260904103509 15 76 3.2 0.0 0.00 0.00 0.00 85 1011.9
20260904103438 15 76 3.2 0.0 0.00 0.00 0.00 86 1011.9
20260904103408 15 76 3.2 0.0 0.00 0.00 0.00 86 1011.9
20260904103335 15 64 1.6 3.2 0.00 0.00 0.00 85 1012.9
20260904103325 15 76 3.2 0.0 0.00 0.00 0.00 86 1011.9
20260904103139 15 76 3.2 0.0 0.00 0.00 0.00 86 1011.9
20260904103108 15 76 3.2 0.0 0.00 0.00 0.00 85 1011.9
20260904103039 15 76 3.2 0.0 0.00 0.00 0.00 85 1011.9
20260904103009 15 76 3.2 0.0 0.00 0.00 0.00 86 1011.9
20260904102938 15 76 3.2 0.0 0.00 0.00 0.00 85 1011.9
20260904102910 15 76 3.2 3.2 0.00 0.00 0.00 85 1011.9
20260904102840 15 66 0.0 0.0 0.00 0.00 0.00 86 1011.8
20260904102831 15 55 3.2 3.2 0.00 0.00 0.00 86 1012.9
20260904102808 15 66 0.0 0.0 0.00 0.00 0.00 86 1011.8
20260904102738 15 66 0.0 0.0 0.00 0.00 0.00 86 1011.8
20260904102708 15 66 0.0 0.0 0.00 0.00 0.00 86 1011.8
20260904102649 15 66 0.0 0.0 0.00 0.00 0.00 85 1011.8
20260904102639 15 66 0.0 0.0 0.00 0.00 0.00 86 1011.8
20260904102619 15 66 0.0 0.0 0.00 0.00 0.00 85 1011.8
20260904102509 15 66 0.0 0.0 0.00 0.00 0.00 85 1011.8
20260904102451 15 66 0.0 0.0 0.00 0.00 0.00 85 1011.8
20260904102408 15 66 0.0 0.0 0.00 0.00 0.00 85 1011.8
20260904102326 15 79 0.0 3.2 0.00 0.00 0.00 85 1013.0
20260904102324 15 66 0.0 0.0 0.00 0.00 0.00 85 1011.8
20260904102124 15 66 0.0 0.0 0.00 0.00 0.00 85 1011.8
20260904101938 15 66 0.0 0.0 0.00 0.00 0.00 85 1011.8
20260904101910 15 66 0.0 1.6 0.00 0.00 0.00 85 1011.8
20260904101822 15 60 1.6 3.2 0.00 0.00 0.00 85 1012.6
20260904101808 15 52 1.6 0.0 0.00 0.00 0.00 85 1012.0
20260904101708 15 52 1.6 0.0 0.00 0.00 0.00 85 1012.0
20260904101608 15 52 1.6 0.0 0.00 0.00 0.00 85 1012.0
20260904101538 15 52 1.6 0.0 0.00 0.00 0.00 85 1012.0
20260904101508 15 52 1.6 0.0 0.00 0.00 0.00 85 1012.0
20260904101408 15 52 1.6 0.0 0.00 0.00 0.00 85 1012.0
20260904101338 15 52 1.6 0.0 0.00 0.00 0.00 85 1012.0
20260904101318 15 54 1.6 3.2 0.00 0.00 0.00 85 1012.7
20260904101308 15 52 1.6 0.0 0.00 0.00 0.00 85 1012.0
20260904101238 15 52 1.6 0.0 0.00 0.00 0.00 85 1012.0
20260904101208 15 52 1.6 0.0 0.00 0.00 0.00 85 1012.0
20260904101109 15 52 1.6 0.0 0.00 0.00 0.00 85 1012.0
20260904101040 15 52 1.6 0.0 0.00 0.00 0.00 85 1012.0
20260904101009 15 52 1.6 0.0 0.00 0.00 0.00 85 1012.0
20260904100919 15 69 0.0 0.0 0.00 0.00 0.00 85 1011.8
20260904100909 15 52 1.6 0.0 0.00 0.00 0.00 85 1012.0
20260904100841 15 52 1.6 3.2 0.00 0.00 0.00 85 1012.0
20260904100814 15 59 3.2 3.2 0.00 0.00 0.00 85 1012.6
20260904100808 15 69 0.0 0.0 0.00 0.00 0.00 85 1011.8
20260904100742 15 69 0.0 0.0 0.00 0.00 0.00 85 1011.8
20260904100710 15 69 0.0 0.0 0.00 0.00 0.00 85 1011.8
20260904100628 15 69 0.0 0.0 0.00 0.00 0.00 85 1011.8
20260904100621 15 69 0.0 0.0 0.00 0.00 0.00 85 1011.8
20260904100548 15 69 0.0 0.0 0.00 0.00 0.00 85 1011.8
20260904100423 15 69 0.0 0.0 0.00 0.00 0.00 85 1011.8
20260904100310 15 47 1.6 3.2 0.00 0.00 0.00 85 1012.9
20260904100249 15 69 0.0 0.0 0.00 0.00 0.00 85 1011.8
20260904100111 15 69 0.0 0.0 0.00 0.00 0.00 85 1011.8
20260904100009 15 69 0.0 0.0 0.00 0.00 0.00 85 1011.8
20260904095952 15 65 1.6 0.0 0.00 0.00 0.00 85 1011.8
20260904095940 15 69 0.0 0.0 0.00 0.00 0.00 85 1011.8
20260904095908 15 69 0.0 0.0 0.00 0.00 0.00 85 1011.8
20260904095840 15 69 0.0 1.6 0.00 0.00 0.00 85 1011.8
20260904095810 15 58 3.2 3.2 0.00 0.00 0.00 85 1012.9
20260904095709 15 65 1.6 0.0 0.00 0.00 0.00 85 1011.8
20260904095628 15 65 1.6 0.0 0.00 0.00 0.00 85 1011.8
20260904095624 15 65 1.6 0.0 0.00 0.00 0.00 85 1011.8
20260904095408 15 65 1.6 0.0 0.00 0.00 0.00 85 1011.8
20260904095338 15 65 1.6 0.0 0.00 0.00 0.00 85 1011.8
20260904095308 15 65 1.6 0.0 0.00 0.00 0.00 85 1011.8
20260904095306 15 52 3.2 3.2 0.00 0.00 0.00 85 1012.6
20260904095227 15 65 1.6 0.0 0.00 0.00 0.00 85 1011.8
20260904095101 15 45 3.2 0.0 0.00 0.00 0.00 84 1011.9
20260904095038 15 65 1.6 0.0 0.00 0.00 0.00 85 1011.8
20260904095008 15 65 1.6 0.0 0.00 0.00 0.00 85 1011.8
20260904094909 15 65 1.6 0.0 0.00 0.00 0.00 85 1011.8
20260904094853 15 65 1.6 3.2 0.00 0.00 0.00 85 1011.8
20260904094810 15 45 3.2 0.0 0.00 0.00 0.00 85 1011.9
20260904094800 15 45 3.2 3.2 0.00 0.00 0.00 85 1012.7
20260904094743 15 45 3.2 0.0 0.00 0.00 0.00 85 1011.9
20260904094735 15 45 3.2 0.0 0.00 0.00 0.00 85 1011.9
20260904094609 15 45 3.2 0.0 0.00 0.00 0.00 85 1011.9
20260904094538 15 45 3.2 0.0 0.00 0.00 0.00 85 1011.9
20260904094507 15 45 3.2 0.0 0.00 0.00 0.00 84 1011.9
20260904094440 15 45 3.2 0.0 0.00 0.00 0.00 84 1011.9
20260904094418 15 45 3.2 0.0 0.00 0.00 0.00 84 1011.9
20260904094408 15 45 3.2 0.0 0.00 0.00 0.00 84 1011.9
20260904094309 15 45 3.2 0.0 0.00 0.00 0.00 84 1011.9
20260904094300 15 60 1.6 3.2 0.00 0.00 0.00 84 1012.6
20260904094248 15 45 3.2 0.0 0.00 0.00 0.00 84 1011.9
20260904094109 15 45 3.2 0.0 0.00 0.00 0.00 84 1011.9
20260904094049 15 45 3.2 0.0 0.00 0.00 0.00 84 1011.9
20260904093908 15 45 3.2 0.0 0.00 0.00 0.00 84 1011.9
20260904093840 15 45 3.2 3.2 0.00 0.00 0.00 84 1011.9
20260904093809 15 53 3.2 0.0 0.00 0.00 0.00 84 1011.8
20260904093757 15 53 3.2 0.0 0.00 0.00 0.00 84 1011.8
20260904093709 15 53 3.2 0.0 0.00 0.00 0.00 84 1011.8
20260904093639 15 53 3.2 0.0 0.00 0.00 0.00 84 1011.8
20260904093617 15 53 3.2 0.0 0.00 0.00 0.00 84 1011.8
20260904093609 15 53 3.2 0.0 0.00 0.00 0.00 84 1011.8
20260904093551 15 53 3.2 0.0 0.00 0.00 0.00 84 1011.8
20260904093509 15 53 3.2 0.0 0.00 0.00 0.00 84 1011.8
20260904093454 15 53 3.2 0.0 0.00 0.00 0.00 84 1011.8
20260904093431 15 53 3.2 3.2 0.00 0.00 0.00 84 1011.8
20260904093424 15 53 3.2 0.0 0.00 0.00 0.00 84 1011.8
20260904093256 15 60 1.6 3.2 0.00 0.00 0.00 84 1012.7
20260904093253 15 83 1.6 0.0 0.00 0.00 0.00 84 1011.8
20260904093246 15 53 3.2 0.0 0.00 0.00 0.00 84 1011.8
20260904093234 15 53 3.2 0.0 0.00 0.00 0.00 84 1011.8
20260904092817 15 83 1.6 0.0 0.00 0.00 0.00 84 1011.8
20260904092809 15 83 1.6 0.0 0.00 0.00 0.00 84 1011.8
20260904092752 15 66 1.6 3.2 0.00 0.00 0.00 84 1012.5
20260904092739 15 83 1.6 0.0 0.00 0.00 0.00 84 1011.8
20260904092708 15 83 1.6 0.0 0.00 0.00 0.00 84 1011.8
20260904092620 15 83 1.6 0.0 0.00 0.00 0.00 83 1011.8
20260904092615 15 83 1.6 0.0 0.00 0.00 0.00 84 1011.8
20260904092603 15 83 1.6 0.0 0.00 0.00 0.00 84 1011.8
20260904092308 15 83 1.6 0.0 0.00 0.00 0.00 84 1011.8
20260904092248 15 62 1.6 3.2 0.00 0.00 0.00 84 1012.6
20260904092208 15 83 1.6 0.0 0.00 0.00 0.00 84 1011.8
20260904092139 15 83 1.6 0.0 0.00 0.00 0.00 84 1011.8
20260904092128 15 64 1.6 0.0 0.00 0.00 0.00 83 1011.8
20260904092124 15 83 1.6 0.0 0.00 0.00 0.00 83 1011.8
20260904091939 15 83 1.6 0.0 0.00 0.00 0.00 83 1011.8
20260904091908 15 83 1.6 0.0 0.00 0.00 0.00 83 1011.8
20260904091840 15 83 1.6 1.6 0.00 0.00 0.00 83 1011.8
20260904091808 15 64 1.6 0.0 0.00 0.00 0.00 83 1011.8
20260904091744 15 51 0.0 3.2 0.00 0.00 0.00 83 1012.6
20260904091709 15 64 1.6 0.0 0.00 0.00 0.00 83 1011.8
20260904091656 15 64 1.6 0.0 0.00 0.00 0.00 83 1011.8
20260904091649 15 64 1.6 0.0 0.00 0.00 0.00 83 1011.8
20260904091521 15 64 1.6 0.0 0.00 0.00 0.00 83 1011.8
20260904091409 15 64 1.6 0.0 0.00 0.00 0.00 83 1011.8
20260904091308 15 64 1.6 0.0 0.00 0.00 0.00 83 1011.8
20260904091248 15 64 1.6 0.0 0.00 0.00 0.00 83 1011.8
20260904091238 15 70 1.6 3.2 0.00 0.00 0.00 83 1012.5
20260904091109 15 64 1.6 0.0 0.00 0.00 0.00 83 1011.8
20260904091039 15 64 1.6 0.0 0.00 0.00 0.00 83 1011.8
20260904091025 15 62 1.6 0.0 0.00 0.00 0.00 82 1011.7
20260904091008 15 64 1.6 0.0 0.00 0.00 0.00 83 1011.8
20260904090951 15 64 1.6 0.0 0.00 0.00 0.00 83 1011.8
20260904090908 15 64 1.6 0.0 0.00 0.00 0.00 83 1011.8
20260904090839 15 64 1.6 1.6 0.00 0.00 0.00 83 1011.8
20260904090809 15 62 1.6 0.0 0.00 0.00 0.00 83 1011.7
20260904090734 15 87 0.0 3.2 0.00 0.00 0.00 82 1012.6
20260904090728 16 62 1.6 0.0 0.00 0.00 0.00 82 1011.7
20260904090721 15 62 1.6 0.0 0.00 0.00 0.00 82 1011.7
20260904090657 16 62 1.6 3.2 0.00 0.00 0.00 82 1011.7
20260904090649 15 62 1.6 0.0 0.00 0.00 0.00 82 1011.7
20260904090529 16 59 3.2 0.0 0.00 0.00 0.00 82 1012.0
20260904090522 15 62 1.6 0.0 0.00 0.00 0.00 82 1011.7
20260904090459 16 59 3.2 0.0 0.00 0.00 0.00 82 1012.0
20260904090452 16 59 3.2 0.0 0.00 0.00 0.00 82 1012.0
20260904090447 16 59 3.2 0.0 0.00 0.00 0.00 82 1012.0
20260904090427 16 59 3.2 0.0 0.00 0.00 0.00 82 1012.0
20260904090421 16 62 1.6 0.0 0.00 0.00 0.00 82 1011.7
20260904090406 16 62 1.6 0.0 0.00 0.00 0.00 82 1011.7
20260904090343 16 62 1.6 0.0 0.00 0.00 0.00 82 1011.7
20260904090330 16 62 1.6 0.0 0.00 0.00 0.00 82 1011.7